[[{"header":{"parameterUnit":"m.s-1","parameterCategory":1,"la1":30.6,"la2":28.766,"lo1":-90.7593,"lo2":-88.6598,"dy":0.0162,"dx":0.0183,"nx":116,"ny":114,"refTime":"2023-03-25T00:00:00:Z","depth":0,"parameterNumber":2,"parameterNumberName":"U-component_of_WINDS"},"data":[0.0,0.0,0.0,0.0,0.0,0.0,0.0,0.0,0.0,0.0,0.0,0.0,0.0,0.0,0.0,0.0,0.0,0.0,0.0,0.0,0.0,0.0,0.0,0.0,0.0,0.0,0.0,0.0,0.0,0.0,0.0,0.0,0.0,0.0,0.0,0.0,0.0,0.0,0.0,0.0,0.0,0.0,0.0,0.0,0.0,0.0,0.0,0.0,0.0,0.0,0.0,0.0,0.0,0.0,0.0,0.0,0.0,0.0,0.0,0.0,0.0,0.0,0.0,0.0,0.0,0.0,0.0,0.0,0.0,0.0,0.0,0.0,0.0,0.0,0.0,0.0,0.0,0.0,0.0,0.0,0.0,0.0,0.0,0.0,0.0,0.0,0.0,0.0,0.0,0.0,0.0,0.0,0.0,0.0,0.0,0.0,0.0,0.0,0.0,0.0,0.0,0.0,0.0,0.0,0.0,0.0,0.0,0.0,0.0,0.0,0.0,0.0,0.0,0.0,0.0,0.0,0.0,0.0,0.0,0.0,0.0,0.0,0.0,0.0,0.0,0.0,0.0,0.0,0.0,0.0,0.0,0.0,0.0,0.0,0.0,0.0,0.0,0.0,0.0,0.0,0.0,0.0,0.0,0.0,0.0,0.0,0.0,0.0,0.0,0.0,0.0,0.0,0.0,0.0,0.0,0.0,0.0,0.0,0.0,0.0,0.0,0.0,0.0,0.0,0.0,0.0,0.0,0.0,0.0,0.0,0.0,0.0,0.0,0.0,0.0,0.0,0.0,0.0,0.0,0.0,0.0,0.0,0.0,0.0,0.0,0.0,0.0,0.0,0.0,0.0,0.0,0.0,0.0,0.0,0.0,0.0,0.0,0.0,0.0,0.0,0.0,0.0,0.0,0.0,0.0,0.0,0.0,0.0,0.0,0.0,0.0,0.0,0.0,0.0,0.0,0.0,0.0,0.0,0.0,0.0,0.0,0.0,0.0,0.0,0.0,0.0,0.0,0.0,0.0,0.0,0.0,0.0,0.0,0.0,0.0,0.0,0.0,0.0,0.0,0.0,0.0,0.0,0.0,0.0,0.0,0.0,0.0,0.0,0.0,0.0,0.0,0.0,0.0,0.0,0.0,0.0,0.0,0.0,0.0,0.0,0.0,0.0,0.0,0.0,0.0,0.0,0.0,0.0,0.0,0.0,0.0,0.0,0.0,0.0,0.0,0.0,0.0,0.0,0.0,0.0,0.0,0.0,0.0,0.0,0.0,0.0,0.0,0.0,0.0,0.0,0.0,0.0,0.0,0.0,0.0,0.0,0.0,0.0,0.0,0.0,0.0,0.0,0.0,0.0,0.0,0.0,0.0,0.0,0.0,0.0,0.0,0.0,0.0,0.0,0.0,0.0,0.0,0.0,0.0,0.0,0.0,0.0,0.0,0.0,0.0,0.0,0.0,0.0,0.0,0.0,0.0,0.0,0.0,0.0,0.0,0.0,0.0,0.0,0.0,0.0,0.0,0.0,0.0,0.0,0.0,0.0,0.0,0.0,0.0,0.0,0.0,0.0,0.0,0.0,0.0,0.0,0.0,0.0,0.0,0.0,0.0,0.0,0.0,0.0,0.0,0.0,0.0,0.0,0.0,0.0,0.0,0.0,0.0,0.0,0.0,0.0,0.0,0.0,0.0,0.0,0.0,0.0,0.0,0.0,0.0,0.0,0.0,0.0,0.0,0.0,0.0,0.0,0.0,0.0,0.0,0.0,0.0,0.0,0.0,0.0,0.0,0.0,0.0,0.0,0.0,0.0,0.0,0.0,0.0,0.0,0.0,0.0,0.0,0.0,0.0,0.0,0.0,0.0,0.0,0.0,0.0,0.0,0.0,0.0,0.0,0.0,0.0,0.0,0.0,0.0,0.0,0.0,0.0,0.0,0.0,0.0,0.0,0.0,0.0,0.0,0.0,0.0,0.0,0.0,0.0,0.0,0.0,0.0,0.0,0.0,0.0,0.0,0.0,0.0,0.0,0.0,0.0,0.0,0.0,0.0,0.0,0.0,0.0,0.0,0.0,0.0,0.0,0.0,0.0,0.0,0.0,0.0,0.0,0.0,0.0,0.0,0.0,0.0,0.0,0.0,0.0,0.0,0.0,0.0,0.0,0.0,0.0,0.0,0.0,0.0,0.0,0.0,0.0,0.0,0.0,0.0,0.0,0.0,0.0,0.0,0.0,0.0,0.0,0.0,0.0,0.0,0.0,0.0,0.0,0.0,0.0,0.0,0.0,0.0,0.0,0.0,0.0,0.0,0.0,0.0,0.0,0.0,0.0,0.0,0.0,0.0,0.0,0.0,0.0,0.0,0.0,0.0,0.0,0.0,0.0,0.0,0.0,0.0,0.0,0.0,0.0,0.0,0.0,0.0,0.0,0.0,0.0,0.0,0.0,0.0,0.0,0.0,0.0,0.0,0.0,0.0,0.0,0.0,0.0,0.0,0.0,0.0,0.0,0.0,0.0,0.0,0.0,0.0,0.0,0.0,0.0,0.0,0.0,0.0,0.0,0.0,0.0,0.0,0.0,0.0,0.0,0.0,0.0,0.0,0.0,0.0,0.0,0.0,0.0,0.0,0.0,0.0,0.0,0.0,0.0,0.0,0.0,0.0,0.0,0.0,0.0,0.0,0.0,0.0,0.0,0.0,0.0,0.0,0.0,0.0,0.0,0.0,0.0,0.0,0.0,0.0,0.0,0.0,0.0,0.0,0.0,0.0,0.0,0.0,0.0,0.0,0.0,0.0,0.0,0.0,0.0,0.0,0.0,0.0,0.0,0.0,0.0,0.0,0.0,0.0,0.0,0.0,0.0,0.0,0.0,0.0,0.0,0.0,0.0,0.0,0.0,0.0,0.0,0.0,0.0,0.0,0.0,0.0,0.0,0.0,0.0,0.0,0.0,0.0,0.0,0.0,0.0,0.0,0.0,0.0,0.0,0.0,0.0,0.0,0.0,0.0,0.0,0.0,0.0,0.0,0.0,0.0,0.0,0.0,0.0,0.0,0.0,0.0,0.0,0.0,0.0,0.0,0.0,0.0,0.0,0.0,0.0,0.0,0.0,0.0,0.0,0.0,0.0,0.0,0.0,0.0,0.0,0.0,0.0,0.0,0.0,0.0,0.0,0.0,0.0,0.0,0.0,0.0,0.0,0.0,0.0,0.0,0.0,0.0,0.0,0.0,0.0,0.0,0.0,0.0,0.0,0.0,0.0,0.0,0.0,0.0,0.0,0.0,0.0,0.0,0.0,0.0,0.0,0.0,0.0,0.0,0.0,0.0,0.0,0.0,0.0,0.0,0.0,0.0,0.0,0.0,0.0,0.0,0.0,0.0,0.0,0.0,0.0,0.0,0.0,0.0,0.0,0.0,0.0,0.0,0.0,0.0,0.0,0.0,0.0,0.0,0.0,0.0,0.0,0.0,0.0,0.0,0.0,0.0,0.0,0.0,0.0,0.0,0.0,0.0,0.0,0.0,0.0,0.0,0.0,0.0,0.0,0.0,0.0,0.0,0.0,0.0,0.0,0.0,0.0,0.0,0.0,0.0,0.0,0.0,0.0,0.0,0.0,0.0,0.0,0.0,0.0,0.0,0.0,0.0,0.0,0.0,0.0,0.0,0.0,0.0,0.0,0.0,0.0,0.0,0.0,0.0,0.0,0.0,0.0,0.0,0.0,0.0,0.0,0.0,0.0,0.0,0.0,0.0,0.0,0.0,0.0,0.0,0.0,0.0,0.0,0.0,0.0,0.0,0.0,0.0,0.0,0.0,0.0,0.0,0.0,0.0,0.0,0.0,0.0,0.0,0.0,0.0,0.0,0.0,0.0,0.0,0.0,0.0,0.0,0.0,0.0,0.0,0.0,0.0,0.0,0.0,0.0,0.0,0.0,0.0,0.0,0.0,0.0,0.0,0.0,0.0,0.0,0.0,0.0,0.0,0.0,0.0,0.0,0.0,0.0,0.0,0.0,0.0,0.0,0.0,0.0,0.0,0.0,0.0,0.0,0.0,0.0,0.0,0.0,0.0,0.0,0.0,0.0,0.0,0.0,0.0,0.0,0.0,0.0,0.0,0.0,0.0,0.0,0.0,0.0,0.0,0.0,0.0,0.0,0.0,0.0,0.0,0.0,0.0,0.0,0.0,0.0,0.0,0.0,0.0,0.0,0.0,0.0,0.0,0.0,0.0,0.0,0.0,0.0,0.0,0.0,0.0,0.0,0.0,0.0,0.0,0.0,0.0,0.0,0.0,0.0,0.0,0.0,0.0,0.0,0.0,0.0,0.0,0.0,0.0,0.0,0.0,0.0,0.0,0.0,0.0,0.0,0.0,0.0,0.0,0.0,0.0,0.0,0.0,0.0,0.0,0.0,0.0,0.0,0.0,0.0,0.0,0.0,0.0,0.0,0.0,0.0,0.0,0.0,0.0,0.0,0.0,0.0,0.0,0.0,0.0,0.0,0.0,0.0,0.0,0.0,0.0,0.0,0.0,0.0,0.0,0.0,0.0,0.0,0.0,0.0,0.0,0.0,0.0,0.0,0.0,0.0,0.0,0.0,0.0,0.0,0.0,0.0,0.0,0.0,0.0,0.0,0.0,0.0,0.0,0.0,0.0,0.0,0.0,0.0,0.0,0.0,0.0,0.0,0.0,0.0,0.0,0.0,0.0,0.0,0.0,0.0,0.0,0.0,0.0,0.0,0.0,0.0,0.0,0.0,0.0,0.0,0.0,0.0,0.0,0.0,0.0,0.0,0.0,0.0,0.0,0.0,0.0,0.0,0.0,0.0,0.0,0.0,0.0,0.0,0.0,0.0,0.0,0.0,0.0,0.0,0.0,0.0,0.0,0.0,0.0,0.0,0.0,0.0,0.0,0.0,0.0,0.0,0.0,0.0,0.0,0.0,0.0,0.0,0.0,0.0,0.0,0.0,0.0,0.0,0.0,0.0,0.0,0.0,0.0,0.0,0.0,0.0,0.0,0.0,0.0,0.0,0.0,0.0,0.0,0.0,0.0,0.0,0.0,0.0,0.0,0.0,0.0,0.0,0.0,0.0,0.0,0.0,0.0,0.0,0.0,0.0,0.0,0.0,0.0,0.0,0.0,0.0,0.0,0.0,0.0,0.0,0.0,0.0,0.0,0.0,0.0,0.0,0.0,0.0,0.0,0.0,0.0,0.0,0.0,0.0,0.0,0.0,0.0,0.0,0.0,0.0,0.0,0.0,0.0,0.0,0.0,0.0,0.0,0.0,0.0,0.0,0.0,0.0,0.0,0.0,0.0,0.0,0.0,0.0,0.0,0.0,0.0,0.0,0.0,0.0,0.0,0.0,0.0,0.0,0.0,0.0,0.0,0.0,0.0,0.0,0.0,0.0,0.0,0.0,0.0,0.0,0.0,0.0,0.0,0.0,0.0,0.0,0.0,0.0,0.0,0.0,0.0,0.0,0.0,0.0,0.0,0.0,0.0,0.0,0.0,0.0,0.0,0.0,0.0,0.0,0.0,0.0,0.0,0.0,0.0,0.0,0.0,0.0,0.0,0.0,0.0,0.0,0.0,0.0,0.0,0.0,0.0,0.0,0.0,0.0,0.0,0.0,0.0,0.0,0.0,0.0,0.0,0.0,0.0,0.0,0.0,0.0,0.0,0.0,0.0,0.0,0.0,0.0,0.0,0.0,0.0,0.0,0.0,0.0,0.0,0.0,0.0,0.0,0.0,0.0,0.0,0.0,0.0,0.0,0.0,0.0,0.0,0.0,0.0,0.0,0.0,0.0,0.0,0.0,0.0,0.0,0.0,0.0,0.0,0.0,0.0,0.0,0.0,0.0,0.0,0.0,0.0,0.0,0.0,0.0,0.0,0.0,0.0,0.0,0.0,0.0,0.0,0.0,0.0,0.0,0.0,0.0,0.0,0.0,0.0,0.0,0.0,0.0,0.0,0.0,0.0,0.0,0.0,0.0,0.0,0.0,0.0,0.0,0.0,0.0,0.0,0.0,0.0,0.0,0.0,0.0,0.0,0.0,0.0,0.0,0.0,0.0,0.0,0.0,0.0,0.0,0.0,0.0,0.0,0.0,0.0,0.0,0.0,-4.5338,-4.6075,0.0,0.0,0.0,0.0,0.0,0.0,0.0,0.0,0.0,0.0,0.0,0.0,0.0,0.0,0.0,0.0,0.0,0.0,0.0,0.0,0.0,0.0,0.0,0.0,0.0,0.0,0.0,0.0,0.0,0.0,0.0,0.0,0.0,0.0,0.0,0.0,0.0,0.0,-4.658,-4.658,-4.7177,-4.7791,-4.8044,-4.8094,0.0,0.0,0.0,0.0,0.0,0.0,0.0,0.0,0.0,0.0,0.0,0.0,0.0,0.0,0.0,0.0,0.0,0.0,0.0,0.0,0.0,0.0,0.0,0.0,0.0,0.0,0.0,0.0,0.0,0.0,0.0,0.0,0.0,0.0,0.0,0.0,0.0,0.0,0.0,0.0,0.0,0.0,0.0,0.0,0.0,0.0,0.0,0.0,0.0,0.0,0.0,0.0,0.0,0.0,0.0,0.0,0.0,0.0,0.0,0.0,0.0,0.0,0.0,0.0,0.0,0.0,0.0,0.0,0.0,0.0,-4.3937,-4.4434,0.0,0.0,0.0,0.0,0.0,0.0,0.0,0.0,0.0,0.0,0.0,0.0,0.0,0.0,0.0,0.0,0.0,0.0,0.0,0.0,0.0,0.0,0.0,0.0,-5.1105,-5.0917,-5.0822,-5.0632,0.0,0.0,0.0,0.0,0.0,0.0,0.0,-4.6608,-4.6032,-4.6032,-4.6032,-4.5899,-4.5741,-4.5926,-4.5926,-4.5794,-4.7126,0.0,0.0,0.0,0.0,0.0,0.0,0.0,0.0,0.0,0.0,0.0,0.0,0.0,0.0,0.0,0.0,0.0,0.0,0.0,0.0,0.0,0.0,0.0,0.0,0.0,0.0,0.0,0.0,0.0,0.0,0.0,0.0,0.0,0.0,0.0,0.0,0.0,0.0,0.0,0.0,0.0,0.0,0.0,0.0,0.0,0.0,0.0,0.0,0.0,0.0,0.0,0.0,0.0,0.0,0.0,0.0,0.0,0.0,0.0,0.0,0.0,0.0,0.0,-4.2355,-4.2257,-4.2257,-4.2257,-4.2257,-4.2257,-4.2257,-4.2452,-4.284,-4.3701,0.0,0.0,0.0,0.0,0.0,0.0,0.0,0.0,0.0,0.0,0.0,0.0,0.0,0.0,0.0,0.0,0.0,0.0,0.0,0.0,0.0,-5.1229,-5.1182,-5.1152,-4.9902,-4.9092,0.0,0.0,0.0,0.0,0.0,0.0,-4.6528,-4.5449,-4.4886,-4.4886,-4.4886,-4.4398,-4.3462,-4.4453,-4.4344,-4.3492,-4.5608,-4.6528,-4.6528,0.0,0.0,0.0,0.0,0.0,0.0,0.0,0.0,0.0,0.0,0.0,0.0,0.0,0.0,0.0,0.0,0.0,0.0,0.0,0.0,0.0,0.0,0.0,0.0,0.0,0.0,0.0,0.0,0.0,0.0,0.0,0.0,0.0,0.0,0.0,0.0,0.0,0.0,0.0,0.0,0.0,-4.2873,-4.2792,0.0,0.0,0.0,0.0,0.0,0.0,0.0,0.0,0.0,0.0,0.0,0.0,0.0,-4.2792,-4.2792,-4.1864,-4.1419,-4.1419,-4.0516,-4.0134,-4.0134,-4.0134,-4.0134,-4.0134,-4.0134,0.0,-4.2792,-4.2937,0.0,0.0,0.0,0.0,0.0,0.0,0.0,0.0,0.0,0.0,0.0,0.0,0.0,0.0,0.0,0.0,0.0,0.0,0.0,0.0,0.0,-5.0822,-5.068,-4.9317,-4.9092,-4.8617,-4.774,-4.6943,0.0,0.0,0.0,-4.5395,-4.5395,-4.4289,-4.3713,-4.3713,-4.3713,-4.3517,-4.3042,-4.3517,-4.3462,-4.3042,-4.4016,-4.4805,-4.5449,-4.6005,0.0,0.0,0.0,0.0,0.0,0.0,0.0,0.0,0.0,0.0,0.0,0.0,0.0,0.0,0.0,0.0,0.0,0.0,0.0,0.0,0.0,0.0,0.0,0.0,0.0,0.0,0.0,0.0,0.0,0.0,0.0,0.0,0.0,0.0,0.0,0.0,0.0,0.0,0.0,-4.2034,-4.1409,-4.1097,-4.1045,-4.1045,0.0,0.0,0.0,0.0,0.0,0.0,0.0,0.0,0.0,-4.1045,-4.1045,-4.1045,-4.1045,-4.0618,-4.0364,-4.0364,-3.9929,-3.9697,-3.9697,-3.9697,-3.9697,-3.9697,-3.9697,-4.0236,-4.1095,-4.1667,-4.1914,-4.1963,0.0,0.0,0.0,0.0,-4.1914,-4.1815,0.0,0.0,0.0,0.0,0.0,0.0,0.0,0.0,0.0,0.0,0.0,0.0,-4.9659,-5.0076,-4.9659,-4.7841,-4.8066,-4.7763,-4.6556,-4.6005,0.0,0.0,-4.467,-4.4261,-4.4261,-4.3462,-4.2986,-4.2986,-4.2986,-4.2986,-4.2986,-4.2986,-4.2986,-4.2986,-4.2986,-4.3462,-4.4315,-4.5128,-4.5449,0.0,0.0,0.0,0.0,0.0,0.0,0.0,0.0,0.0,0.0,0.0,0.0,0.0,0.0,0.0,0.0,0.0,0.0,0.0,0.0,0.0,0.0,0.0,0.0,0.0,0.0,0.0,0.0,0.0,0.0,0.0,0.0,0.0,0.0,0.0,0.0,0.0,0.0,-4.0852,-4.03,-3.9747,-3.9697,-3.9697,0.0,0.0,0.0,0.0,0.0,0.0,-3.9697,-3.9697,-3.9697,-3.9697,-3.9697,-3.9697,-3.9697,-3.9697,-3.9697,-3.9697,-3.9697,-3.9697,-3.9697,-3.9697,-3.9697,-3.9697,-3.9697,-3.9697,-3.9749,-4.0516,-4.0844,-4.0895,-4.1667,-4.2012,-4.1914,-4.1095,-4.0844,-4.0693,0.0,0.0,0.0,0.0,0.0,0.0,0.0,0.0,0.0,0.0,0.0,-4.9659,-4.9611,-4.8745,-4.8117,-4.7965,-4.658,-4.5661,-4.5555,-4.4071,-4.3184,-4.3184,-4.3129,-4.3098,-4.3098,-4.3042,-4.2986,-4.2986,-4.2986,-4.2986,-4.2986,-4.2986,-4.2986,-4.2986,-4.2986,-4.3042,-4.3098,-4.3129,-4.3184,-4.3184,0.0,0.0,0.0,0.0,0.0,0.0,0.0,0.0,0.0,0.0,0.0,0.0,0.0,0.0,0.0,0.0,0.0,0.0,0.0,0.0,0.0,0.0,0.0,0.0,0.0,0.0,0.0,0.0,0.0,0.0,0.0,0.0,0.0,0.0,0.0,0.0,0.0,0.0,0.0,-3.9747,-3.9697,0.0,0.0,0.0,0.0,-3.9697,-3.9697,-3.9697,-3.9697,-3.9697,-3.9697,-3.9697,-3.9697,-3.9697,-3.9697,-3.9697,-3.9697,-3.9697,-3.9697,-3.9697,-3.9697,-3.9697,-3.9697,-3.9697,-3.9697,-3.9697,-3.9697,-3.9749,-3.98,-3.98,-3.9826,-3.9852,-3.9852,-3.98,-3.98,-3.98,0.0,0.0,0.0,0.0,0.0,0.0,0.0,0.0,-5.0964,-5.0268,-4.9834,-4.9071,-4.7689,-4.7841,-4.7406,-4.6006,-4.5661,-4.5208,-4.4505,-4.3517,-4.2986,-4.2986,-4.2986,-4.2986,-4.2986,-4.2986,-4.2986,-4.2986,-4.2986,-4.2986,-4.2986,-4.2986,-4.2986,-4.2986,-4.2986,-4.2986,-4.2986,-4.2986,-4.2986,-4.2986,-4.2986,-4.2986,0.0,0.0,0.0,0.0,0.0,0.0,0.0,0.0,0.0,0.0,0.0,0.0,0.0,0.0,0.0,0.0,0.0,0.0,0.0,0.0,0.0,0.0,0.0,0.0,0.0,0.0,0.0,0.0,0.0,0.0,0.0,0.0,0.0,0.0,0.0,0.0,0.0,-3.9798,-3.9697,0.0,-3.9697,-3.9697,-3.9697,-3.9697,-3.9697,-3.9697,-3.9697,-3.9697,-3.9697,-3.9697,-3.9697,-3.9697,-3.9697,-3.9697,-3.9697,-3.9697,-3.9697,-3.9697,-3.9697,-3.9697,-3.9697,-3.9697,-3.9697,-3.9697,-3.9697,-3.9697,-3.9697,-3.9697,-3.9697,-3.9697,-3.9697,-3.9697,-3.9697,-3.9697,0.0,0.0,0.0,0.0,0.0,0.0,0.0,0.0,-5.0822,-4.9708,-4.9268,-4.8396,-4.6583,-4.666,-4.6294,-4.483,-4.4966,-4.4804,-4.4064,-4.3487,-4.3129,-4.3129,-4.3017,-4.2986,-4.2986,-4.2986,-4.2986,-4.2986,-4.2986,-4.2986,-4.2986,-4.2986,-4.2986,-4.2986,-4.2986,-4.2986,-4.2986,-4.2986,-4.2986,-4.2986,-4.2986,-4.2986,-4.2986,0.0,0.0,0.0,0.0,0.0,0.0,0.0,0.0,0.0,0.0,0.0,0.0,0.0,0.0,0.0,0.0,0.0,0.0,0.0,0.0,0.0,0.0,0.0,0.0,0.0,0.0,0.0,0.0,0.0,0.0,0.0,0.0,0.0,0.0,-4.1275,-4.0874,-3.9823,-3.9697,-3.9697,-3.9697,-3.9697,-3.9517,-3.9154,-3.9102,-3.8921,-3.853,-3.8868,-3.9102,-3.9102,-3.9465,-3.9697,-3.9697,-3.9697,-3.9697,-3.9697,-3.9697,-3.9697,-3.9697,-3.9697,-3.9697,-3.9697,-3.9697,-3.9697,-3.9697,-3.9697,-3.9697,-3.9697,-3.9697,-3.9697,-3.9697,-3.9697,-3.9697,-3.9697,0.0,0.0,0.0,0.0,0.0,0.0,0.0,-5.1229,-5.0822,-4.9659,-4.8646,-4.7587,-4.6478,-4.5342,-4.4668,-4.4668,-4.4476,-4.4313,-4.4313,-4.3738,-4.3381,-4.3381,-4.3129,-4.2986,-4.2986,-4.2986,-4.2986,-4.2986,-4.2986,-4.2986,-4.2986,-4.2986,-4.2986,-4.2986,-4.2986,-4.2986,-4.2986,-4.2986,-4.2986,-4.2986,-4.2986,-4.2986,-4.2986,0.0,0.0,0.0,0.0,0.0,0.0,0.0,0.0,0.0,0.0,0.0,0.0,0.0,0.0,0.0,0.0,0.0,0.0,0.0,0.0,0.0,0.0,0.0,0.0,0.0,0.0,0.0,0.0,0.0,0.0,0.0,0.0,0.0,-4.1426,-4.1275,-4.0874,-3.9771,-3.9645,-3.9594,-3.9594,-3.9594,-3.9102,-3.795,-3.7844,-3.734,-3.624,-3.7233,-3.7844,-3.7897,-3.9025,-3.9645,-3.9722,-3.9722,-3.9722,-3.9747,-3.9747,-3.9747,-3.9722,-3.9722,-3.9722,-3.9697,-3.9697,-3.9697,-3.9697,-3.9697,-3.9697,-3.9697,-3.9697,-3.9697,-3.9697,-3.9697,-3.9697,-3.9697,0.0,0.0,0.0,0.0,0.0,0.0,0.0,-5.1229,-5.0555,-4.8696,-4.8167,-4.728,-4.5395,-4.4884,-4.4668,-4.4668,-4.4476,-4.4313,-4.4313,-4.3984,-4.3653,-4.3381,-4.3129,-4.2986,-4.2986,-4.2986,-4.2986,-4.2986,-4.2986,-4.2986,-4.2986,-4.2986,-4.2986,-4.2986,-4.2986,-4.2986,-4.2986,-4.2986,-4.2986,-4.2986,-4.2986,-4.2986,-4.2986,0.0,0.0,0.0,0.0,0.0,0.0,0.0,0.0,0.0,0.0,0.0,0.0,0.0,0.0,0.0,0.0,0.0,0.0,0.0,0.0,0.0,0.0,0.0,0.0,0.0,0.0,0.0,0.0,0.0,0.0,0.0,-4.1615,-4.1555,-4.1318,-4.0602,-3.9618,-3.8518,-3.766,-3.718,-3.718,-3.718,-3.6996,-3.6673,-3.6673,-3.6511,-3.624,-3.6511,-3.7073,-3.7897,-3.8214,-3.9013,-4.03,-4.03,-4.0501,-4.0824,-4.0824,-4.0676,-4.03,-4.03,-4.0074,-3.9697,-3.9697,-3.9697,-3.9697,-3.9697,-3.9697,-3.9697,-3.9697,-3.9697,-3.9697,-3.9697,-3.9697,-3.9697,0.0,0.0,0.0,0.0,0.0,0.0,0.0,-5.1229,-5.0603,-4.8894,-4.8696,-4.7841,-4.5662,-4.5395,-4.5235,-4.4722,-4.4559,-4.4476,-4.4476,-4.4094,-4.3764,-4.3381,-4.3129,-4.2986,-4.2986,-4.2986,-4.2986,-4.2986,-4.2986,-4.2986,-4.2986,-4.2986,-4.2986,-4.2986,-4.2986,-4.2986,-4.2986,-4.2986,-4.2986,-4.2986,-4.2986,-4.2986,-4.2986,-4.2986,-4.2986,-4.2986,-4.2986,-4.2986,-4.2986,-4.2986,0.0,0.0,0.0,0.0,0.0,0.0,0.0,0.0,0.0,0.0,0.0,0.0,0.0,0.0,0.0,0.0,0.0,0.0,0.0,0.0,0.0,0.0,0.0,0.0,-4.0268,-4.0202,-3.9847,-3.9236,-3.839,-3.7298,-3.6565,-3.6185,-3.6185,-3.6185,-3.5968,-3.5498,-3.5498,-3.5278,-3.4781,-3.5223,-3.5772,-3.6426,-3.6965,-3.7643,-3.8674,-3.8674,-3.8873,-3.9134,-3.9134,-3.9086,-3.9013,-3.9549,-3.9738,-3.9586,-4.0165,-4.0375,-4.0375,-4.0124,-4.0049,-4.0023,0.0,0.0,0.0,0.0,-3.9697,-3.9697,0.0,0.0,0.0,0.0,0.0,0.0,0.0,-5.1229,-5.0822,-4.9708,-4.9611,-4.8795,-4.6791,-4.6478,-4.6006,-4.4992,-4.4776,-4.4668,-4.4668,-4.4203,-4.3819,-4.3517,-4.324,-4.3098,-4.3017,-4.3017,-4.3042,-4.2986,-4.2986,-4.2986,-4.2986,-4.2986,-4.2986,-4.2986,-4.2986,-4.2986,-4.2986,-4.2986,-4.2986,-4.2986,-4.2986,-4.2986,-4.2986,-4.2986,-4.2986,-4.2986,-4.2986,-4.2986,-4.2986,-4.2986,0.0,0.0,0.0,0.0,0.0,0.0,0.0,0.0,0.0,0.0,0.0,0.0,0.0,0.0,0.0,0.0,0.0,0.0,0.0,0.0,0.0,0.0,0.0,0.0,-3.8935,-3.8511,-3.744,-3.7258,-3.6928,-3.6082,-3.5859,-3.5804,-3.5804,-3.5804,-3.5388,-3.4357,-3.4323,-3.3818,-3.2784,-3.3727,0.0,0.0,0.0,-3.6122,-3.6277,-3.6277,-3.63,-3.6369,-3.6369,-3.6576,-3.6943,-3.8067,-3.8827,-3.932,-4.0478,-4.1068,-4.1175,-4.0724,-4.0601,-4.0551,-3.9923,-3.9697,-3.9697,-3.9697,-3.9697,-3.9697,0.0,0.0,0.0,0.0,0.0,0.0,0.0,-5.1229,-5.0822,-4.9708,-4.9611,-4.9092,-4.7841,-4.6919,-4.6321,-4.6058,-4.5235,-4.4668,-4.4668,-4.4422,-4.4203,-4.4148,-4.3874,-4.3598,-4.3351,-4.3351,-4.324,-4.2986,-4.2986,-4.2986,-4.2986,-4.2986,-4.2986,-4.2986,-4.2986,-4.2986,-4.2986,-4.2986,-4.2986,-4.2986,-4.2986,-4.2986,-4.2986,-4.2986,-4.2986,-4.2986,-4.2986,-4.2986,-4.2986,-4.2986,-4.2986,-4.2986,-4.2986,0.0,0.0,0.0,0.0,0.0,0.0,0.0,0.0,0.0,0.0,0.0,0.0,0.0,0.0,0.0,0.0,0.0,0.0,0.0,0.0,-3.7828,-3.7339,-3.6544,-3.5002,-3.4482,-3.4382,-3.4758,-3.3987,-3.3388,-3.3388,-3.3388,-3.3275,-3.3048,-3.3069,-3.2955,-3.2727,-3.2898,-3.3501,-3.4469,-3.4692,-3.5479,-3.6838,-3.6861,-3.7068,-3.7594,-3.7594,0.0,-3.6999,-3.722,-3.766,-3.8209,-3.8965,-3.9828,-4.0701,-4.1,-4.1125,-4.1025,-4.0074,-3.9697,-3.9697,-3.9697,-3.9697,-3.9697,0.0,0.0,0.0,0.0,0.0,0.0,0.0,-5.1229,-5.1011,-5.046,-5.0412,-4.9999,-4.8894,-4.8296,-4.7791,-4.7229,-4.6216,-4.5288,-4.4722,-4.4476,-4.4313,-4.4313,-4.4064,-4.3844,-4.3653,-4.3653,-4.3517,-4.3184,-4.3184,-4.3129,-4.2986,-4.2986,-4.2986,-4.2986,-4.2986,-4.2986,-4.2986,-4.2986,-4.2986,-4.2986,-4.2986,-4.2986,-4.2986,-4.2986,-4.2986,-4.2986,-4.2986,-4.2986,-4.2986,-4.2986,-4.2986,-4.2986,-4.2986,-4.2986,-4.2986,0.0,0.0,0.0,0.0,0.0,0.0,0.0,0.0,0.0,0.0,0.0,0.0,0.0,0.0,-3.8268,-3.8268,0.0,-3.7002,-3.6182,-3.5827,-3.5265,-3.3942,-3.3513,-3.3434,-3.36,-3.3048,-3.2669,-3.2669,-3.2669,-3.2669,-3.2669,-3.2669,-3.2669,-3.2669,-3.2669,-3.3012,-3.3593,-3.3614,-3.3982,-3.4818,-3.4875,-3.5006,-3.5303,-3.5303,-3.5225,-3.5225,-3.5847,-3.6721,-3.7848,-3.8766,-3.9859,-4.0899,-4.0478,-4.071,-4.1171,-3.9985,-3.9947,-4.0526,-4.0526,-4.0526,-4.0526,0.0,0.0,0.0,0.0,0.0,0.0,0.0,-5.1229,-5.1229,-5.1229,-5.1229,-5.087,-5.0028,-4.9708,-4.917,-4.8066,-4.7229,-4.6321,-4.5395,-4.4938,-4.4722,-4.4722,-4.4313,-4.4064,-4.401,-4.401,-4.3819,-4.3517,-4.3517,-4.3351,-4.3073,-4.3073,-4.3017,-4.2986,-4.2986,-4.2986,-4.2986,-4.2986,-4.2986,-4.2986,-4.2986,-4.2986,-4.2986,-4.2986,-4.2986,-4.2986,-4.2986,-4.2986,-4.2986,-4.2986,-4.2986,-4.2986,-4.2986,-4.2986,-4.2986,-4.2681,-4.2625,0.0,0.0,0.0,0.0,0.0,0.0,0.0,0.0,-3.8447,-3.8447,-3.8447,-3.767,-3.6924,-3.6838,-3.6009,-3.5148,-3.4754,-3.4608,-3.4297,-3.3492,-3.3306,-3.312,-3.2711,-3.2669,-3.2669,-3.2669,-3.2669,-3.2669,-3.2669,-3.2669,-3.2669,-3.2669,-3.2669,-3.2669,-3.2669,-3.2669,-3.2669,-3.2669,-3.2669,-3.2669,-3.2669,-3.2669,-3.2913,-3.3302,-3.4318,-3.5653,-3.7144,-3.8524,-3.9691,-4.0548,-3.9609,-3.9989,-4.1047,-4.011,-4.0489,-4.1576,-4.1351,-4.1168,-4.0927,0.0,0.0,0.0,0.0,0.0,0.0,0.0,0.0,-5.1229,-5.1229,-5.1229,-5.1152,-5.1011,-5.0172,-4.917,-4.8066,-4.7864,-4.7763,-4.761,-4.6712,-4.6164,-4.6164,-4.5181,-4.4531,-4.4258,-4.4258,-4.4094,-4.3844,-4.3844,-4.3653,-4.3351,-4.3351,-4.324,-4.2986,-4.2986,-4.2986,-4.2986,-4.2986,-4.2986,-4.2986,-4.2986,-4.2986,-4.2986,-4.2986,-4.2986,-4.2986,-4.2986,-4.2986,-4.2986,-4.2986,-4.2986,-4.2986,-4.2986,-4.2986,-4.2793,-4.1615,-4.1329,-4.1043,-3.9744,-3.951,-3.9334,-3.8007,-3.761,-3.7248,0.0,-3.5849,-3.5849,-3.5849,-3.5726,-3.5478,-3.5143,-3.4939,-3.4733,-3.4277,-3.3862,-3.3492,-3.3389,-3.3037,-3.2789,-3.2747,-3.2669,-3.2669,-3.2669,-3.2669,-3.2669,-3.2669,-3.2669,-3.2669,-3.2669,-3.2669,-3.2669,-3.2669,-3.2669,-3.2669,-3.2669,-3.2669,-3.2669,-3.2669,-3.2669,-3.2747,-3.2809,-3.2924,-3.3664,-3.4923,-3.6551,-3.7678,-3.8335,-3.8526,-3.9339,-4.0539,-4.0796,-4.1671,-4.2685,-4.1652,-4.0577,-3.9599,0.0,0.0,0.0,0.0,0.0,0.0,0.0,0.0,0.0,-5.1229,-5.1229,-5.1229,-5.1229,-5.0822,-5.0124,-4.8993,-4.8944,-4.8696,-4.8016,-4.7587,-4.7331,-4.7331,-4.6269,-4.5662,-4.5502,-4.4884,-4.4422,-4.4094,-4.4094,-4.3984,-4.3708,-4.3708,-4.3543,-4.324,-4.324,-4.3129,-4.2986,-4.2986,-4.2986,-4.2986,-4.2986,-4.2986,-4.2986,-4.2986,-4.2986,-4.2986,-4.2986,-4.2986,0.0,0.0,-4.2986,-4.2986,-4.2986,-4.2986,-4.2855,-4.2004,-4.1208,0.0,-3.8838,-3.7359,-3.6264,-3.65,-3.5967,-3.5332,-3.4752,-3.4631,-3.4631,-3.4631,-3.4631,-3.4569,-3.4383,-3.4422,-3.4256,-3.3741,-3.3513,-3.3285,-3.3037,-3.2851,-3.2669,-3.2669,-3.2669,-3.2669,-3.2669,-3.2669,-3.2669,-3.2669,-3.2669,-3.2669,-3.2669,-3.2669,-3.2669,-3.2669,-3.2669,-3.2669,-3.2669,-3.2669,-3.2669,-3.2669,-3.2669,-3.2669,-3.2669,-3.2669,-3.3388,-3.4602,-3.5921,-3.6838,-3.7344,-3.6759,-3.786,-3.9898,-3.9665,-4.0335,-4.1433,-4.123,-4.0845,-4.0314,0.0,0.0,0.0,0.0,0.0,0.0,0.0,0.0,0.0,0.0,-5.1229,-5.1229,-5.1229,-5.1229,-5.087,-5.0124,-5.0028,-4.9708,-4.8944,-4.8596,-4.8446,-4.8446,-4.7434,-4.6816,-4.6816,-4.6058,-4.5555,-4.5342,-4.502,-4.4722,-4.445,-4.4148,-4.3819,-4.3517,-4.3517,-4.3432,-4.3265,-4.3154,-4.3129,-4.3073,-4.3042,-4.2986,-4.2986,-4.2986,-4.2986,-4.2986,-4.2986,-4.2986,0.0,0.0,-4.2886,-4.2816,-4.2816,-4.266,-4.2379,-4.1624,-4.0592,-3.932,-3.7759,-3.5947,-3.4703,-3.5349,-3.4762,-3.4132,-3.4132,-3.4132,-3.4132,-3.4132,-3.4132,-3.409,-3.3966,-3.3945,-3.372,-3.3265,-3.3203,-3.3078,-3.2768,-3.2669,-3.2669,-3.2669,-3.2669,-3.2669,-3.2669,-3.2669,-3.2669,-3.2669,-3.2669,-3.2669,-3.2669,-3.2669,-3.2669,-3.2669,-3.2669,-3.2669,-3.2669,-3.2669,-3.2669,-3.2669,-3.2669,-3.2669,-3.2669,-3.2669,-3.3161,-3.4043,-3.4891,-3.5479,-3.5759,-3.4954,-3.6104,-3.838,-3.7954,-3.8631,-3.9846,-3.9857,-3.9919,-3.9919,0.0,0.0,0.0,0.0,0.0,0.0,0.0,0.0,0.0,0.0,0.0,0.0,0.0,-5.1229,-5.1182,-5.1152,-5.1152,-5.1135,-5.1135,-5.0124,-4.9562,-4.9562,-4.8546,-4.7965,-4.7965,-4.7915,-4.7864,-4.7864,-4.6816,-4.6164,-4.582,-4.475,-4.4148,-4.3899,-4.3899,-4.3899,-4.3844,-4.3517,-4.3381,-4.3406,-4.3073,-4.2986,-4.2986,-4.2986,-4.2986,-4.2986,-4.2986,0.0,0.0,0.0,-4.2665,-4.2238,-4.2238,-4.1806,0.0,-3.9867,-3.8624,0.0,-3.62,-3.5794,-3.5503,-3.4407,-3.4132,-3.4132,-3.4132,-3.4132,-3.4132,-3.4132,-3.4132,-3.3986,-3.3492,-3.3389,-3.3265,-3.283,-3.269,-3.2747,-3.2669,-3.2669,-3.2669,-3.2669,-3.2669,-3.2669,-3.2669,-3.2669,-3.2669,-3.2669,-3.2669,-3.2669,-3.2669,-3.2669,-3.2669,-3.2669,-3.2669,-3.2669,-3.2669,-3.2669,-3.2669,-3.2669,-3.2669,-3.2669,-3.2669,-3.2669,-3.2727,-3.2784,-3.2784,-3.2841,-3.2825,-3.3261,-3.4238,-3.5483,-3.5931,-3.7068,-3.8401,-3.7222,-3.7035,-3.7407,0.0,0.0,0.0,0.0,0.0,0.0,0.0,0.0,0.0,0.0,0.0,0.0,0.0,0.0,0.0,0.0,-5.1229,-5.1229,-5.1229,-5.087,-5.068,-5.068,-4.9611,-4.9042,-4.9042,-4.8396,-4.8016,-4.8016,-4.761,-4.7406,-4.7304,-4.6892,-4.6189,-4.5208,-4.5208,-4.4696,-4.3899,-4.3764,-4.3394,-4.2874,-4.2764,-4.2398,-4.1882,-4.1882,-4.1882,-4.1882,0.0,0.0,0.0,0.0,0.0,0.0,-4.1605,0.0,0.0,-3.9485,0.0,-3.7535,-3.6382,-3.549,-3.4858,-3.4461,-3.3738,-3.3182,-3.3182,-3.3182,-3.3182,-3.3182,-3.3182,-3.3141,-3.2975,-3.2954,-3.2892,-3.2747,-3.2669,-3.2669,-3.2669,-3.2669,-3.2669,-3.2669,-3.2669,-3.2669,-3.2669,-3.2669,-3.2669,-3.2669,-3.2669,-3.2669,-3.2669,-3.2669,-3.2669,-3.2669,-3.2669,-3.2669,-3.2669,-3.2669,-3.2669,-3.2669,-3.2669,-3.2669,-3.2669,-3.2669,-3.2669,-3.2669,-3.2669,-3.2669,-3.269,-3.2892,-3.3656,-3.4831,-3.5312,-3.6002,-3.6697,-3.6618,-3.6376,-3.6074,0.0,0.0,0.0,0.0,0.0,0.0,0.0,0.0,0.0,0.0,0.0,0.0,0.0,0.0,0.0,0.0,0.0,-5.22,-5.22,-5.1865,-5.1681,-5.1681,-5.0745,-5.0055,-4.982,-4.9165,-4.8681,-4.845,-4.806,-4.7864,-4.7864,-4.7468,-4.6818,-4.5953,-4.5953,-4.5464,-4.46,-4.4148,-4.3619,-4.3069,-4.2613,-4.2033,-4.1436,-4.1436,-4.1383,0.0,0.0,0.0,0.0,0.0,0.0,0.0,0.0,0.0,0.0,-3.9431,-3.8876,-3.8214,-3.6619,-3.5663,-3.4914,-3.4099,-3.3275,-3.2669,-3.2669,-3.2669,-3.2669,-3.2669,-3.2669,-3.2669,-3.2669,-3.2669,-3.2669,-3.2669,-3.2669,-3.2669,-3.2669,-3.2669,-3.2669,-3.2669,-3.2669,-3.2669,-3.2669,-3.2669,-3.2669,-3.2669,-3.2669,-3.2669,-3.2669,-3.2669,-3.2669,-3.2669,-3.2669,-3.2669,-3.2669,-3.2669,-3.2669,-3.2669,-3.2669,-3.2669,-3.2669,-3.2669,-3.2669,-3.2669,-3.2669,-3.2669,-3.2669,-3.2669,-3.3266,-3.4154,-3.4511,-3.4969,-3.551,-3.581,-3.6036,-3.6013,0.0,0.0,0.0,0.0,0.0,0.0,0.0,0.0,0.0,0.0,0.0,0.0,0.0,0.0,0.0,0.0,0.0,0.0,-5.3976,-5.3152,-5.2695,-5.2695,-5.1819,-5.0993,-5.0288,-5.0288,-4.9958,-4.9299,-4.8207,-4.7666,-4.7666,-4.667,-4.6139,-4.609,-4.609,-4.6041,-4.5944,-4.4706,-4.4151,-4.3972,-4.2684,-4.1947,-4.1656,-4.1603,0.0,0.0,0.0,0.0,0.0,0.0,-4.0874,-4.0475,-4.0475,-4.0124,-3.9697,-3.9697,-3.9697,-3.9206,-3.6888,-3.624,-3.564,-3.3388,-3.2727,-3.2669,-3.2669,-3.2669,-3.2669,-3.2669,-3.2669,-3.2669,-3.2669,-3.2669,-3.2669,-3.2669,-3.2669,-3.2669,-3.2669,-3.2669,-3.2669,-3.2669,-3.2669,-3.2669,-3.2669,-3.2669,-3.2669,-3.2669,-3.2669,-3.2669,-3.2669,-3.2669,-3.2669,-3.2669,-3.2669,-3.2669,-3.2669,-3.2669,-3.2669,-3.2669,-3.2669,-3.2669,-3.2669,-3.2669,-3.2669,-3.2669,-3.2669,-3.269,-3.2768,-3.2768,-3.3016,-3.341,-3.341,-3.3969,-3.4816,-3.4816,-3.5855,-3.7127,0.0,0.0,0.0,0.0,0.0,0.0,0.0,0.0,0.0,0.0,0.0,0.0,0.0,0.0,0.0,0.0,0.0,0.0,-5.3976,-5.3762,-5.3632,-5.3632,-5.3415,-5.2622,-5.1267,-5.1236,-5.0575,-4.9299,-4.9028,-4.8862,-4.8862,-4.8588,-4.7975,-4.7195,-4.7195,-4.6766,-4.5993,-4.565,-4.4732,-4.3456,0.0,-4.2133,-4.0772,0.0,0.0,0.0,0.0,0.0,0.0,-4.0551,-4.035,-3.9898,-3.9898,-3.9798,-3.9697,-3.9697,-3.9697,-3.9362,-3.7873,-3.6858,-3.5859,-3.4413,-3.3388,-3.2669,-3.2669,-3.2669,-3.2669,-3.2669,-3.2669,-3.2669,-3.2669,-3.2669,-3.2669,-3.2669,-3.2669,-3.2669,-3.2669,-3.2669,-3.2669,-3.2669,-3.2669,-3.2669,-3.2669,-3.2669,-3.2669,-3.2669,-3.2669,-3.2669,-3.2669,-3.2669,-3.2669,-3.2669,-3.2669,-3.2669,-3.2669,-3.2669,-3.2669,-3.2669,-3.2669,-3.2669,-3.2669,-3.2669,-3.2669,-3.2669,-3.2669,-3.2913,-3.3223,-3.3223,-3.3472,-3.3886,-3.3886,-3.4318,-3.4816,-3.4816,-3.5855,-3.7248,0.0,0.0,0.0,0.0,0.0,0.0,0.0,0.0,0.0,0.0,0.0,0.0,0.0,0.0,0.0,0.0,0.0,0.0,0.0,-5.4819,-5.4569,-5.4569,-5.419,-5.329,-5.1763,-5.1786,-5.0894,-4.897,-4.9027,-4.884,-4.8416,-4.8416,-4.8075,-4.7476,-4.7476,-4.7157,-4.6529,-4.6109,0.0,0.0,0.0,0.0,0.0,0.0,0.0,0.0,0.0,0.0,-3.9747,-4.0049,-3.9948,-3.9697,-3.9697,-3.9697,-3.9697,-3.9697,-3.9697,-3.9413,-3.8214,-3.7073,-3.5913,-3.4803,-3.3614,-3.2669,-3.2669,-3.2669,-3.2669,-3.2669,-3.2669,-3.2669,-3.2669,-3.2669,-3.2669,-3.2669,-3.2669,-3.2669,-3.2669,-3.2669,-3.2669,-3.2669,-3.2669,-3.2669,-3.2669,-3.2669,-3.2669,-3.2669,-3.2669,-3.2669,-3.2669,-3.2669,-3.2669,-3.2669,-3.2669,-3.2669,-3.2669,-3.2669,-3.2669,-3.2669,-3.2669,-3.2669,-3.2669,-3.2669,-3.2669,-3.269,-3.2934,-3.3161,-3.3389,-3.3596,-3.3948,-3.4422,-3.4422,-3.4712,-3.5106,-3.5694,-3.685,-3.8209,0.0,0.0,0.0,0.0,0.0,0.0,0.0,0.0,0.0,0.0,0.0,0.0,0.0,0.0,0.0,0.0,0.0,0.0,0.0,0.0,0.0,-5.5474,-5.4778,-5.3712,-5.2286,-5.229,-5.1146,-4.8738,-4.878,-4.8252,0.0,0.0,0.0,0.0,0.0,0.0,0.0,0.0,0.0,0.0,0.0,0.0,0.0,0.0,0.0,0.0,0.0,-3.9929,-3.9697,-3.9697,-3.9697,-3.9697,-3.9697,-3.9697,-3.9697,-3.9697,-3.9697,-3.9413,-3.8214,-3.718,-3.6131,-3.5024,-3.3818,-3.2955,-3.2955,-3.2784,-3.2669,-3.2669,-3.2669,-3.2669,-3.2669,-3.2669,-3.2669,-3.2669,-3.2669,-3.2669,-3.2669,-3.2669,-3.2669,-3.2669,-3.2669,-3.2669,-3.2669,-3.2669,-3.2669,-3.2669,-3.2669,-3.2669,-3.2669,-3.2669,-3.2669,-3.2669,-3.2669,-3.2669,-3.2669,-3.2669,-3.2669,-3.2669,-3.2669,-3.2669,-3.2669,-3.2669,-3.2711,-3.2851,-3.3223,-3.3451,-3.3596,-3.4049,-3.4484,-3.492,-3.492,-3.5209,-3.5767,-3.6885,-3.8209,-3.9627,0.0,0.0,0.0,0.0,0.0,0.0,0.0,0.0,0.0,0.0,-5.668,-5.668,0.0,0.0,0.0,0.0,0.0,0.0,0.0,0.0,0.0,0.0,-5.6297,-5.5548,-5.3994,-5.3413,-5.1885,-4.9458,-4.8903,-4.8157,0.0,0.0,0.0,0.0,0.0,0.0,0.0,0.0,0.0,0.0,0.0,0.0,0.0,0.0,0.0,0.0,-4.0567,-3.9929,-3.9697,-3.9697,-3.9697,-3.9697,-3.9697,-3.9697,-3.9697,-3.9697,-3.9697,-3.9413,-3.8214,-3.7791,-3.734,-3.6185,-3.5057,-3.4211,-3.4211,-3.3445,-3.2669,-3.2669,-3.2669,-3.2669,-3.2669,-3.2669,-3.2669,-3.2669,-3.2669,-3.2669,-3.2669,-3.2669,-3.2669,-3.2669,-3.2669,-3.2669,-3.2669,-3.2669,-3.2669,-3.2669,-3.2669,-3.2669,-3.2669,-3.2669,-3.2669,-3.2669,-3.2669,-3.2669,-3.2669,-3.2669,-3.2669,-3.2669,-3.2669,-3.2669,-3.2669,-3.2669,-3.2934,-3.3265,-3.3348,-3.3803,-3.4588,-3.4671,-3.49,-3.5314,-3.5314,-3.599,-3.7006,-3.7248,-3.878,-4.0813,0.0,0.0,0.0,0.0,0.0,0.0,0.0,-5.6757,-5.668,-5.668,-5.668,-5.668,-5.668,-5.668,-5.668,0.0,0.0,0.0,0.0,0.0,0.0,0.0,0.0,0.0,-5.505,-5.4405,-5.3045,-5.0968,0.0,-4.9358,-4.7976,-4.7976,-4.7752,-4.7309,-4.7309,-4.7309,-4.7309,0.0,0.0,0.0,-4.6003,0.0,0.0,0.0,0.0,0.0,0.0,-3.9929,-3.9697,-3.9697,-3.9697,-3.9697,-3.9697,-3.9697,-3.9697,-3.9697,-3.9697,-3.9569,-3.8973,-3.8372,-3.7791,-3.7233,-3.6263,-3.5388,-3.5388,-3.4469,-3.3649,-3.3649,-3.3161,-3.2669,-3.2669,-3.2669,-3.2669,-3.2669,-3.2669,-3.2669,-3.2669,-3.2669,-3.2669,-3.2669,-3.2669,-3.2669,-3.2669,-3.2669,-3.2669,-3.2669,-3.2669,-3.2669,-3.2669,-3.2669,-3.2669,-3.2669,-3.2669,-3.2669,-3.2669,-3.2669,-3.2669,-3.2669,-3.2669,-3.2851,-3.3058,-3.3058,-3.3306,-3.38,-3.3989,-3.4401,-3.4897,-3.5773,-3.6228,-3.642,-3.7149,-3.773,-3.8387,-3.9017,-4.0036,-4.11,0.0,0.0,0.0,0.0,0.0,0.0,0.0,-5.6872,-5.6757,-5.6719,-5.668,-5.668,-5.668,-5.668,-5.668,0.0,0.0,0.0,0.0,0.0,0.0,0.0,0.0,0.0,0.0,0.0,0.0,-5.2436,-5.1875,0.0,0.0,0.0,0.0,0.0,-4.7366,-4.7309,-4.7309,-4.7309,-4.7309,0.0,0.0,-4.6121,0.0,0.0,0.0,0.0,0.0,-4.0211,-3.98,-3.9749,-3.9697,-3.9697,-3.9697,-3.9697,-3.9697,-3.9697,-3.9697,-3.9697,-3.9697,-3.8973,-3.8267,-3.8267,-3.7394,-3.6565,-3.6565,-3.5663,-3.4858,-3.4858,-3.3931,-3.3105,-3.3105,-3.2898,-3.2669,-3.2669,-3.2669,-3.2669,-3.2669,-3.2669,-3.2669,-3.2669,-3.2669,-3.2669,-3.2669,-3.2669,-3.2669,-3.2669,-3.2669,-3.2669,-3.2669,-3.2669,-3.2669,-3.2669,-3.2669,-3.2669,-3.2669,-3.2669,-3.2669,-3.2669,-3.283,-3.3037,-3.3389,-3.3472,-3.3841,-3.4297,-3.4671,-3.4979,-3.5447,-3.6734,-3.7489,-3.779,-3.8803,-3.9334,-3.9744,-4.0755,-4.1272,-4.1444,0.0,0.0,0.0,0.0,0.0,0.0,0.0,-5.6987,-5.6911,-5.6719,-5.668,-5.668,-5.668,-5.668,-5.668,0.0,0.0,0.0,0.0,0.0,0.0,0.0,0.0,0.0,0.0,0.0,0.0,-5.3221,-5.2475,0.0,0.0,0.0,0.0,0.0,0.0,-4.7309,-4.7309,-4.7309,0.0,0.0,0.0,0.0,0.0,0.0,0.0,0.0,0.0,-4.1069,-4.0032,-3.98,-3.9697,-3.9697,-3.9697,-3.9697,-3.9697,-3.9697,-3.9697,-3.9697,-3.9697,-3.9645,-3.9517,-3.9517,-3.8659,-3.7713,-3.7713,-3.6858,-3.6022,-3.6022,-3.5113,-3.4323,-3.4323,-3.3445,-3.2669,-3.2669,-3.2669,-3.2669,-3.2669,-3.2669,-3.2669,-3.2669,-3.2669,-3.2669,-3.2669,-3.2669,-3.2669,-3.2669,-3.2669,-3.2669,-3.2669,-3.2669,-3.2669,-3.2669,-3.2669,-3.2669,-3.2669,-3.2669,-3.2669,-3.2747,-3.3141,-3.3348,-3.3389,-3.3803,-3.4318,-3.4754,-3.4795,-3.5692,-3.7062,-3.7226,-3.797,-3.9039,-3.9157,-3.9919,-4.0928,-4.1043,-4.1866,-4.2681,0.0,0.0,0.0,0.0,0.0,0.0,-5.7214,-5.7063,-5.6911,-5.6719,-5.668,-5.668,-5.668,-5.668,-5.668,-5.668,0.0,0.0,0.0,0.0,0.0,0.0,0.0,0.0,0.0,0.0,-5.5303,-5.47,-5.3518,0.0,0.0,0.0,0.0,0.0,0.0,-4.7309,-4.7309,-4.7309,0.0,0.0,0.0,0.0,0.0,0.0,0.0,0.0,0.0,0.0,-4.0083,-3.98,-3.9697,-3.9697,-3.9697,-3.9697,-3.9697,-3.9697,-3.9697,-3.9697,-3.9697,-3.9697,-3.9697,-3.9697,-3.9362,-3.8973,-3.8973,-3.8056,-3.7233,-3.7233,-3.6317,-3.5498,-3.5498,-3.458,-3.3762,-3.3762,-3.3161,-3.2669,-3.2669,-3.2669,-3.2669,-3.2669,-3.2669,-3.2669,-3.2669,-3.2669,-3.2669,-3.2669,-3.2669,-3.2669,-3.2669,-3.2669,-3.2669,-3.2669,-3.2669,-3.2669,-3.2669,-3.2669,-3.2851,-3.312,-3.3285,-3.3679,-3.4277,-3.4463,-3.4795,-3.5148,-3.5148,-3.5966,-3.7369,-3.8149,-3.9216,-4.0384,-4.1215,-4.181,-4.2206,-4.2206,-4.2569,-4.2793,0.0,0.0,0.0,0.0,0.0,-5.7588,-5.7327,-5.7176,-5.6987,-5.6719,-5.668,-5.6603,-5.6336,-5.6297,-5.6179,-5.5908,-5.6139,0.0,0.0,0.0,0.0,0.0,0.0,0.0,0.0,0.0,-5.5852,-5.5582,-5.4324,-5.3305,0.0,0.0,-4.9757,-4.8913,0.0,0.0,0.0,0.0,0.0,0.0,0.0,0.0,0.0,0.0,0.0,0.0,0.0,0.0,0.0,0.0,0.0,-3.98,-3.9749,-3.9697,-3.9697,-3.9697,-3.9697,-3.9697,-3.9697,-3.9697,-3.9697,-3.9697,-3.9697,-3.9697,-3.9697,-3.9025,-3.8449,-3.8449,-3.7501,-3.6673,-3.6673,-3.5498,-3.4469,-3.4469,-3.3501,-3.2669,-3.2669,-3.2669,-3.2669,-3.2669,-3.2669,-3.2669,-3.2669,-3.2669,-3.2669,-3.2669,-3.2669,-3.2669,-3.2669,-3.2669,-3.2669,-3.2669,-3.2669,-3.2669,-3.2669,-3.2851,-3.3078,-3.3389,-3.3658,-3.4194,-3.4816,-3.49,-3.5128,-3.5418,-3.5767,-3.6664,-3.797,-3.9216,-4.05,-4.1753,-4.2625,-4.2986,-4.2986,-4.2986,-4.2986,-4.2793,0.0,0.0,0.0,0.0,0.0,0.0,-5.7364,-5.7289,-5.7139,-5.6757,-5.668,-5.6336,-5.5434,-5.5312,-5.4985,-5.4105,-5.4819,0.0,0.0,0.0,0.0,0.0,0.0,0.0,0.0,0.0,-5.6316,-5.5582,-5.4854,-5.4092,-5.3364,-5.1834,-5.0615,-4.9765,0.0,0.0,0.0,0.0,0.0,0.0,0.0,0.0,0.0,0.0,0.0,0.0,0.0,0.0,0.0,0.0,0.0,0.0,0.0,-3.9697,0.0,0.0,-3.9697,-3.9697,-3.9697,-3.9697,-3.9697,-3.9697,-3.9697,-3.9697,-3.9697,-3.9697,-3.9697,-3.9697,-3.8712,-3.7897,-3.7897,-3.6045,-3.4469,-3.4469,-3.3501,-3.2669,-3.2669,-3.2669,-3.2669,-3.2669,-3.2669,-3.2669,-3.2669,-3.2669,-3.2669,-3.2669,-3.2669,-3.2669,-3.2669,-3.2669,-3.2669,-3.2669,-3.2669,-3.2669,-3.2669,-3.3161,-3.3368,-3.3389,-3.436,-3.4816,-3.4837,-3.5211,-3.5418,-3.5479,-3.6703,-3.8029,-3.9275,-4.0558,-4.1866,-4.2986,-4.2961,-4.2986,-4.2986,-4.2986,-4.2986,-4.2793,0.0,0.0,0.0,0.0,0.0,0.0,0.0,-5.6768,-5.6192,-5.5796,-5.5231,-5.4736,-5.4443,-5.4401,-5.4062,-5.3108,-5.3891,0.0,0.0,0.0,0.0,0.0,0.0,0.0,0.0,0.0,-5.5929,-5.6349,-5.5011,-5.429,-5.4088,-5.1287,-4.9918,-4.9726,-4.8324,-4.7538,0.0,0.0,0.0,0.0,0.0,0.0,-4.7309,0.0,0.0,0.0,0.0,0.0,0.0,0.0,0.0,0.0,0.0,0.0,0.0,0.0,0.0,-3.9697,-3.9697,-3.9697,-3.9697,-3.9697,-3.9697,-3.9697,-3.9697,-3.9697,-3.9697,-3.9697,-3.9413,-3.9154,-3.9154,-3.7897,-3.6588,-3.5772,-3.4692,-3.3649,-3.2841,-3.2669,-3.2669,-3.2669,-3.2669,-3.2669,-3.2669,-3.2669,-3.2669,-3.2669,-3.2669,-3.2669,-3.2669,-3.2669,-3.2669,-3.2669,-3.2669,-3.2871,-3.3161,-3.421,-3.4556,-3.438,-3.5491,-3.5728,-3.5211,-3.5355,-3.589,-3.6724,-3.7127,-3.8543,-4.05,-4.0928,-4.1866,-4.2986,-4.2986,-4.2986,-4.2986,-4.2986,-4.2986,-4.2905,0.0,0.0,0.0,0.0,0.0,0.0,0.0,-5.6426,-5.5683,-5.532,-5.4569,-5.3848,-5.3502,-5.3459,-5.3064,-5.2185,-5.2606,0.0,0.0,0.0,0.0,0.0,0.0,0.0,-5.4819,-5.4819,-5.5108,-5.5668,-5.443,-5.3721,-5.348,-5.1083,-4.977,-4.9318,-4.824,-4.7624,0.0,0.0,0.0,0.0,0.0,0.0,-4.7309,0.0,0.0,0.0,0.0,0.0,0.0,0.0,0.0,0.0,0.0,0.0,0.0,0.0,-3.9697,-3.9697,-3.9697,-3.9697,-3.9697,-3.9697,-3.9697,-3.9697,-3.9697,-3.9697,-3.9697,-3.9697,-3.9697,-3.9697,-3.9697,-3.8712,-3.766,-3.6965,-3.5498,-3.4357,-3.4078,-3.3275,-3.2669,-3.2669,-3.2669,-3.2669,-3.2669,-3.2669,-3.2898,-3.3332,-3.2955,-3.2898,-3.3332,-3.3388,-3.3473,-3.3699,-3.3205,-3.333,-3.4122,-3.5194,-3.5925,-3.6216,-3.6687,-3.6845,-3.6846,-3.6359,-3.6846,-3.8029,-3.8543,-3.9604,0.0,-4.1615,-4.2263,-4.2986,-4.2986,-4.2986,-4.2986,-4.2986,-4.2986,-4.2986,0.0,0.0,0.0,0.0,0.0,0.0,0.0,-5.627,-5.5442,-5.5198,-5.4401,-5.3459,-5.2606,-5.2516,-5.2185,-5.1276,0.0,0.0,0.0,0.0,0.0,0.0,0.0,0.0,-5.3891,-5.3891,-5.3934,-5.3976,-5.3228,-5.2534,-5.1891,-5.1064,-4.9924,-4.8615,-4.8532,-4.8061,0.0,0.0,0.0,0.0,0.0,0.0,0.0,0.0,0.0,0.0,0.0,0.0,0.0,0.0,0.0,0.0,0.0,0.0,0.0,0.0,0.0,0.0,0.0,-3.9697,-3.9697,-3.9697,-3.9697,-3.9697,-3.9697,-3.9697,0.0,-3.9697,-3.9697,-3.9697,-3.9697,-3.8764,-3.8003,-3.7897,-3.61,-3.5057,-3.6077,-3.4302,-3.2898,-3.2841,-3.2898,-3.2898,-3.2841,-3.2898,-3.3388,-3.4525,-3.3593,-3.3445,-3.4646,-3.4702,-3.4921,-3.5461,-3.4359,-3.4322,-3.5527,-3.6406,-3.7434,-3.8527,-3.7866,-3.8149,-3.9157,-3.797,-3.8149,-3.9393,-4.0582,-4.1157,-4.1329,-4.2513,-4.2986,-4.2986,-4.2986,-4.2986,-4.2986,-4.2986,-4.2986,-4.2986,0.0,0.0,0.0,0.0,0.0,0.0,0.0,0.0,0.0,0.0,-5.2887,-5.1773,-5.1572,-5.1526,-5.1433,0.0,0.0,0.0,0.0,0.0,0.0,0.0,0.0,0.0,-5.2887,-5.2962,-5.3284,-5.3976,-5.3084,-5.2442,-5.185,-5.0334,-4.9273,-4.8573,-4.7892,-4.7495,0.0,0.0,0.0,0.0,0.0,0.0,0.0,0.0,0.0,0.0,-4.4869,-4.4097,0.0,0.0,0.0,0.0,0.0,0.0,0.0,0.0,-3.9697,-3.9697,-3.9697,0.0,-3.9697,-3.9697,-3.9697,-3.9697,0.0,-3.9697,-3.9697,-3.9697,-3.9697,-3.9697,-3.9697,-3.9465,-3.8973,-3.8056,-3.7447,-3.6911,-3.6294,-3.5695,-3.5057,-3.4211,-3.4858,-3.5057,-3.4155,-3.4836,-3.5498,-3.5749,-3.5553,-3.5656,-3.6372,-3.6372,-3.6678,-3.7258,-3.7279,-3.7482,-3.777,-3.8917,-3.9358,-3.9033,-3.9791,-3.9861,-3.9157,-3.8862,-3.9451,-4.0697,-4.0985,-4.1615,-4.2569,-4.2849,-4.2986,-4.2986,-4.2986,-4.2986,-4.2986,-4.2986,-4.2986,-4.2986,0.0,0.0,0.0,0.0,0.0,0.0,0.0,0.0,0.0,0.0,0.0,-5.1229,-5.1229,-5.1229,0.0,0.0,0.0,0.0,0.0,0.0,0.0,0.0,0.0,-5.1433,-5.1957,-5.1957,-5.22,-5.274,-5.22,-5.168,-5.1079,-4.9867,-4.9026,-4.8432,-4.7645,-4.7309,0.0,0.0,0.0,0.0,-4.7309,0.0,0.0,0.0,0.0,0.0,-4.5553,-4.4684,0.0,-4.2039,-4.0971,-4.0466,0.0,0.0,0.0,0.0,-3.9697,-3.9697,-3.9697,-3.9697,-3.9697,-3.9697,-3.9697,-3.9697,-3.9697,-3.9697,-3.9697,-3.9697,-3.9697,-3.9697,-3.9697,-3.9697,-3.9465,-3.8816,-3.8267,-3.7501,-3.6348,-3.6619,-3.6588,-3.5443,-3.5804,-3.5968,-3.5333,-3.6086,-3.6804,-3.7348,-3.7145,-3.7345,-3.8178,-3.8178,-3.8492,-3.901,-3.9801,-3.9944,-3.9376,-4.0263,-4.0812,-4.0928,-4.1043,-4.1043,-4.0928,-4.0326,-4.0755,-4.198,-4.198,-4.2375,-4.2986,-4.2986,-4.2986,-4.2986,-4.2986,-4.2986,-4.2986,-4.2986,-4.2986,-4.2986,0.0,0.0,0.0,0.0,0.0,0.0,0.0,0.0,0.0,0.0,0.0,0.0,0.0,0.0,0.0,0.0,0.0,0.0,0.0,0.0,0.0,0.0,-5.1229,-5.1229,-5.1229,-5.1229,-5.1229,-5.1229,-5.1229,-5.0853,-5.0196,-4.9583,-4.891,-4.8117,-4.7549,-4.7309,0.0,0.0,-4.7309,-4.7309,-4.7309,0.0,0.0,0.0,0.0,0.0,0.0,0.0,0.0,-4.284,-4.1544,-4.044,-4.0185,0.0,0.0,0.0,0.0,0.0,-3.9697,-3.9697,-3.9697,-3.9697,-3.9697,-3.9697,-3.9697,-3.9697,-3.9697,-3.9697,-3.9697,-3.9697,-3.9697,-3.9697,-3.9697,-3.9697,-3.8816,-3.7844,-3.6834,-3.7554,-3.7761,-3.6735,-3.6735,-3.6836,-3.6742,-3.7301,-3.8052,-3.911,-3.8722,-3.8895,-3.9964,-4.0019,-4.0207,-4.0796,-4.1817,-4.1817,-4.0821,-4.1225,-4.1923,-4.2986,-4.1923,-4.198,-4.2986,-4.1866,-4.198,-4.2986,-4.2986,-4.2986,-4.2986,-4.2986,-4.2986,-4.2986,-4.2986,-4.2986,-4.2986,-4.2986,-4.2986,-4.2986,0.0,0.0,0.0,0.0,0.0,0.0,0.0,0.0,0.0,0.0,0.0,0.0,0.0,0.0,0.0,0.0,0.0,0.0,0.0,0.0,0.0,-5.1229,-5.1229,-5.1229,-5.1229,-5.1229,-5.1229,-5.1229,-5.1229,-5.0853,-5.0196,-4.9583,-4.8626,-4.7459,-4.7369,-4.7309,-4.7309,-4.7309,-4.7309,-4.7309,-4.7309,0.0,0.0,0.0,0.0,0.0,0.0,0.0,0.0,-4.284,-4.1544,-4.044,-4.0185,0.0,0.0,0.0,0.0,0.0,-3.9697,-3.9697,-3.9697,-3.9697,-3.9697,-3.9697,-3.9697,-3.9697,-3.9697,-3.9697,-3.9697,-3.9697,-3.9697,-3.9697,-3.9697,-3.9697,-3.9517,-3.9362,-3.9206,-3.931,-3.9146,-3.8497,-3.9267,-3.9623,-3.9115,-4.0025,-4.0695,-4.0935,-4.0848,-4.1097,-4.1763,-4.1788,-4.2038,-4.2588,-4.278,-4.278,-4.2613,-4.2687,-4.2793,-4.2986,-4.2793,-4.2793,-4.2961,-4.2793,-4.2793,-4.2986,-4.2986,-4.2986,-4.2986,-4.2986,-4.2986,-4.2986,-4.2986,-4.2986,-4.2986,-4.2986,-4.2986,-4.2986,0.0,0.0,0.0,0.0,0.0,0.0,0.0,0.0,0.0,0.0,0.0,0.0,0.0,0.0,0.0,0.0,0.0,0.0,0.0,0.0,-5.1229,-5.1229,-5.1229,-5.1229,-5.1229,-5.1229,-5.1229,-5.1229,-5.1229,-5.105,-5.0704,-4.9733,-4.8566,-4.7309,-4.7309,-4.7309,-4.7309,-4.7309,-4.7309,-4.7309,0.0,0.0,0.0,0.0,0.0,0.0,0.0,0.0,0.0,0.0,-4.2598,-4.1345,-4.0593,0.0,0.0,0.0,0.0,0.0,-3.9697,-3.9697,-3.9697,-3.9697,-3.9697,-3.9697,-3.9697,-3.9697,-3.9697,-3.9697,-3.9697,-3.9697,-3.9697,-3.9697,-3.9697,-3.9697,-3.9697,-3.9798,-4.0099,-4.0149,-4.0115,-4.0158,-4.0632,-4.0839,-4.0577,-4.1309,-4.1781,-4.1781,-4.2057,-4.2333,-4.264,-4.2665,-4.2766,-4.2961,-4.2986,-4.2986,-4.2986,-4.2986,-4.2986,-4.2986,-4.2986,-4.2986,-4.2986,-4.2986,-4.2986,-4.2986,-4.2986,-4.2986,-4.2986,-4.2986,-4.2986,-4.2986,-4.2986,-4.2986,-4.2986,-4.2986,-4.2986,-4.2986,0.0,0.0,0.0,0.0,0.0,0.0,0.0,0.0,0.0,0.0,0.0,0.0,0.0,0.0,0.0,0.0,0.0,0.0,0.0,0.0,-5.1229,-5.1229,-5.1229,-5.1229,-5.1229,-5.1229,-5.1229,-5.1229,-5.1229,-5.1139,-5.096,-4.9793,-4.87,-4.7519,-4.7369,-4.7309,-4.7309,-4.7309,-4.7309,-4.7309,0.0,0.0,0.0,0.0,0.0,0.0,0.0,0.0,0.0,0.0,0.0,0.0,0.0,0.0,0.0,-3.9826,-3.9749,-3.9697,-3.9697,-3.9697,-3.9697,-3.9697,-3.9697,-3.9697,-3.9697,-3.9697,-3.9697,-3.9697,-3.9697,-3.9697,-3.9697,-3.9697,-3.9747,-3.9873,-3.9898,-4.0074,-4.0626,-4.0701,-4.0902,-4.1455,-4.153,-4.158,-4.1706,-4.2108,-4.2414,-4.2414,-4.2791,-4.2986,-4.2986,-4.2986,-4.2986,-4.2986,-4.2986,-4.2986,-4.2986,-4.2986,-4.2986,-4.2986,-4.2986,-4.2986,-4.2986,-4.2986,-4.2986,-4.2986,-4.2986,-4.2986,-4.2986,-4.2986,-4.2986,-4.2986,-4.2986,-4.2986,-4.2986,-4.2986,-4.2986,-4.2986,0.0,0.0,0.0,0.0,0.0,0.0,0.0,0.0,0.0,0.0,0.0,0.0,0.0,0.0,0.0,0.0,0.0,0.0,0.0,0.0,-5.1229,-5.1229,-5.1229,-5.1229,-5.1229,-5.1229,-5.1229,-5.1229,-5.1229,-5.0853,-5.0255,-4.9583,-4.894,-4.8177,-4.7578,-4.7309,-4.7309,-4.7309,-4.7309,-4.7309,-4.7309,0.0,0.0,0.0,0.0,0.0,0.0,0.0,0.0,0.0,0.0,0.0,0.0,0.0,-4.0083,-4.0083,-3.9878,-3.9697,-3.9697,-3.9697,-3.9697,-3.9697,-3.9697,-3.9697,-3.9697,-3.9697,-3.9697,-3.9697,-3.9697,-3.9697,-3.9697,-3.9697,-3.9848,-4.0375,-4.045,-4.0651,-4.115,-4.1225,-4.148,-4.2087,-4.2162,-4.2363,-4.2811,-4.2886,-4.2911,-4.2911,-4.2961,-4.2986,-4.2986,-4.2986,-4.2986,-4.2986,-4.2986,-4.2986,-4.2986,-4.2986,-4.2986,-4.2986,-4.2986,-4.2986,-4.2986,-4.2986,-4.2986,-4.2986,-4.2986,-4.2986,-4.2986,-4.2986,-4.2986,-4.2986,-4.2986,-4.2986,-4.2986,-4.2986,-4.2986,-4.2986,0.0,0.0,0.0,0.0,0.0,0.0,0.0,0.0,0.0,0.0,0.0,0.0,0.0,0.0,0.0,0.0,0.0,0.0,0.0,-5.1229,-5.1229,-5.1229,-5.1229,-5.1229,-5.1229,-5.1229,-5.1229,-5.1229,-5.1229,-5.0853,-5.0196,-5.0002,-4.9314,-4.8267,-4.8027,-4.7698,-4.7309,-4.7309,-4.7309,-4.7309,-4.7309,-4.7309,0.0,0.0,0.0,0.0,0.0,0.0,0.0,0.0,-4.3984,-4.3273,-4.1445,-4.0643,-4.0338,-4.0134,-3.9929,-3.9697,-3.9697,-3.9697,-3.9697,-3.9697,-3.9697,-3.9697,-3.9697,-3.9697,-3.9697,-3.9697,-3.9697,-3.9697,-3.9697,-3.9973,-4.0275,-4.0475,-4.0802,-4.1229,-4.1781,-4.1856,-4.2057,-4.261,-4.2715,-4.2816,-4.2961,-4.2986,-4.2986,-4.2986,-4.2986,-4.2986,-4.2986,-4.2986,-4.2986,-4.2986,-4.2986,-4.2986,-4.2986,-4.2986,-4.2986,-4.2986,-4.2986,-4.2986,-4.2986,-4.2986,-4.2986,-4.2986,-4.2986,-4.2986,-4.2986,-4.2986,-4.2986,-4.2986,-4.2986,-4.2986,-4.2986,-4.2986,-4.2986,-4.2986,0.0,0.0,0.0,0.0,0.0,0.0,0.0,0.0,0.0,0.0,0.0,0.0,0.0,0.0,0.0,0.0,0.0,0.0,-5.1229,-5.1229,-5.1229,-5.1229,-5.1229,-5.1229,-5.1229,-5.1229,-5.1229,-5.1229,-5.1229,-5.099,-5.0495,-5.0285,-4.9717,-4.8895,-4.8476,-4.8027,-4.7608,-4.7399,-4.7309,-4.7309,-4.7309,-4.7309,0.0,0.0,0.0,0.0,0.0,0.0,0.0,0.0,-4.4545,-4.3984,-4.2088,-4.1071,-4.0542,-4.0287,-4.0032,-3.98,-3.9749,-3.9697,-3.9697,-3.9697,-3.9697,-3.9697,-3.9697,-3.9697,-3.9697,-3.9697,-3.9697,-3.9697,-3.9697,-4.0149,-4.0576,-4.0752,-4.1229,-4.1781,-4.2389,-4.2464,-4.2615,-4.2936,-4.2986,-4.2986,-4.2986,-4.2986,-4.2986,-4.2986,-4.2986,-4.2986,-4.2986,-4.2986,-4.2986,-4.2986,-4.2986,-4.2986,-4.2986,-4.2986,-4.2986,-4.2986,-4.2986,-4.2986,-4.2986,-4.2986,-4.2986,-4.2986,-4.2986,-4.2986,-4.2986,-4.2986,-4.2986,-4.2986,-4.2986,-4.2986,-4.2986,-4.2986,-4.2986,-4.2986,0.0,0.0,0.0,0.0,0.0,0.0,0.0,0.0,0.0,0.0,0.0,0.0,0.0,0.0,0.0,0.0,0.0,0.0,-5.1229,-5.1229,-5.1229,-5.1229,-5.1229,-5.1229,-5.1229,-5.1229,-5.1229,-5.1229,-5.1229,-5.1229,-5.1199,-5.0495,-5.0196,-5.0136,-4.8895,-4.8297,-4.8237,-4.7578,-4.7309,-4.7309,-4.7309,-4.7309,-4.7309,0.0,0.0,0.0,0.0,0.0,0.0,0.0,-4.5144,-4.4125,-4.3129,-4.194,-4.0846,-4.0593,-4.0287,-4.0032,-3.98,-3.9697,-3.9697,-3.9697,-3.9697,-3.9697,-3.9697,-3.9697,-3.9697,-3.9697,-3.9697,-3.9697,-3.9697,-4.0149,-4.0701,-4.12,-4.1806,-4.2414,-4.2911,-4.2986,-4.2986,-4.2986,-4.2986,-4.2986,-4.2986,-4.2986,-4.2986,-4.2986,-4.2986,-4.2986,-4.2986,-4.2986,-4.2986,-4.2986,-4.2986,-4.2986,-4.2986,-4.2986,-4.2986,-4.2986,-4.2986,-4.2986,-4.2986,-4.2986,-4.2986,-4.2986,-4.2986,-4.2986,-4.2986,-4.2986,-4.2986,-4.2986,-4.2986,-4.2986,-4.2986,-4.2986,-4.2986,-4.2986,0.0,0.0,0.0,0.0,0.0,0.0,0.0,0.0,0.0,0.0,0.0,0.0,0.0,0.0,0.0,0.0,0.0,0.0,-5.1229,-5.1229,-5.1229,-5.1229,-5.1229,-5.1229,-5.1229,-5.1229,-5.1229,-5.1229,-5.1229,-5.1229,-5.1229,-5.102,-5.0644,-5.0166,-4.9777,-4.9134,-4.8267,-4.8087,-4.7728,-4.7309,-4.7309,-4.7309,-4.7309,0.0,0.0,0.0,0.0,0.0,0.0,0.0,0.0,0.0,-4.3341,-4.2404,-4.1792,-4.1021,-4.0593,-4.0338,-4.0032,-3.9981,-3.9929,-3.9749,-3.9697,-3.9697,-3.9697,-3.9697,-3.9697,-3.9697,-3.9697,-3.9697,-3.9697,-4.045,-4.11,-4.125,-4.2133,-4.2841,-4.2961,-4.2986,-4.2986,-4.2986,-4.2986,-4.2986,-4.2986,-4.2986,-4.2986,-4.2986,-4.2986,-4.2986,-4.2986,-4.2986,-4.2986,-4.2986,-4.2986,-4.2986,-4.2986,-4.2986,-4.2986,-4.2986,-4.2986,-4.2986,-4.2986,-4.2986,-4.2986,-4.2986,-4.2986,-4.2986,-4.2986,-4.2986,-4.2986,-4.2986,-4.2986,-4.2986,-4.2986,-4.2986,-4.2986,-4.2986,0.0,0.0,0.0,0.0,0.0,0.0,0.0,0.0,0.0,0.0,0.0,0.0,0.0,0.0,0.0,0.0,0.0,0.0,0.0,-5.1229,-5.1229,-5.1229,-5.1229,-5.1229,-5.1229,-5.1229,-5.1229,-5.1229,-5.1229,-5.1229,-5.1229,-5.1229,-5.0973,-5.0584,-5.0315,-4.9747,-4.9015,-4.8506,-4.8057,-4.7668,-4.7429,-4.7309,-4.7309,0.0,0.0,0.0,0.0,0.0,0.0,0.0,0.0,0.0,-4.4377,-4.3341,-4.2404,-4.1693,-4.1021,-4.044,-4.0185,-4.0032,-3.9878,-3.9749,-3.9697,-3.9697,-3.9697,-3.9697,-3.9697,-3.9697,-3.9697,-3.9697,-3.9697,-4.0601,-4.1275,-4.1275,-4.2258,-4.2986,-4.2986,-4.2986,-4.2986,-4.2986,-4.2986,-4.2986,-4.2986,-4.2986,-4.2986,-4.2986,-4.2986,-4.2986,-4.2986,-4.2986,-4.2986,-4.2986,-4.2986,-4.2986,-4.2986,-4.2986,-4.2986,-4.2986,-4.2986,-4.2986,-4.2986,-4.2986,-4.2986,-4.2986,-4.2986,-4.2986,-4.2986,-4.2986,-4.2986,-4.2986,-4.2986,-4.2986,-4.2986,-4.2986,-4.2986,-4.2986,0.0,0.0,0.0,0.0,0.0,0.0,0.0,0.0,0.0,0.0,0.0,0.0,0.0,0.0,0.0,0.0,0.0,0.0,0.0,0.0,-5.1229,-5.1229,-5.1229,-5.1229,-5.1229,-5.1229,-5.1229,-5.1229,-5.1229,-5.1229,-5.1229,-5.1229,-5.1229,-5.1199,-5.0554,-5.0255,-5.0106,-4.8895,-4.8327,-4.8237,-4.7578,-4.7309,-4.7309,-4.7309,0.0,0.0,0.0,0.0,0.0,0.0,0.0,0.0,-4.5824,-4.447,-4.2889,-4.255,-4.1544,-4.0517,-4.0236,-3.9929,-3.9749,-3.9697,-3.9697,-3.9697,-3.9697,-3.9697,-3.9697,-3.9697,-3.9697,-3.9697,-3.9697,-4.0601,-4.1275,-4.1275,-4.2258,-4.2986,-4.2986,-4.2986,-4.2986,-4.2986,-4.2986,-4.2986,-4.2986,-4.2986,-4.2986,-4.2986,-4.2986,-4.2986,-4.2986,-4.2986,-4.2986,-4.2986,-4.2986,-4.2986,-4.2986,-4.2986,-4.2986,-4.2986,-4.2986,-4.2986,-4.2986,-4.2986,-4.2986,-4.2986,-4.2986,-4.2986,-4.2986,-4.2986,-4.2986,-4.2986,-4.2986,-4.2986,-4.2986,-4.2986,-4.2986,-4.2986,0.0,0.0,0.0,0.0,0.0,0.0,0.0,0.0,0.0,0.0,0.0,0.0,0.0,0.0,0.0,0.0,0.0,0.0,0.0,0.0,-5.1229,-5.1229,-5.1229,-5.1229,-5.1229,-5.1229,-5.1229,-5.1229,-5.1229,-5.1229,-5.1229,-5.1229,-5.1229,-5.1199,-5.1079,-5.0674,-5.0136,-4.9404,-4.879,-4.8237,-4.7578,-4.7309,-4.7309,-4.7309,-4.7309,0.0,0.0,0.0,0.0,0.0,0.0,0.0,-4.6077,-4.4932,-4.3796,-4.2985,-4.194,-4.0997,-4.0542,-4.0338,-4.0262,-3.98,-3.9697,-3.9697,-3.9697,-3.9697,-3.9697,-3.9697,-3.9697,-3.9697,-3.9697,-4.0601,-4.1275,-4.1275,-4.2258,-4.2986,-4.2986,-4.2986,-4.2986,-4.2986,-4.2986,-4.2986,-4.2986,-4.2986,-4.2986,-4.2986,-4.2986,-4.2986,-4.2986,-4.2986,-4.2986,-4.2986,-4.2986,-4.2986,-4.2986,-4.2986,-4.2986,-4.2986,-4.2986,-4.2986,-4.2986,-4.2986,-4.2986,-4.2986,-4.2986,-4.2986,-4.2986,-4.2986,-4.2986,-4.2986,-4.2986,-4.2986,-4.2986,-4.2986,-4.2986,-4.2986,0.0,0.0,0.0,0.0,0.0,0.0,0.0,0.0,0.0,0.0,0.0,0.0,0.0,0.0,0.0,0.0,0.0,0.0,0.0,0.0,-5.1229,-5.1229,-5.1229,-5.1229,-5.1229,-5.1229,-5.1229,-5.1229,-5.1229,-5.1229,-5.1229,-5.1229,-5.1229,-5.1229,-5.1229,-5.102,-5.0614,-5.0002,-4.9344,-4.8686,-4.8027,-4.7578,-4.7309,-4.7309,-4.7309,-4.7309,-4.7309,0.0,0.0,0.0,0.0,0.0,0.0,0.0,-4.4915,-4.4377,-4.3081,-4.1769,-4.1521,-4.0971,-4.0466,-4.016,-3.9903,-3.9749,-3.9826,-3.98,-3.9697,-3.9697,-3.9697,-3.9697,-3.9697,-4.0601,-4.1275,-4.1275,-4.2258,-4.2986,-4.2986,-4.2986,-4.2986,-4.2986,-4.2986,-4.2986,-4.2986,-4.2986,-4.2986,-4.2986,-4.2986,-4.2986,-4.2986,-4.2986,-4.2986,-4.2986,-4.2986,-4.2986,-4.2986,-4.2986,-4.2986,-4.2986,-4.2986,-4.2986,-4.2986,-4.2986,-4.2986,-4.2986,-4.2986,-4.2986,-4.2986,-4.2986,-4.2986,-4.2986,-4.2986,-4.2986,-4.2986,-4.2986,-4.2986,-4.2986,0.0,0.0,0.0,0.0,0.0,0.0,0.0,0.0,0.0,0.0,0.0,0.0,0.0,0.0,0.0,0.0,0.0,0.0,0.0,0.0,0.0,-5.1229,-5.1229,-5.1229,-5.1229,-5.1229,-5.1229,-5.1229,-5.1229,-5.1229,-5.1229,-5.1229,-5.1229,-5.1229,-5.1229,-5.1229,-5.1169,-5.0465,-4.9853,-4.9239,-4.8566,-4.7908,-4.7309,-4.7309,-4.7309,-4.7309,-4.7309,-4.7309,-4.7309,-4.7309,0.0,0.0,0.0,0.0,-4.5779,-4.5779,-4.4238,-4.2452,-4.2404,-4.1445,-4.0517,-4.0517,-4.016,-3.9903,-4.0083,-3.9929,-3.9749,-3.9697,-3.9697,-3.9697,-3.9697,-4.0526,-4.1175,-4.1275,-4.2183,-4.2861,-4.2961,-4.2986,-4.2986,-4.2986,-4.2986,-4.2986,-4.2986,-4.2986,-4.2986,-4.2986,-4.2986,-4.2986,-4.2986,-4.2986,-4.2986,-4.2986,-4.2986,-4.2986,-4.2986,-4.2986,-4.2986,-4.2986,-4.2986,-4.2986,-4.2986,-4.2986,-4.2986,-4.2986,-4.2986,-4.2986,-4.2986,-4.2986,-4.2986,-4.2986,-4.2986,-4.2986,-4.2986,-4.2986,-4.2986,-4.2986,0.0,0.0,0.0,0.0,0.0,0.0,0.0,0.0,0.0,0.0,0.0,0.0,0.0,0.0,0.0,0.0,0.0,0.0,0.0,0.0,0.0,-5.1229,-5.1229,-5.1229,-5.1229,-5.1229,-5.1229,-5.1229,-5.1229,-5.1229,-5.1229,-5.1229,-5.1229,-5.1229,-5.1229,-5.1229,-5.1169,-5.0465,-4.9853,-4.9239,-4.8566,-4.7908,-4.7309,-4.7309,-4.7309,-4.7309,-4.7309,-4.7309,-4.7309,-4.7309,-4.7309,0.0,0.0,0.0,-4.5779,-4.5779,-4.4331,-4.2695,-4.2452,-4.1445,-4.0517,-4.0517,-4.0466,-4.0338,-4.0134,-4.0083,-3.9981,-3.9749,-3.9697,-3.9697,-3.9697,-4.0199,-4.0777,-4.12,-4.1856,-4.2489,-4.2911,-4.2986,-4.2986,-4.2986,-4.2986,-4.2986,-4.2986,-4.2986,-4.2986,-4.2986,-4.2986,-4.2986,-4.2986,-4.2986,-4.2986,-4.2986,-4.2986,-4.2986,-4.2986,-4.2986,-4.2986,-4.2986,-4.2986,-4.2986,-4.2986,-4.2986,-4.2986,-4.2986,-4.2986,-4.2986,-4.2986,-4.2986,-4.2986,-4.2986,-4.2986,-4.2986,-4.2986,-4.2986,-4.2986,-4.2986,0.0,0.0,0.0,0.0,0.0,0.0,0.0,0.0,0.0,0.0,0.0,0.0,0.0,0.0,0.0,-5.1319,0.0,0.0,0.0,0.0,0.0,-5.1229,-5.1229,-5.1229,-5.1229,-5.1058,-5.0964,-5.0964,-5.0852,-5.0805,-5.0805,-5.0917,-5.1058,-5.1229,-5.1229,-5.1229,-5.1199,-5.0853,-5.0212,-4.9269,-4.9,-4.8207,-4.7309,-4.7309,-4.7309,-4.7309,-4.7309,-4.7309,-4.7309,-4.7309,-4.7309,-4.7309,-4.7309,0.0,0.0,0.0,-4.5598,-4.4191,-4.2985,-4.2137,-4.1471,-4.1047,-4.072,-4.0491,-4.0542,-4.0338,-4.0083,-3.9929,-3.98,-3.9697,-3.9697,-4.0149,-4.0701,-4.12,-4.1806,-4.2414,-4.2911,-4.2986,-4.2986,-4.2986,-4.2986,-4.2986,-4.2986,-4.2986,-4.2986,-4.2986,-4.2986,-4.2986,-4.2986,-4.2986,-4.2986,-4.2986,-4.2986,-4.2986,-4.2986,-4.2986,-4.2986,-4.2986,-4.2986,-4.2986,-4.2986,-4.2986,-4.2986,-4.2986,-4.2986,-4.2986,-4.2986,-4.2986,-4.2986,-4.2986,-4.2986,-4.2986,-4.2986,-4.2986,-4.2986,-4.2986,0.0,0.0,0.0,0.0,0.0,0.0,0.0,0.0,0.0,0.0,0.0,0.0,0.0,0.0,0.0,0.0,-5.1229,0.0,0.0,0.0,0.0,-5.1229,-5.1229,-5.1182,-5.1105,-5.0917,-5.0793,-5.0793,-5.0614,-5.0548,-5.0567,-5.068,-5.0822,-5.1041,-5.1088,-5.1105,-5.1229,-5.1105,-5.0495,-4.9494,-4.9389,-4.8566,-4.7549,-4.7369,-4.7309,-4.7309,-4.7309,-4.7309,-4.7309,-4.7309,-4.7309,-4.7309,-4.7309,-4.7309,0.0,0.0,0.0,-4.5417,-4.3673,-4.3033,-4.2744,-4.2213,-4.1571,-4.1121,-4.1272,-4.0769,-4.0287,-4.0236,-4.0032,-3.9903,-3.98,-4.0075,-4.0501,-4.1,-4.158,-4.2133,-4.274,-4.2886,-4.2986,-4.2986,-4.2986,-4.2986,-4.2986,-4.2986,-4.2986,-4.2986,-4.2986,-4.2986,-4.2986,-4.2986,-4.2986,-4.2986,-4.2986,-4.2986,-4.2986,-4.2986,-4.2986,-4.2986,-4.2986,-4.2986,-4.2986,-4.2986,-4.2986,-4.2986,-4.2986,-4.2986,-4.2986,-4.2986,-4.2986,-4.2986,-4.2986,-4.2986,-4.2986,-4.2986,-4.2986,-4.2986,0.0,0.0,0.0,0.0,0.0,0.0,0.0,0.0,0.0,0.0,0.0,0.0,-5.3324,-5.3174,-5.2665,-5.1319,-5.1229,-5.1229,-5.1229,-5.1229,0.0,-5.1229,-5.1229,0.0,-5.0822,-5.0793,-5.0793,-5.0793,-5.0614,-5.0614,-5.0775,-5.0614,-5.0501,-5.0548,-5.0728,-5.0964,-5.1182,-5.0917,-5.0547,-5.0076,-4.9523,-4.891,-4.8177,-4.7549,-4.7309,-4.7309,-4.7309,-4.7309,-4.7309,-4.7309,-4.7309,-4.7309,-4.7309,-4.7309,-4.7309,0.0,0.0,0.0,-4.4499,-4.4219,-4.4172,-4.4172,-4.3416,-4.2598,-4.2355,-4.1544,-4.0795,-4.0542,-4.0466,-4.0389,-4.0134,-3.9903,-3.9923,-4.0475,-4.0974,-4.158,-4.2187,-4.2715,-4.2986,-4.2986,-4.2986,-4.2986,-4.2986,-4.2986,-4.2986,-4.2986,-4.2986,-4.2986,-4.2986,-4.2986,-4.2986,-4.2986,-4.2986,-4.2986,-4.2986,-4.2986,-4.2986,-4.2986,-4.2986,-4.2986,-4.2986,-4.2986,-4.2986,-4.2986,-4.2986,-4.2986,-4.2986,-4.2986,-4.2986,-4.2986,-4.2986,-4.2986,-4.2986,-4.2986,-4.2986,-4.2986,0.0,0.0,0.0,0.0,0.0,0.0,0.0,0.0,0.0,0.0,0.0,0.0,0.0,-5.2815,-5.2187,-5.1289,-5.1229,-5.1229,-5.1229,-5.1229,0.0,-5.1229,-5.1229,-5.1182,-5.1058,-5.0757,-5.0614,-5.0614,-5.0183,-5.0009,-5.0105,-5.0183,-5.0231,-5.0231,-5.0632,-5.087,-5.0964,-5.1011,-5.0747,-5.0136,-4.9523,-4.891,-4.8207,-4.7549,-4.7309,-4.7309,-4.7309,-4.7309,-4.7309,-4.7309,-4.7309,-4.7309,-4.7309,-4.7309,-4.7309,-4.7309,-4.7019,-4.655,-4.5553,-4.5281,-4.5098,-4.4452,-4.4031,-4.3559,-4.284,-4.2208,-4.1644,-4.0896,-4.0593,-4.044,-4.0389,-4.0134,-4.008,-4.0425,-4.0924,-4.153,-4.2137,-4.269,-4.2986,-4.2986,-4.2986,-4.2986,-4.2986,-4.2986,-4.2986,-4.2986,-4.2986,-4.2986,-4.2986,-4.2986,-4.2986,-4.2986,-4.2986,-4.2986,-4.2986,-4.2986,-4.2986,-4.2986,-4.2986,-4.2986,-4.2986,-4.2986,-4.2986,-4.2986,-4.2986,-4.2986,-4.2986,-4.2986,-4.2986,-4.2986,-4.2986,-4.2986,-4.2986,-4.2986,-4.2986,-4.2986,0.0,0.0,0.0,0.0,0.0,0.0,0.0,0.0,0.0,-5.5179,0.0,0.0,0.0,0.0,-5.1947,-5.1289,-5.1229,-5.1229,-5.1229,-5.1229,-5.1229,-5.1229,-5.1105,-5.1011,-5.0947,-5.0567,-5.0357,-5.0357,-4.9941,-4.9717,-4.9815,-4.9941,-4.999,-4.999,-5.0394,-5.0632,-5.068,-5.0775,-5.0632,-5.0232,-4.9477,-4.8925,-4.8447,-4.7834,-4.7638,-4.7638,-4.7638,-4.7638,-4.7608,-4.7369,-4.7309,-4.7309,-4.7309,-4.7309,-4.7309,-4.7309,-4.7309,-4.7149,-4.6506,-4.6299,-4.6121,-4.5463,-4.5052,-4.4638,-4.3956,-4.3177,-4.2355,-4.1693,-4.1121,-4.077,-4.0643,-4.0491,-4.0364,-4.0383,-4.0754,-4.1254,-4.1806,-4.2359,-4.2816,-4.2961,-4.2986,-4.2986,-4.2986,-4.2986,-4.2986,-4.2986,-4.2986,-4.2986,-4.2986,-4.2986,-4.2986,-4.2986,-4.2986,-4.2986,-4.2986,-4.2986,-4.2986,-4.2986,-4.2986,-4.2986,-4.2986,-4.2986,-4.2986,-4.2986,-4.2986,-4.2986,-4.2986,-4.2986,-4.2986,-4.2986,-4.2986,-4.2986,-4.2986,-4.2986,-4.2986,-4.2986,0.0,0.0,0.0,0.0,0.0,0.0,0.0,0.0,-5.5179,-5.5149,0.0,0.0,0.0,0.0,0.0,-5.1289,-5.1229,-5.1229,-5.1229,-5.1229,-5.1229,-5.1182,0.0,0.0,-5.0501,-5.0231,-5.0086,-5.0086,-4.9815,-4.9815,-5.0086,-4.9815,-4.9717,-4.9717,-4.999,-5.0183,-5.0405,-5.0183,-5.0231,-5.0383,-4.9364,-4.8951,-4.8892,-4.8477,-4.8327,-4.8327,-4.8297,-4.8297,-4.8177,-4.7519,-4.7309,-4.7309,-4.7309,-4.7309,-4.7309,-4.7309,-4.7309,-4.7309,0.0,0.0,0.0,-4.7309,-4.6594,-4.5824,-4.5824,-4.4284,-4.2889,-4.284,-4.2065,-4.1248,-4.0997,-4.0946,-4.0744,-4.0236,-4.0357,-4.0701,-4.1254,-4.1861,-4.2414,-4.2967,-4.3042,-4.3042,-4.2986,-4.3042,-4.3042,-4.2986,-4.3042,-4.3042,-4.2986,-4.2986,-4.2986,-4.2986,-4.2986,-4.2986,-4.2986,-4.2986,-4.2986,-4.2986,-4.2986,-4.2986,-4.2986,-4.2986,-4.2986,-4.2986,-4.2986,-4.2986,-4.2986,-4.2986,-4.2986,-4.2986,-4.2986,-4.2986,-4.2986,-4.2986,-4.2986,-4.2986,0.0,0.0,0.0,0.0,0.0,0.0,-5.5179,-5.5179,-5.5029,0.0,0.0,0.0,-5.2546,-5.1887,-5.1409,-5.1229,-5.1229,-5.1229,-5.1229,-5.1229,-5.1105,-5.0917,-5.087,-5.068,-5.0501,-5.0231,-5.0086,-5.0086,-4.9815,-4.9717,-4.9815,-4.9717,-4.9717,-4.9717,-4.9766,-4.9424,-4.8753,-4.9941,-5.0453,-5.0442,-4.9868,-4.9634,-4.9591,-4.9164,-4.903,-4.897,-4.8446,-4.8297,-4.8177,-4.7519,-4.7309,-4.7309,-4.7309,-4.7309,-4.7309,-4.7309,-4.7309,-4.7309,-4.7309,0.0,0.0,0.0,0.0,0.0,-4.5958,-4.5343,-4.4748,-4.4031,-4.3081,-4.2382,-4.2284,-4.1495,-4.0846,-4.0668,-4.0746,-4.1071,-4.1841,-4.2239,-4.2688,-4.3219,-4.3295,-4.3184,-4.3042,-4.3184,-4.3184,-4.3042,-4.3184,-4.3184,-4.3042,-4.2986,-4.2986,-4.2986,-4.2986,-4.2986,-4.2986,-4.2986,-4.2986,-4.2986,-4.2986,-4.2986,-4.2986,-4.2986,-4.2986,-4.2986,-4.2986,-4.2986,-4.2986,-4.2986,-4.2986,-4.2986,-4.2986,-4.2986,-4.2986,-4.2986,-4.2986,-4.2986,0.0,0.0,0.0,0.0,0.0,-5.5179,-5.5179,-5.5179,-5.497,0.0,0.0,0.0,-5.1887,-5.1439,-5.1229,-5.1229,-5.1229,-5.1229,-5.1229,-5.1229,-5.1105,-5.0964,-5.0775,-5.0614,-5.0501,-5.0135,-4.9941,-4.9941,-4.9766,-4.9717,-4.9669,-4.9198,-4.9001,-4.8951,-4.8474,-4.7892,-4.7331,-4.8324,-4.905,-4.9415,-4.9039,-4.9139,-4.9562,-4.9548,-4.9536,-4.9507,-4.9179,-4.8925,-4.8596,-4.7938,-4.7549,-4.7309,-4.7309,-4.7309,-4.7309,-4.7309,-4.7309,0.0,0.0,0.0,-4.7309,-4.7309,0.0,0.0,-4.655,-4.6121,-4.5644,-4.5052,-4.4097,-4.3321,-4.2889,-4.2159,-4.1571,-4.1147,-4.0951,-4.1131,-4.1747,-4.207,-4.2522,-4.3165,-4.3445,-4.3543,-4.3376,-4.3543,-4.3462,-4.3184,-4.3295,-4.3295,-4.3042,-4.2986,-4.2986,-4.2986,-4.2986,-4.2986,-4.2986,-4.2986,-4.2986,-4.2986,-4.2986,-4.2986,-4.2986,-4.2986,-4.2986,-4.2986,-4.2986,-4.2986,-4.2986,-4.2986,-4.2986,-4.2986,-4.2986,-4.2986,-4.2986,-4.2986,-4.2986,-4.2986,0.0,0.0,0.0,-5.5179,-5.5179,-5.5179,-5.5179,-5.5119,-5.485,0.0,-5.3443,-5.2516,-5.1349,-5.1229,-5.1229,-5.1229,-5.1229,0.0,-5.1229,-5.1229,-5.1182,-5.1135,-5.071,-5.0453,-5.0405,-4.9941,-4.9717,-4.9717,-4.9571,-4.9522,-4.9473,-4.8324,-4.7819,-4.7768,-4.6736,-4.6215,-4.611,-4.611,-4.6712,-4.761,-4.7403,-4.7995,-4.9066,-4.9616,-4.9851,-4.9868,-5.0133,-4.9823,-4.9209,-4.8416,-4.7788,-4.7309,-4.7309,-4.7309,-4.7309,-4.7309,-4.7309,0.0,0.0,0.0,0.0,-4.7309,-4.7309,0.0,-4.7309,-4.6594,-4.5958,-4.5958,-4.519,-4.4219,-4.3321,-4.3033,-4.2647,-4.1647,-4.1248,-4.1128,-4.1363,-4.1666,-4.22,-4.2951,-4.3595,-4.3955,-4.3899,-4.3955,-4.3819,-4.3462,-4.3462,-4.3295,-4.3042,-4.3042,-4.3042,-4.2986,-4.2986,-4.2986,-4.2986,-4.2986,-4.2986,-4.2986,-4.2986,-4.2986,-4.2986,-4.2986,-4.2986,-4.2986,-4.2986,-4.2986,-4.2986,-4.2986,-4.2986,-4.2986,-4.2986,-4.2986,-4.2986,-4.2986,-4.2986,-4.2986,0.0,0.0,-5.5179,-5.5179,-5.5179,-5.5179,-5.5179,-5.473,-5.4162,-5.3473,-5.2336,-5.1498,-5.1259,-5.1229,-5.1229,-5.1229,0.0,0.0,0.0,-5.1229,-5.1041,-5.0644,-5.0548,-5.0309,-4.9892,-4.9717,-4.9717,-4.9717,-4.8802,-4.8324,-4.8324,-4.7177,-4.6632,-4.6632,-4.6372,-4.582,-4.4993,-4.4993,-4.5154,-4.5449,-4.6419,-4.7544,-4.8574,-4.9135,-4.933,-4.9417,-4.9974,-4.9823,-4.912,-4.7908,-4.7429,-4.7309,-4.7309,-4.7309,-4.7309,-4.7309,-4.7309,-4.7309,-4.7309,-4.7309,-4.7309,-4.7309,-4.7309,0.0,-4.7309,-4.7149,-4.7019,-4.7019,-4.6211,-4.5463,-4.5252,-4.4517,-4.3701,-4.2647,-4.2284,-4.2103,-4.2031,-4.2294,-4.2627,-4.3248,-4.3842,-4.4148,-4.3899,-4.4119,-4.4094,-4.3819,-4.3764,-4.3543,-4.3042,-4.3184,-4.324,-4.3042,-4.2986,-4.2986,-4.2986,-4.2986,-4.2986,-4.2986,-4.2986,-4.2986,-4.2986,-4.2986,-4.2986,-4.2986,-4.2986,-4.2986,-4.2986,-4.2986,-4.2986,-4.2986,-4.2986,-4.2986,-4.2986,-4.2986,-4.2986,-4.2986,0.0,0.0,-5.5179,-5.5179,-5.5108,-5.5057,-5.5179,-5.451,-5.3804,-5.3264,-5.1942,-5.0964,-5.0852,-5.0852,-5.0852,-5.0852,0.0,0.0,0.0,-5.0852,-5.0757,-5.0501,-5.0357,-5.0183,-4.9941,-4.9766,-4.9717,-4.9717,-4.8553,-4.8021,-4.7971,-4.6294,-4.5502,-4.5502,-4.4913,-4.4344,-4.3823,-4.3823,-4.4206,-4.4778,-4.5449,-4.6372,-4.7406,-4.7785,-4.8318,-4.8886,-4.933,-4.9321,-4.8894,-4.7553,-4.7222,-4.7309,-4.7309,-4.7309,-4.7309,-4.7309,-4.7309,-4.7309,-4.7309,-4.7309,-4.7309,-4.7309,-4.7309,0.0,0.0,-4.7309,-4.7309,-4.7309,-4.6931,-4.6388,-4.5869,-4.5372,-4.473,-4.3701,-4.3464,-4.3142,-4.2587,-4.2551,-4.2735,-4.3125,-4.3985,-4.4476,-4.4313,-4.4422,-4.4313,-4.3955,-4.3899,-4.3679,-4.3042,-4.324,-4.3295,-4.3042,-4.2986,-4.2986,-4.2986,-4.2986,-4.2986,-4.2986,-4.2986,-4.2986,-4.2986,-4.2986,-4.2986,-4.2986,-4.2986,-4.2986,-4.2986,-4.2986,-4.2986,-4.2986,-4.2986,-4.2986,-4.2986,-4.2986,-4.2986,-4.2986,0.0,0.0,-5.5027,-5.5027,-5.4824,-5.4743,-5.4827,0.0,-5.3317,-5.2759,-5.1524,-5.068,-5.0501,-5.0501,-5.0501,-5.0501,0.0,0.0,-5.0501,-5.0501,-5.0501,-5.0453,-5.0231,-4.999,-4.9717,-4.9473,-4.9248,-4.905,-4.792,-4.7331,-4.7331,-4.5289,-4.437,-4.4315,-4.3406,-4.2986,-4.2986,-4.2986,-4.3517,-4.437,-4.437,-4.5047,-4.6032,-4.6267,-4.6995,-4.7915,-4.8304,-4.8625,-4.8663,-4.7451,-4.7288,-4.7581,-4.7549,-4.7445,-4.7415,-4.7339,-4.7309,-4.7309,-4.7309,-4.7309,-4.7309,-4.7309,-4.7309,-4.7309,0.0,0.0,0.0,-4.7309,-4.7309,-4.7062,-4.6255,-4.6121,-4.5734,-4.4776,-4.4591,-4.4172,-4.2985,-4.2794,-4.2814,-4.284,-4.3964,-4.4696,-4.4565,-4.467,-4.4531,-4.401,-4.401,-4.3764,-4.3209,-4.3351,-4.3406,-4.3209,-4.3042,-4.3042,-4.3073,-4.3042,-4.2986,-4.2986,-4.2986,-4.2986,-4.2986,-4.2986,-4.2986,-4.2986,-4.2986,-4.2986,-4.2986,-4.2986,-4.2986,-4.2986,-4.2986,-4.2986,-4.2986,-4.2986,-4.2986,-4.2986,-5.42,-5.4406,0.0,0.0,-5.4355,0.0,0.0,0.0,-5.2142,-5.098,-5.0637,-5.0548,-5.0501,-5.0501,-5.0501,-5.0501,-5.0501,-5.0501,-5.0501,-5.0501,-5.0405,-5.0135,-5.0135,-4.9522,-4.8274,-4.8223,-4.7689,-4.6684,-4.5608,-4.5047,-4.5047,-4.3768,-4.3184,-4.3184,-4.3042,-4.2986,-4.2986,-4.2986,-4.3073,-4.3184,-4.3184,-4.3878,-4.4886,-4.5102,-4.5475,-4.5951,-4.6896,-4.7803,-4.8515,-4.7788,-4.8077,-4.864,-4.8312,-4.8015,-4.7762,-4.7372,-4.7309,-4.7309,-4.7309,-4.7309,-4.7309,-4.7309,-4.7309,-4.7309,-4.7309,0.0,-4.7309,-4.7309,0.0,-4.7266,-4.7149,0.0,0.0,-4.5779,-4.5644,-4.4978,-4.3081,-4.3242,-4.3225,-4.2418,-4.3729,-4.4539,-4.4016,-4.4434,-4.4559,-4.4258,-4.4476,-4.4367,-4.3844,-4.3844,-4.3844,-4.3789,-4.3265,-4.3129,-4.3351,-4.3129,-4.2986,-4.2986,-4.2986,-4.2986,-4.2986,-4.2986,-4.2986,-4.2986,-4.2986,-4.2986,-4.2986,-4.2986,-4.2986,-4.2986,-4.2986,-4.2986,-4.2986,-4.2986,-4.2986,-4.2986,-5.2051,-5.2775,0.0,0.0,-5.1821,0.0,0.0,0.0,-5.0506,-4.9383,-4.9863,-4.999,-4.9149,-4.962,-4.9766,-4.91,-4.9669,-5.0038,-5.0038,-4.9424,0.0,-4.9815,-4.8624,-4.7943,-4.8021,-4.7331,-4.6816,-4.6267,-4.5235,-4.467,-4.467,-4.3517,-4.2986,-4.2986,-4.2986,-4.2986,-4.2986,-4.2986,-4.2986,-4.2986,-4.2986,-4.3295,-4.3713,-4.3823,-4.4344,-4.5129,-4.5796,-4.654,-4.7102,-4.6433,-4.7052,-4.8131,-4.7959,-4.8265,-4.8686,-4.8536,-4.8446,-4.8446,-4.8446,-4.8446,-4.8356,-4.7967,-4.7878,-4.7788,-4.7399,-4.7309,-4.7309,-4.7309,0.0,0.0,0.0,0.0,0.0,0.0,-4.6682,-4.6166,-4.4748,-4.4562,-4.3983,-4.2415,-4.3389,-4.4278,-4.4356,-4.4591,-4.4559,-4.4313,-4.4585,-4.4476,-4.3955,-4.3899,-4.3819,-4.3653,-4.3351,-4.3184,-4.3184,-4.3184,-4.3129,-4.2986,-4.2986,-4.2986,-4.2986,-4.2986,-4.2986,-4.2986,-4.2986,-4.2986,-4.2986,-4.2986,-4.2986,-4.2986,-4.2986,-4.2986,-4.2986,-4.2986,-4.2986,-4.2986,-4.9266,0.0,-5.1285,-5.0437,-4.9666,-4.9173,-4.9197,-4.9001,-4.8573,-4.792,-4.8546,-4.8674,-4.7666,-4.8274,-4.8424,-4.7615,-4.8274,-4.8774,-4.8774,-4.8274,-4.8223,-4.8724,-4.7485,-4.6867,-4.7074,-4.6294,-4.5714,-4.5395,-4.4615,-4.4261,-4.4206,-4.3406,-4.2986,-4.2986,-4.2986,-4.2986,-4.2986,-4.2986,-4.2986,-4.2986,-4.2986,-4.2986,-4.3042,-4.3073,-4.3602,-4.4401,-4.4838,-4.5437,-4.5922,-4.5434,-4.6271,-4.7491,-4.7367,-4.8097,-4.8962,-4.8876,-4.9073,-4.9299,-4.9299,-4.9299,-4.9209,-4.8686,-4.8566,-4.8446,-4.7967,-4.7848,-4.7848,-4.7848,-4.7848,0.0,0.0,0.0,-4.7788,-4.7608,0.0,-4.7183,-4.5943,-4.5516,-4.4626,-4.2605,-4.3126,-4.3938,-4.4643,-4.4668,-4.4613,-4.4422,-4.4559,-4.4531,-4.4148,-4.401,-4.3819,-4.3628,-4.3517,-4.3295,-4.3129,-4.3295,-4.3295,-4.2986,-4.2986,-4.2986,-4.2986,-4.2986,-4.2986,-4.2986,-4.2986,-4.2986,-4.2986,-4.2986,-4.2986,-4.2986,-4.2986,-4.2986,-4.2986,-4.2986,-4.2986,-4.2986,-4.5885,-4.7569,-4.9226,-4.9171,-4.8736,-4.8137,-4.7458,-4.6834,-4.6399,-4.6372,-4.6372,-4.6372,-4.6372,-4.6372,-4.6372,-4.6372,-4.6372,-4.6424,-4.6424,-4.7383,-4.7536,-4.6424,-4.7383,-4.6971,-4.4832,-4.4778,-4.4206,-4.3098,-4.3073,-4.3017,-4.3017,-4.3042,-4.2986,-4.2986,-4.2986,-4.2986,-4.2986,-4.2986,-4.2986,-4.2986,-4.2986,-4.2986,-4.3042,-4.3295,-4.3381,-4.3517,-4.3793,-4.4615,-4.5529,-4.5502,-4.624,-4.7142,-4.6757,-4.7383,-4.8173,-4.7775,-4.842,-4.9299,-4.9299,-4.9299,-4.9299,-4.9269,-4.9269,-4.9269,-4.9239,-4.9239,-4.9239,-4.9239,-4.9239,-4.9239,-4.9239,-4.9239,0.0,0.0,0.0,0.0,0.0,-4.5808,-4.5007,-4.3012,-4.2929,-4.3493,-4.4563,-4.4668,-4.4668,-4.4668,-4.4668,-4.4668,-4.4668,-4.4148,-4.401,-4.4258,-4.3683,-4.3381,-4.3381,-4.3381,-4.3295,-4.2986,-4.2986,-4.2986,-4.2986,-4.2986,-4.2986,-4.2986,-4.2986,-4.2986,-4.2986,-4.2986,-4.2986,-4.2986,-4.2986,-4.2986,-4.2986,-4.2986,-4.2986,-4.2986,-4.4978,-4.5285,-4.5675,-4.6062,-4.5706,-4.5137,-4.4513,-4.4909,-4.5235,-4.5235,-4.5873,-4.6005,-4.5289,-4.5873,-4.6032,-4.5289,-4.5926,-4.6267,-4.6267,-4.5979,-4.5979,-4.6267,-4.5289,-4.467,-4.467,-4.3932,-4.3406,-4.2986,-4.2986,-4.2986,-4.2986,-4.2986,-4.2986,-4.2986,-4.2986,-4.2986,-4.2986,-4.2986,-4.2986,-4.2986,-4.2986,-4.2986,-4.3042,-4.3073,-4.3129,-4.3129,-4.3265,-4.3683,-4.4126,-4.4126,-4.4967,-4.6057,-4.5894,-4.6743,-4.7928,-4.8488,-4.9039,-4.9669,-5.0355,-5.0571,-5.0451,-5.0032,-4.9912,-4.9793,-4.9419,-4.9299,-4.9299,-4.9299,-4.9299,-4.9299,-4.9299,-4.9299,0.0,0.0,0.0,0.0,0.0,-4.7545,-4.6735,-4.579,-4.4425,-4.3885,-4.4643,-4.4668,-4.4668,-4.4668,-4.4668,-4.4668,-4.4668,-4.4367,-4.4094,-4.4064,-4.3984,-4.3738,-4.3129,-4.3543,-4.3487,-4.2986,-4.2986,-4.2986,-4.2986,-4.2986,-4.2986,-4.2986,-4.2986,-4.2986,-4.2986,-4.2986,-4.2986,-4.2986,-4.2986,-4.2986,-4.2986,-4.2986,-4.2986,-4.2986,-4.4342,-4.389,-4.3689,-4.4242,-4.3865,-4.3388,-4.3037,-4.3602,-4.4097,-4.4097,-4.4724,-4.4859,-4.4206,-4.4724,-4.4859,-4.4152,-4.4724,-4.5128,-4.5128,-4.4886,-4.4832,-4.5128,-4.4152,-4.3768,-4.4097,-4.3351,-4.2986,-4.2986,-4.2986,-4.2986,-4.2986,-4.2986,-4.2986,-4.2986,-4.2986,-4.2986,-4.2986,-4.2986,-4.2986,-4.2986,-4.2986,-4.2986,-4.2986,-4.2986,-4.2986,-4.2986,-4.2986,-4.3184,-4.3381,-4.3381,-4.4097,-4.494,-4.494,-4.582,-4.6995,-4.7684,-4.8567,-4.9513,-5.0287,-5.0745,-5.0969,-5.0644,-5.0554,-5.0435,-5.0062,-4.9972,-4.9972,-4.9972,-4.9972,-4.9972,-4.9972,-4.9972,0.0,0.0,0.0,0.0,0.0,-4.858,-4.7998,-4.7649,-4.5758,-4.4705,-4.5235,-4.4938,-4.4668,-4.4668,-4.4668,-4.4668,-4.4668,-4.4476,-4.4203,-4.4064,-4.4203,-4.3984,-4.3321,-4.3734,-4.3653,-4.3129,-4.3017,-4.2986,-4.2986,-4.2986,-4.2986,-4.2986,-4.2986,-4.2986,-4.2986,-4.2986,-4.2986,-4.2986,-4.2986,-4.2986,-4.2986,-4.2986,-4.2986,-4.2986,-4.3765,-4.3338,-4.3137,-4.3664,-4.3313,-4.2986,-4.2986,-4.2986,-4.2986,-4.2986,-4.2986,-4.2986,-4.2986,-4.2986,-4.2986,-4.2986,-4.2986,-4.2986,-4.2986,-4.3987,-4.4152,-4.3042,-4.4042,-4.4097,-4.3042,-4.2986,-4.2986,-4.2986,-4.2986,-4.2986,-4.2986,-4.2986,-4.2986,-4.2986,-4.2986,-4.2986,-4.2986,-4.2986,-4.2986,-4.2986,-4.2986,-4.2986,-4.2986,-4.2986,-4.2986,-4.2986,-4.2986,-4.3129,-4.3406,-4.3406,-4.3572,-4.3844,-4.3899,-4.4587,-4.5449,-4.5502,-4.6995,-4.8745,-4.9063,-4.9873,-5.0745,-5.1058,-5.1105,-5.1105,-5.1182,-5.1229,-5.1229,-5.1229,-5.1229,-5.1229,-5.1229,-5.1229,-5.102,0.0,0.0,0.0,0.0,-4.8992,-4.8729,-4.8729,-4.6973,-4.5904,-4.6372,-4.5342,-4.4668,-4.4668,-4.4668,-4.4668,-4.4668,-4.4476,-4.4313,-4.4313,-4.4313,-4.4148,-4.3899,-4.3899,-4.3708,-4.3381,-4.3129,-4.3042,-4.2986,-4.3042,-4.3042,-4.2986,-4.2986,-4.2986,-4.2986,-4.2986,-4.2986,-4.2986,-4.2986,-4.2986,-4.2986,-4.2986,-4.2986,-4.2986,-4.3187,-4.3062,-4.3011,-4.3162,-4.3062,-4.2986,-4.2986,-4.2986,-4.2986,-4.2986,-4.2986,-4.2986,-4.2986,-4.2986,-4.2986,-4.2986,-4.2986,-4.2986,-4.2986,-4.3295,-4.3295,-4.3042,-4.3295,-4.3295,-4.3042,-4.2986,-4.2986,-4.2986,-4.2986,-4.2986,-4.2986,-4.2986,-4.2986,-4.2986,-4.2986,-4.2986,-4.2986,-4.2986,-4.2986,-4.2986,-4.2986,-4.2986,-4.2986,-4.2986,-4.2986,-4.2986,-4.2986,-4.3042,-4.3073,-4.3073,-4.3154,-4.3265,-4.3462,-4.3903,-4.4505,-4.5502,-4.6399,-4.7229,-4.8066,-4.8518,-4.8944,-4.9805,-5.0028,-5.022,-5.1011,-5.1229,-5.1229,-5.1229,-5.1229,-5.1229,-5.1229,-5.1229,-5.1169,0.0,0.0,0.0,-5.075,-5.0607,-5.0508,-5.0508,-4.9349,-4.7976,-4.6503,-4.5342,-4.4668,-4.4668,-4.4668,-4.4668,-4.4668,-4.4613,-4.4531,-4.4313,-4.4476,-4.4367,-4.3899,-4.3899,-4.3708,-4.3381,-4.3351,-4.3184,-4.3042,-4.3184,-4.3184,-4.2986,-4.2986,-4.2986,-4.2986,-4.2986,-4.2986,-4.2986,-4.2986,-4.2986,-4.2986,-4.2986,-4.2986,-4.2986,-4.2986,-4.2986,-4.2986,-4.2986,-4.2986,-4.2986,-4.2986,-4.2986,-4.2986,-4.2986,-4.2986,-4.2986,-4.2986,-4.2986,-4.2986,-4.2986,-4.2986,-4.2986,-4.2986,-4.2986,-4.2986,-4.2986,-4.2986,-4.2986,-4.2986,-4.2986,-4.2986,-4.2986,-4.2986,-4.2986,-4.2986,-4.2986,-4.2986,-4.2986,-4.2986,-4.2986,-4.2986,-4.2986,-4.2986,-4.2986,-4.2986,-4.2986,0.0,-4.2986,-4.2986,-4.2986,-4.2986,-4.3073,-4.3184,-4.3184,-4.3184,-4.3184,-4.3351,-4.3462,-4.3653,-4.4398,-4.5101,-4.5847,-4.6684,-4.7252,-4.7841,-4.8696,-4.9268,-4.9757,-5.0364,-5.087,-5.1229,-5.1229,-5.1229,-5.1229,-5.1229,-5.1229,-5.1229,-5.1229,-5.1229,-5.1229,-5.1229,-5.1229,-5.1229,-5.1229,-4.9854,-4.8446,-4.7229,-4.6111,-4.5235,-4.4722,-4.4668,-4.4668,-4.4668,-4.4668,-4.4613,-4.4476,-4.4613,-4.4559,-4.4258,-4.4094,-4.3929,-4.3653,-4.3462,-4.324,-4.3042,-4.3129,-4.3129,-4.2986,-4.2986,-4.2986,-4.2986,-4.2986,-4.2986,-4.2986,-4.2986,-4.2986,-4.2986,-4.2986,-4.2986,-4.2986,-4.2986,-4.2986,-4.2986,-4.2986,-4.2986,-4.2986,-4.2986,-4.2986,-4.2986,-4.2986,-4.2986,-4.2986,-4.2986,-4.2986,-4.2986,-4.2986,-4.2986,-4.2986,-4.2986,-4.2986,-4.2986,-4.2986,-4.2986,-4.2986,-4.2986,-4.2986,-4.2986,-4.2986,-4.2986,-4.2986,-4.2986,-4.2986,-4.2986,-4.2986,-4.2986,-4.2986,-4.2986,-4.2986,-4.2986,-4.2986,-4.2986,-4.2986,-4.2986,-4.2986,-4.2986,-4.2986,-4.2986,-4.3129,-4.3351,-4.3351,-4.3351,-4.3351,-4.3381,-4.324,-4.3073,-4.3098,-4.3848,-4.4696,-4.5154,-4.5979,-4.6919,-4.7508,-4.8396,-4.917,-4.9317,-5.022,-5.0964,-5.0964,-5.1105,-5.1229,-5.1229,-5.1229,-5.1229,-5.1229,-5.1229,-5.1229,-5.1229,-5.1058,-5.1011,-5.1182,-4.9288,0.0,-4.8016,-4.6867,-4.5768,-4.4776,-4.4668,-4.4668,-4.4668,-4.4668,-4.4668,-4.4668,-4.4668,-4.4668,-4.4668,-4.4422,-4.4148,-4.3899,-4.3628,-4.3351,-4.2986,-4.3098,-4.3098,-4.2986,-4.2986,-4.2986,-4.2986,-4.2986,-4.2986,-4.2986,-4.2986,-4.2986,-4.2986,-4.2986,-4.2986,-4.2986,-4.2986,-4.2986,-4.2986,-4.2986,-4.2986,-4.2986,-4.2986,-4.2986,-4.2986,-4.2986,-4.2986,-4.2986,-4.2986,-4.2986,-4.2986,-4.2986,-4.2986,-4.2986,-4.2986,-4.2986,-4.2986,-4.2986,-4.2986,-4.2986,-4.2986,-4.2986,-4.2986,-4.2986,-4.2986,-4.2986,-4.2986,-4.2986,-4.2986,-4.2986,-4.2986,-4.2986,-4.2986,-4.2986,-4.2986,-4.2986,-4.2986,-4.2986,-4.2986,-4.2986,-4.2986,-4.2986,-4.2986,-4.3042,-4.3073,-4.3073,-4.3073,-4.3129,-4.3351,-4.3406,-4.3406,-4.3653,-4.3874,-4.4039,-4.4148,-4.4313,-4.4722,-4.5714,-4.6267,-4.6788,-4.7712,-4.8944,-4.9883,-4.9883,-5.0555,-5.1229,-5.1229,-5.1229,-5.1229,-5.1229,-5.1229,-5.1229,-5.1229,-5.0412,-5.022,-5.1058,-4.9288,-4.8016,-4.8016,-4.6189,-4.4938,-4.4722,-4.4668,-4.4668,-4.4668,-4.4668,-4.4668,-4.4668,-4.4668,-4.4668,-4.4668,-4.4422,-4.4148,-4.3899,-4.4039,-4.3764,-4.3042,-4.3487,-4.3487,-4.2986,-4.2986,-4.2986,-4.2986,-4.2986,-4.2986,-4.2986,-4.2986,-4.2986,-4.2986,-4.2986,-4.2986,-4.2986,-4.2986,-4.2986,-4.2986,-4.2986,-4.2986,-4.2986,-4.2986,-4.2986,-4.2986,-4.2986,-4.2986,-4.2986,-4.2986,-4.2986,-4.2986,-4.2986,-4.2986,-4.2986,-4.2986,-4.2986,-4.2986,-4.2986,-4.2986,-4.2986,-4.2986,-4.2986,-4.2986,-4.2986,-4.2986,-4.2986,-4.2986,-4.2986,-4.2986,-4.2986,-4.2986,-4.2986,-4.2986,-4.2986,-4.2986,-4.2986,-4.2986,-4.2986,-4.2986,-4.2986,-4.2986,-4.2986,-4.2986,-4.2986,-4.2986,-4.2986,-4.2986,-4.3017,-4.3351,-4.3295,-4.3295,-4.3789,-4.3764,-4.3708,-4.4039,-4.4094,-4.4203,-4.475,-4.5529,-4.6242,-4.6632,-4.7763,-4.8745,-4.8745,-4.919,-4.9533,-4.9533,-4.9999,-5.022,-4.9659,-4.9999,-5.0172,-4.9582,-4.9092,-4.8944,-4.9484,-4.8145,-4.7177,-4.7177,-4.5635,-4.4668,-4.4668,-4.4668,-4.4668,-4.4668,-4.4668,-4.4668,-4.4668,-4.4668,-4.4668,-4.4668,-4.4559,-4.4367,-4.4094,-4.4258,-4.3929,-4.324,-4.3543,-4.3432,-4.2986,-4.2986,-4.2986,-4.2986,-4.2986,-4.2986,-4.2986,-4.2986,-4.2986,-4.2986,-4.2986,-4.2986,-4.2986,-4.2986,-4.2986,-4.2986,-4.2986,-4.2986,-4.2986,-4.2986,-4.2986,-4.2986,-4.2986,-4.2986,-4.2986,-4.2986,-4.2986,-4.2986,-4.2986,-4.2986,-4.2986,-4.2986,-4.2986,-4.2986,-4.2986,-4.2986,-4.2986,-4.2986,-4.2986,-4.2986,-4.2986,-4.2986,-4.2911,-4.2811,-4.2911,-4.2986,-4.2986,-4.2986,-4.2986,-4.2986,-4.2986,-4.2986,-4.2986,-4.2986,-4.2986,-4.2986,-4.2986,-4.2986,-4.2986,-4.2986,-4.2986,-4.2986,-4.2986,-4.2986,-4.3042,-4.324,-4.3184,-4.3098,-4.3568,-4.3543,-4.3462,-4.3958,-4.4094,-4.4148,-4.4203,-4.51,-4.59,-4.5608,-4.6632,-4.7661,-4.7661,-4.7813,-4.8016,-4.8016,-4.8696,-4.9042,-4.8446,-4.8844,-4.9042,-4.8446,-4.7915,-4.7712,-4.7965,-4.6816,-4.6111,-4.6374,-4.5342,-4.4668,-4.4668,-4.4668,-4.4668,-4.4668,-4.4668,-4.4668,-4.4668,-4.4668,-4.4668,-4.4668,-4.4668,-4.4559,-4.4313,-4.4367,-4.4094,-4.3517,-4.3517,-4.3351,-4.3073,-4.3042,-4.2986,-4.2986,-4.2986,-4.2986,-4.2986,-4.2986,-4.2986,-4.2986,-4.2986,-4.2986,-4.2986,-4.2986,-4.2986,-4.2986,-4.2986,-4.2986,-4.2986,-4.2986,-4.2986,-4.2986,-4.2986,-4.2986,-4.2986,-4.2986,-4.2986,-4.2986,-4.2986,-4.2986,-4.2986,-4.2986,-4.2986,-4.2986,-4.2986,-4.2986,-4.2986,-4.2986,-4.2986,-4.2986,-4.2986,-4.2986,-4.2766,-4.2313,-4.2735,-4.2986,-4.2986,-4.2986,-4.2986,-4.2986,-4.2986,-4.2986,-4.2986,-4.2986,-4.2986,-4.2986,-4.2986,-4.2986,-4.2986,-4.2986,-4.2986,-4.2986,-4.2986,-4.2986,-4.2986,-4.3042,-4.3042,-4.3042,-4.3098,-4.3042,-4.3073,-4.3406,-4.3492,-4.3572,-4.3899,-4.4203,-4.4476,-4.4476,-4.5555,-4.6531,-4.6531,-4.7331,-4.8016,-4.8016,-4.8066,-4.8446,-4.9317,-4.8745,-4.8446,-4.9317,-4.7791,-4.6919,-4.7864,-4.6164,-4.5288,-4.6321,-4.5342,-4.4668,-4.4668,-4.4668,-4.4668,-4.4668,-4.4668,-4.4668,-4.4668,-4.4668,-4.4668,-4.4668,-4.4668,-4.4559,-4.4313,-4.4585,-4.4367,-4.3844,-4.3844,-4.3653,-4.3351,-4.3129,-4.2986,-4.2986,-4.2986,-4.2986,-4.2986,-4.2986,-4.2986,-4.2986,-4.2986,-4.2986,-4.2986,-4.2986,-4.2986,-4.2986,-4.2986,-4.2986,-4.2986,-4.2986,-4.2986,-4.2986,-4.2986,-4.2986,-4.2986,-4.2986,-4.2986,-4.2986,-4.2986,-4.2986,-4.2986,-4.2986,-4.2986,-4.2986,-4.2986,-4.2986,-4.2986,-4.2986,-4.2986,-4.2986,-4.2986,-4.2986,-4.2861,-4.266,-4.2861,-4.2986,-4.2986,-4.2986,-4.2986,-4.2986,-4.2986,-4.2986,-4.2986,-4.2986,-4.2986,-4.2986,-4.2986,-4.2986,-4.2986,-4.2986,-4.3073,-4.324,-4.324,-4.3129,-4.3042,-4.3184,-4.3129,-4.3098,-4.3432,-4.3432,-4.3295,-4.3598,-4.3708,-4.3708,-4.3899,-4.4119,-4.4313,-4.4313,-4.4884,-4.5395,-4.5395,-4.5688,-4.6006,-4.6006,-4.6556,-4.6971,-4.6712,-4.6867,-4.6971,-4.666,-4.59,-4.5555,-4.5953,-4.5235,-4.4884,-4.5342,-4.4992,-4.4668,-4.4668,-4.4668,-4.4668,-4.4668,-4.4668,-4.4668,-4.4668,-4.4668,-4.4668,-4.4668,-4.4668,-4.4668,-4.4531,-4.4668,-4.4531,-4.4094,-4.3955,-4.3708,-4.3381,-4.3295,-4.324,-4.324,-4.3073,-4.2986,-4.2986,-4.2986,-4.2986,-4.2986,-4.2986,-4.2986,-4.2986,-4.2986,-4.2986,-4.2986,-4.2986,-4.2986,-4.2986,-4.2986,-4.2986,-4.2986,-4.2986,-4.2986,-4.2986,-4.2986,-4.2986,-4.2986,-4.2986,-4.2986,-4.2986,-4.2986,-4.2986,-4.2986,-4.2986,-4.2986,-4.2986,-4.2986,-4.2986,-4.2986,-4.2986,-4.2986,-4.2886,-4.2735,-4.2735,-4.2866,-4.2986,-4.2986,-4.2986,-4.2986,-4.2986,-4.2986,-4.2986,-4.2986,-4.2986,-4.2986,-4.2986,-4.2986,-4.2986,-4.2986,-4.3129,-4.3295,-4.3295,-4.3129,-4.3017,-4.3351,-4.3295,-4.3184,-4.3543,-4.3598,-4.3572,-4.3708,-4.3874,-4.401,-4.3899,-4.4119,-4.4313,-4.4313,-4.4476,-4.4613,-4.4668,-4.4668,-4.4668,-4.4668,-4.5342,-4.5768,-4.5288,-4.5609,-4.5768,-4.5288,-4.4938,-4.4668,-4.4668,-4.4668,-4.4668,-4.4668,-4.4668,-4.4668,-4.4668,-4.4668,-4.4668,-4.4668,-4.4668,-4.4668,-4.4668,-4.4668,-4.4668,-4.4668,-4.4668,-4.4668,-4.4668,-4.4668,-4.4613,-4.4422,-4.4148,-4.3819,-4.3381,-4.3381,-4.3381,-4.3406,-4.3129,-4.2986,-4.2986,-4.2986,-4.2986,-4.2986,-4.2986,-4.2986,-4.2986,-4.2986,-4.2986,-4.2986,-4.2986,-4.2986,-4.2986,-4.2986,-4.2986,-4.2986,-4.2986,-4.2986,-4.2986,-4.2986,-4.2986,-4.2986,-4.2986,-4.2986,-4.2986,-4.2986,-4.2986,-4.2986,-4.2986,-4.2986,-4.2986,-4.2986,-4.2986,-4.2986,-4.2986,-4.2986,-4.2766,-4.2213,-4.2213,-4.2514,-4.2986,-4.2986,-4.2986,-4.2986,-4.2986,-4.2986,-4.2986,-4.2986,-4.2986,-4.2986,-4.2986,-4.2986,-4.2986,-4.2986,-4.2986,-4.2986,-4.2986,-4.2986,-4.3017,-4.3351,-4.3381,-4.3351,-4.3098,-4.3432,-4.3844,-4.3517,-4.3848,-4.4203,-4.3955,-4.4119,-4.4313,-4.4313,-4.4313,-4.4367,-4.4668,-4.4668,-4.4668,-4.4668,-4.4722,-4.51,-4.6216,-4.5449,-4.5073,-4.6216,-4.5395,-4.4668,-4.4668,-4.4668,-4.4668,-4.4668,-4.4668,-4.4668,-4.4668,-4.4668,-4.4668,-4.4668,-4.4668,-4.4668,-4.4668,-4.4668,-4.4668,-4.4668,-4.4668,-4.4668,-4.4668,-4.4668,-4.4668,-4.4668,-4.4422,-4.3958,-4.3381,-4.3381,-4.3381,-4.3406,-4.3129,-4.2986,-4.2986,-4.2986,-4.2986,-4.2986,-4.2986,-4.2986,-4.2986,-4.2986,-4.2986,-4.2986,-4.2986,-4.2986,-4.2986,-4.2986,-4.2986,-4.2986,-4.2986,-4.2986,-4.2986,-4.2986,-4.2986,-4.2986,-4.2986,-4.2986,-4.2986,-4.2986,-4.2986,-4.2986,-4.2986,-4.2986,-4.2986,-4.2986,-4.2986,-4.2986,-4.2986,-4.2986,-4.2886,-4.2766,-4.2766,-4.2811,-4.2986,-4.2986,-4.2986,-4.2986,-4.2986,-4.2986,-4.2986,-4.2986,-4.2986,-4.2986,-4.2986,-4.2986,-4.2986,-4.2986,-4.3129,-4.3295,-4.3295,-4.3295,-4.3295,-4.3406,-4.3295,-4.3184,-4.3487,-4.3598,-4.3572,-4.3708,-4.3874,-4.4064,-4.4148,-4.4258,-4.4367,-4.4531,-4.4559,-4.4613,-4.4668,-4.4668,-4.4668,-4.4668,-4.4668,-4.483,-4.5181,-4.4938,-4.483,-4.5181,-4.4938,-4.4668,-4.4668,-4.4668,-4.4668,-4.4668,-4.4668,-4.4668,-4.4668,-4.4668,-4.4668,-4.4668,-4.4668,-4.4668,-4.4668,-4.4668,-4.4668,-4.4668,-4.4668,-4.4668,-4.4668,-4.4668,-4.4613,-4.4422,-4.4531,-4.4367,-4.4013,-4.3819,-4.3708,-4.3708,-4.3209,-4.2986,-4.2986,-4.2986,-4.2986,-4.2986,-4.2986,-4.2986,-4.2986,-4.2986,-4.2986,-4.2986,-4.2986,-4.2986,-4.2986,-4.2986,-4.2986,-4.2986,-4.2986,-4.2986,-4.2986,-4.2986,-4.2986,-4.2986,-4.2986,-4.2986,-4.2986,-4.2986,-4.2986,-4.2986,-4.2986,-4.2986,-4.2986,-4.2986,-4.2986,-4.2986,-4.2986,-4.2986,-4.2986,-4.2986,-4.2986,-4.2986,-4.2986,-4.2986,-4.2986,-4.2986,-4.2986,-4.2986,-4.2986,-4.2986,-4.2986,-4.2986,-4.2986,-4.2986,-4.2986,-4.2986,-4.3129,-4.324,-4.324,-4.324,-4.3295,-4.3406,-4.3295,-4.324,-4.3598,-4.3708,-4.3738,-4.3899,-4.4064,-4.4203,-4.4148,-4.4203,-4.4367,-4.4531,-4.4613,-4.4668,-4.4668,-4.4668,-4.4668,-4.4668,-4.4668,-4.4668,-4.4668,-4.4668,-4.4668,-4.4668,-4.4668,-4.4668,-4.4668,-4.4668,-4.4668,-4.4668,-4.4668,-4.4668,-4.4668,-4.4668,-4.4668,-4.4668,-4.4668,-4.4668,-4.4668,-4.4668,-4.4668,-4.4668,-4.4668,-4.4668,-4.4668,-4.4668,-4.4559,-4.4313,-4.4559,-4.4585,-4.4313,-4.4094,-4.401,-4.3844,-4.3376,-4.3073,-4.2986,-4.2986,-4.2986,-4.2986,-4.2986,-4.2986,-4.2986,-4.2986,-4.2986,-4.2986,-4.2986,-4.2986,-4.2986,-4.2986,-4.2986,-4.2986,-4.2986,-4.2986,-4.2986,-4.2986,-4.2986,-4.2986,-4.2986,-4.2986,-4.2986,-4.2986,-4.2986,-4.2986,-4.2986,-4.2986,-4.2986,-4.2986,-4.2986,-4.2986,-4.2986,-4.2986,-4.2986,-4.2986,-4.2986,-4.2986,-4.2986,-4.2986,-4.2986,-4.2986,-4.2986,-4.2986,-4.2986,-4.2986,-4.2986,-4.2986,-4.2986,-4.2986,-4.2986,-4.2986,-4.3042,-4.3042,-4.3042,-4.3042,-4.3098,-4.3351,-4.3462,-4.3462,-4.3462,-4.3848,-4.4203,-4.401,-4.4258,-4.4531,-4.4064,-4.4094,-4.4313,-4.4313,-4.4531,-4.4668,-4.4668,-4.4668,-4.4668,-4.4668,-4.4668,-4.4668,-4.4668,-4.4668,-4.4668,-4.4668,-4.4668,-4.4668,-4.4668,-4.4668,-4.4668,-4.4668,-4.4668,-4.4668,-4.4668,-4.4668,-4.4668,-4.4668,-4.4668,-4.4668,-4.4668,-4.4668,-4.4668,-4.4668,-4.4668,-4.4668,-4.4668,-4.4668,-4.4559,-4.4367,-4.4559,-4.4559,-4.4313,-4.4313,-4.4148,-4.3899,-4.3517,-4.324,-4.3042,-4.3042,-4.2986,-4.2986,-4.2986,-4.2986,-4.2986,-4.2986,-4.2986,-4.2986,-4.2986,-4.2986,-4.2986,-4.2986,-4.2986,-4.2986,-4.2986,-4.2986,-4.2986,-4.2986,-4.2986,-4.2986,-4.2986,-4.2986,-4.2986,-4.2986,-4.2986,-4.2986,-4.2986,-4.2986,-4.2986,-4.2986,-4.2986,-4.2986,-4.2986,-4.2986,-4.2986,-4.2986,-4.2986,-4.2986,-4.2986,-4.2986,-4.2986,-4.2986,-4.2986,-4.2986,-4.2986,-4.2986,-4.2986,-4.2986,-4.2986,-4.2986,-4.2986,-4.2986,-4.3129,-4.3295,-4.3295,-4.3487,-4.3734,-4.3764,-4.3764,-4.3819,-4.4039,-4.4039,-4.4064,-4.4148,-4.4148,-4.4094,-4.4203,-4.4422,-4.4613,-4.4613,-4.4668,-4.4668,-4.4668,-4.4668,-4.4668,-4.4668,-4.4668,-4.4668,-4.4668,-4.4668,-4.4668,-4.4668,-4.4668,-4.4668,-4.4668,-4.4668,-4.4668,-4.4668,-4.4668,-4.4668,-4.4668,-4.4668,-4.4668,-4.4668,-4.4668,-4.4668,-4.4668,-4.4668,-4.4668,-4.4668,-4.4668,-4.4668,-4.4668,-4.4668,-4.4668,-4.4613,-4.4668,-4.4668,-4.4559,-4.4148,-4.4064,-4.4148,-4.3406,-4.3184,-4.3295,-4.3073,-4.2986,-4.2986,-4.2986,-4.2986,-4.2986,-4.3037,-4.2986,-4.2986,-4.2986,-4.2986,-4.2986,-4.2986,-4.2986,-4.2986,-4.2986,-4.2986,-4.2986,-4.2986,-4.2986,-4.2986,-4.2986,-4.2986,-4.2986,-4.2986,-4.2986,-4.2986,-4.2986,-4.2986,-4.2986,-4.2986,-4.2986,-4.2986,-4.2986,-4.2986,-4.2986,-4.2986,-4.2986,-4.2986,-4.2986,-4.2986,-4.2986,-4.2986,-4.2986,-4.2986,-4.2986,-4.2986,-4.2986,-4.2986,-4.2986,-4.2986,-4.3042,-4.3129,-4.3295,-4.3381,-4.3381,-4.3517,-4.3653,-4.3653,-4.3764,-4.3955,-4.4203,-4.4203,-4.4148,-4.4422,-4.4367,-4.4313,-4.4476,-4.4559,-4.4668,-4.4668,-4.4668,-4.4668,-4.4668,-4.4668,-4.4668,-4.4668,-4.4668,-4.4668,-4.4668,-4.4668,-4.4668,-4.4668,-4.4668,-4.4668,-4.4668,-4.4668,-4.4668,-4.4668,-4.4668,-4.4668,-4.4668,-4.4668,-4.4668,-4.4668,-4.4668,-4.4668,-4.4668,-4.4668,-4.4668,-4.4668,-4.4668,-4.4668,-4.4668,-4.4668,-4.4668,-4.4668,-4.4668,-4.4668,-4.4668,-4.4367,-4.4203,-4.4094,-4.3598,-4.3432,-4.3406,-4.3073,-4.3073,-4.3184,-4.3017,-4.2986,-4.2986,-4.3187,-4.3037,-4.2986,-4.2986,-4.2986,-4.2986,-4.2986,-4.2986,-4.2986,-4.2986,-4.2986,-4.2986,-4.2986,-4.2986,-4.2986,-4.2986,-4.2986,-4.2986,-4.2986,-4.2986,-4.2986,-4.2986,-4.2986,-4.2986,-4.2986,-4.2986,-4.2986,-4.2986,-4.2986,-4.2986,-4.2986,-4.2986,-4.2986,-4.2986,-4.2986,-4.2986,-4.2986,-4.2986,-4.2986,-4.2986,-4.2986,-4.2986,-4.2986,-4.2986,-4.2986,-4.3042,-4.324,-4.3406,-4.3381,-4.3381,-4.3462,-4.3462,-4.3462,-4.3708,-4.401,-4.4203,-4.4313,-4.4422,-4.4559,-4.4613,-4.4613,-4.4613,-4.4668,-4.4668,-4.4668,-4.4668,-4.4668,-4.4668,-4.4668,-4.4668,-4.4668,-4.4668,-4.4668,-4.4668,-4.4668,-4.4668,-4.4668,-4.4668,-4.4668,-4.4668,-4.4668,-4.4668,-4.4668,-4.4668,-4.4668,-4.4668,-4.4668,-4.4668,-4.4668,-4.4668,-4.4668,-4.4668,-4.4668,-4.4668,-4.4668,-4.4668,-4.4668,-4.4668,-4.4668,-4.4668,-4.4668,-4.4668,-4.4668,-4.4668,-4.4668,-4.4367,-4.3955,-4.3844,-4.3653,-4.3406,-4.3129,-4.3184,-4.3351,-4.3129,-4.3042,-4.2986,-4.3689,-4.3288,-4.2986,-4.2986,-4.2986,-4.2986,-4.2986,-4.2986,-4.2986,-4.2986,-4.2986,-4.2986,-4.2986,-4.2986,-4.2986,-4.2986,-4.2986,-4.2986,-4.2986,-4.2986,-4.2986,-4.2986,-4.2986,-4.2986,-4.2986,-4.2986,-4.2986,-4.2986,-4.2986,-4.2986,-4.2986,-4.2986,-4.2986,-4.2986,-4.2986,-4.2986,-4.2986,-4.2986,-4.2986,-4.2986,-4.2986,-4.2986,-4.2986,-4.2986,-4.2986,-4.3042,-4.3017,-4.3184,-4.3381,-4.3381,-4.3572,-4.3844,-4.3844,-4.3984,-4.4258,-4.4313,-4.4476,-4.4613,-4.4422,-4.4367,-4.4367,-4.4367,-4.4531,-4.4668,-4.4668,-4.4668,-4.4668,-4.4668,-4.4668,-4.4668,-4.4668,-4.4668,-4.4668,-4.4668,-4.4668,-4.4668,-4.4668,-4.4668,-4.4668,-4.4668,-4.4668,-4.4668,-4.4668,-4.4668,-4.4668,-4.4668,-4.4668,-4.4668,-4.4668,-4.4668,-4.4668,-4.4668,-4.4668,-4.4668,-4.4668,-4.4668,-4.4668,-4.4668,-4.4668,-4.4668,-4.4668,-4.4668,-4.4668,-4.4668,-4.4476,-4.4313,-4.4203,-4.3683,-4.3462,-4.3381,-4.3351,-4.324,-4.3073,-4.3295,-4.3184,-4.2986,-4.3915,-4.3589,-4.3313,-4.3037,-4.2986,-4.2986,-4.2986,-4.2986,-4.2986,-4.2986,-4.2986,-4.2986,-4.2986,-4.2986,-4.2986,-4.2986,-4.2986,-4.2986,-4.2986,-4.2986,-4.2986,-4.2986,-4.2986,-4.2986,-4.2986,-4.2986,-4.2986,-4.2986,-4.2986,-4.2986,-4.2986,-4.2986,-4.2986,-4.2986,-4.2986,-4.2986,-4.2986,-4.2986,-4.2986,-4.2986,-4.2986,-4.2986,-4.2986,-4.2986,-4.2986,-4.3042,-4.3129,-4.3295,-4.3381,-4.3381,-4.3517,-4.3653,-4.3653,-4.3819,-4.4094,-4.4258,-4.4476,-4.4668,-4.4585,-4.4531,-4.4531,-4.4531,-4.4613,-4.4668,-4.4668,-4.4668,-4.4668,-4.4668,-4.4668,-4.4668,-4.4668,-4.4668,-4.4668,-4.4668,-4.4668,-4.4668,-4.4668,-4.4668,-4.4668,-4.4668,-4.4668,-4.4668,-4.4668,-4.4668,-4.4668,-4.4668,-4.4668,-4.4668,-4.4668,-4.4668,-4.4668,-4.4668,-4.4668,-4.4668,-4.4668,-4.4668,-4.4668,-4.4668,-4.4668,-4.4668,-4.4668,-4.4668,-4.4668,-4.4668,-4.4559,-4.4367,-4.4039,-4.3929,-4.3819,-4.3653,-4.3462,-4.3406,-4.3432,-4.324,-4.3129,-4.2986,-4.4367,-4.3991,-4.3664,-4.3237,-4.3062,-4.2986,-4.2986,-4.2986,-4.2986,-4.2986,-4.2986,-4.2986,-4.2986,-4.2986,-4.2986,-4.2986,-4.2986,-4.2986,-4.2986,-4.2986,-4.2986,-4.2986,-4.2986,-4.2986,-4.2986,-4.2986,-4.2986,-4.2986,-4.2986,-4.2986,-4.2986,-4.2986,-4.2986,-4.2986,-4.2986,-4.2986,-4.2986,-4.2986,-4.2986,-4.2986,-4.2986,-4.2986,-4.2986,-4.2986,-4.2986,-4.3042,-4.3295,-4.3381,-4.3381,-4.3381,-4.3462,-4.3517,-4.3406,-4.3683,-4.4064,-4.4258,-4.4476,-4.4668,-4.4668,-4.4668,-4.4668,-4.4668,-4.4668,-4.4668,-4.4668,-4.4668,-4.4668,-4.4668,-4.4668,-4.4668,-4.4668,-4.4668,-4.4668,-4.4668,-4.4668,-4.4668,-4.4668,-4.4668,-4.4668,-4.4668,-4.4668,-4.4668,-4.4668,-4.4668,-4.4668,-4.4668,-4.4668,-4.4668,-4.4668,-4.4668,-4.4668,-4.4668,-4.4668,-4.4668,-4.4668,-4.4668,-4.4668,-4.4668,-4.4668,-4.4668,-4.4668,-4.4668,-4.4668,-4.4668,-4.4668,-4.4422,-4.3899,-4.4203,-4.4094,-4.3764,-4.3628,-4.3683,-4.3708,-4.3376,-4.3098,-4.2986,-4.5372,-4.4518,-4.379,-4.374,-4.3313,-4.2986,-4.2986,-4.2986,-4.2986,-4.2986,-4.2986,-4.2986,-4.2986,-4.2986,-4.2986,-4.2986,-4.2986,-4.2986,-4.2986,-4.2986,-4.2986,-4.2986,-4.2986,-4.2986,-4.2986,-4.2986,-4.2986,-4.2986,-4.2986,-4.2986,-4.2986,-4.2986,-4.2986,-4.2986,-4.2986,-4.2986,-4.2986,-4.2986,-4.2986,-4.2986,-4.2986,-4.2986,-4.2986,-4.2986,-4.2986,-4.3042,-4.3295,-4.3381,-4.3381,-4.3381,-4.3598,-4.3819,-4.3517,-4.3793,-4.4258,-4.4313,-4.4476,-4.4668,-4.4668,-4.4668,-4.4668,-4.4668,-4.4668,-4.4668,-4.4668,-4.4668,-4.4668,-4.4668,-4.4668,-4.4668,-4.4668,-4.4668,-4.4668,-4.4668,-4.4668,-4.4668,-4.4668,-4.4668,-4.4668,-4.4668,-4.4668,-4.4668,-4.4668,-4.4668,-4.4668,-4.4668,-4.4668,-4.4668,-4.4668,-4.4668,-4.4668,-4.4668,-4.4668,-4.4668,-4.4668,-4.4668,-4.4668,-4.4668,-4.4668,-4.4668,-4.4668,-4.4668,-4.4668,-4.4668,-4.4668,-4.4422,-4.3899,-4.4203,-4.3958,-4.3517,-4.4039,-4.3903,-4.3462,-4.3708,-4.3487,-4.2986,-4.5547,-4.5146,-4.4618,-4.3915,-4.3639,-4.3363,-4.3037,-4.2986,-4.2986,-4.2986,-4.2986,-4.2986,-4.2986,-4.2986,-4.2986,-4.2986,-4.2986,-4.2986,-4.2986,-4.2986,-4.2986,-4.2986,-4.2986,-4.2986,-4.2986,-4.2986,-4.2986,-4.2986,-4.2986,-4.2986,-4.2986,-4.2986,-4.2986,-4.2986,-4.2986,-4.2986,-4.2986,-4.2986,-4.2986,-4.3042,-4.3184,-4.3129,-4.3042,-4.3432,-4.3432,-4.3295,-4.3598,-4.3708,-4.3708,-4.3708,-4.3764,-4.3899,-4.3764,-4.3984,-4.4313,-4.4531,-4.4613,-4.4668,-4.4668,-4.4668,-4.4668,-4.4668,-4.4668,-4.4668,-4.4668,-4.4668,-4.4668,-4.4668,-4.4668,-4.4668,-4.4668,-4.4668,-4.4668,-4.4668,-4.4668,-4.4668,-4.4668,-4.4668,-4.4668,-4.4668,-4.4668,-4.4668,-4.4668,-4.4668,-4.4668,-4.4668,-4.4668,-4.4668,-4.4668,-4.4668,-4.4668,-4.4668,-4.4668,-4.4668,-4.4668,-4.4668,-4.4668,-4.4668,-4.4668,-4.4668,-4.4668,-4.4668,-4.4668,-4.4668,-4.4668,-4.4476,-4.4148,-4.4258,-4.4148,-4.3958,-4.4039,-4.3874,-4.3708,-4.3653,-4.3351,-4.2986,-4.5824,-4.5598,-4.5246,-4.4468,-4.4041,-4.3664,-4.3288,-4.3087,-4.2986,-4.2986,-4.2986,-4.2986,-4.2986,-4.2986,-4.2986,-4.2986,-4.2986,-4.2986,-4.2986,-4.3073,-4.3073,-4.2986,-4.2986,-4.2986,-4.2986,-4.2986,-4.2986,-4.2986,-4.2986,-4.2986,-4.2986,-4.2986,-4.2986,-4.2986,-4.2986,-4.2986,-4.2986,-4.2986,-4.2986,-4.3042,-4.3184,-4.3129,-4.3042,-4.3543,-4.3572,-4.3462,-4.3764,-4.3955,-4.401,-4.3955,-4.401,-4.4148,-4.4064,-4.4203,-4.4476,-4.4668,-4.4668,-4.4668,-4.4668,-4.4668,-4.4668,-4.4668,-4.4668,-4.4668,-4.4668,-4.4668,-4.4668,-4.4668,-4.4668,-4.4668,-4.4668,-4.4668,-4.4668,-4.4668,-4.4668,-4.4668,-4.4668,-4.4668,-4.4668,-4.4668,-4.4668,-4.4668,-4.4668,-4.4668,-4.4668,-4.4668,-4.4668,-4.4668,-4.4668,-4.4668,-4.4668,-4.4668,-4.4668,-4.4668,-4.4668,-4.4668,-4.4668,-4.4668,-4.4668,-4.4668,-4.4668,-4.4668,-4.4668,-4.4668,-4.4668,-4.4531,-4.4148,-4.4258,-4.4258,-4.4148,-4.4064,-4.3955,-4.3899,-4.3653,-4.3295,-4.2986,-4.6301,-4.5874,-4.5497,-4.5497,-4.4568,-4.3815,-4.3815,-4.3338,-4.2986,-4.2986,-4.2986,-4.2986,-4.2986,-4.2986,-4.2986,-4.2986,-4.2986,-4.2986,-4.2986,-4.324,-4.3295,-4.3042,-4.3042,-4.2986,-4.2986,-4.2986,-4.2986,-4.2986,-4.2986,-4.2986,-4.2986,-4.2986,-4.2986,-4.2986,-4.2986,-4.2986,-4.2986,-4.2986,-4.2986,-4.2986,-4.2986,-4.2986,-4.3042,-4.3295,-4.3381,-4.3462,-4.3764,-4.4064,-4.4258,-4.401,-4.4258,-4.4668,-4.4367,-4.4476,-4.4668,-4.4668,-4.4668,-4.4668,-4.4668,-4.4668,-4.4668,-4.4668,-4.4668,-4.4668,-4.4668,-4.4668,-4.4668,-4.4668,-4.4668,-4.4668,-4.4668,-4.4668,-4.4668,-4.4668,-4.4668,-4.4668,-4.4668,-4.4668,-4.4668,-4.4668,-4.4668,-4.4668,-4.4668,-4.4668,-4.4668,-4.4668,-4.4668,-4.4668,-4.4668,-4.4668,-4.4668,-4.4668,-4.4668,-4.4668,-4.4668,-4.4668,-4.4668,-4.4668,-4.4668,-4.4668,-4.4668,-4.4668,-4.4668,-4.4668,-4.4668,-4.4422,-4.3955,-4.4203,-4.4148,-4.3955,-4.4203,-4.4094,-4.3899,-4.3899,-4.3487,-4.2986,-4.6301,-4.6175,-4.5949,-4.5547,-4.5221,-4.4844,-4.4443,-4.3915,-4.3564,-4.3564,-4.3212,-4.2986,-4.2986,-4.2986,-4.2986,-4.2986,-4.2986,-4.2986,-4.2986,-4.3073,-4.3184,-4.3295,-4.3487,-4.3432,-4.3042,-4.3184,-4.3184,-4.2986,-4.2986,-4.2986,-4.2986,-4.2986,-4.2986,-4.2986,-4.2986,-4.2986,-4.2986,-4.2986,-4.2986,-4.3042,-4.3184,-4.3184,-4.3042,-4.3543,-4.3572,-4.3462,-4.3764,-4.3955,-4.401,-4.3955,-4.4094,-4.4422,-4.4585,-4.4613,-4.4668,-4.4668,-4.4668,-4.4668,-4.4668,-4.4668,-4.4668,-4.4668,-4.4668,-4.4668,-4.4668,-4.4668,-4.4668,-4.4668,-4.4668,-4.4668,-4.4668,-4.4668,-4.4668,-4.4668,-4.4668,-4.4668,-4.4668,-4.4668,-4.4668,-4.4668,-4.4668,-4.4668,-4.4668,-4.4668,-4.4668,-4.4668,-4.4668,-4.4668,-4.4668,-4.4668,-4.4668,-4.4668,-4.4668,-4.4668,-4.4668,-4.4668,-4.4668,-4.4668,-4.4668,-4.4668,-4.4668,-4.4668,-4.4668,-4.4668,-4.4668,-4.4613,-4.4422,-4.4148,-4.4064,-4.4148,-4.4064,-4.3819,-4.3572,-4.3819,-4.3487,-4.2986,-4.6301,-4.6301,-4.62,-4.5874,-4.5623,-4.5372,-4.502,-4.4493,-4.4141,-4.4141,-4.3639,-4.3313,-4.3313,-4.3112,-4.2986,-4.2986,-4.2986,-4.2986,-4.2986,-4.3073,-4.3184,-4.324,-4.3764,-4.3819,-4.3376,-4.3406,-4.3406,-4.3376,-4.3098,-4.3017,-4.3129,-4.3017,-4.3073,-4.3129,-4.3129,-4.3129,-4.3129,-4.3129,-4.3073,-4.3042,-4.3184,-4.3129,-4.3042,-4.3543,-4.3653,-4.3598,-4.3708,-4.3929,-4.4148,-4.3955,-4.4148,-4.4476,-4.4668,-4.4668,-4.4668,-4.4668,-4.4668,-4.4668,-4.4668,-4.4668,-4.4668,-4.4668,-4.4668,-4.4668,-4.4668,-4.4668,-4.4668,-4.4668,-4.4668,-4.4668,-4.4668,-4.4668,-4.4668,-4.4668,-4.4668,-4.4668,-4.4668,-4.4668,-4.4668,-4.4668,-4.4668,-4.4668,-4.4668,-4.4668,-4.4668,-4.4668,-4.4668,-4.4668,-4.4668,-4.4668,-4.4668,-4.4668,-4.4668,-4.4668,-4.4668,-4.4668,-4.4668,-4.4668,-4.4668,-4.4668,-4.4668,-4.4668,-4.4668,-4.4668,-4.4668,-4.4613,-4.4531,-4.4064,-4.401,-4.4094,-4.3955,-4.3708,-4.3462,-4.3764,-4.3487,-4.2986,-4.6301,-4.6301,-4.6301,-4.6301,-4.5899,-4.5573,-4.5573,-4.507,-4.4694,-4.4694,-4.4217,-4.3865,-4.3865,-4.3388,-4.3062,-4.3062,-4.3011,-4.2986,-4.2986,-4.324,-4.3295,-4.3017,-4.3819,-4.4148,-4.3955,-4.3628,-4.3628,-4.3899,-4.3321,-4.3184,-4.3462,-4.3184,-4.3184,-4.3462,-4.3462,-4.3462,-4.3462,-4.3462,-4.3295,-4.3098,-4.3042,-4.3042,-4.3073,-4.3295,-4.3572,-4.3844,-4.3517,-4.3958,-4.4559,-4.4119,-4.4258,-4.4668,-4.4668,-4.4668,-4.4668,-4.4668,-4.4668,-4.4668,-4.4668,-4.4668,-4.4668,-4.4668,-4.4668,-4.4668,-4.4668,-4.4668,-4.4668,-4.4668,-4.4668,-4.4668,-4.4668,-4.4668,-4.4668,-4.4668,-4.4668,-4.4668,-4.4668,-4.4668,-4.4668,-4.4668,-4.4668,-4.4668,-4.4668,-4.4668,-4.4668,-4.4668,-4.4668,-4.4668,-4.4668,-4.4668,-4.4668,-4.4668,-4.4668,-4.4668,-4.4668,-4.4668,-4.4668,-4.4668,-4.4668,-4.4668,-4.4668,-4.4668,-4.4668,-4.4668,-4.4668,-4.4559,-4.4313,-4.401,-4.3899,-4.3899,-4.3899,-4.3653,-4.3406,-4.3708,-4.3487,-4.2986,-4.6301,-4.6301,-4.6301,-4.6301,-4.62,-4.6125,-4.6125,-4.5648,-4.5296,-4.5296,-4.4794,-4.4443,-4.4443,-4.394,-4.3614,-4.3614,-4.3212,-4.2986,-4.2986,-4.3017,-4.3129,-4.3295,-4.3764,-4.4064,-4.4203,-4.4148,-4.4039,-4.3899,-4.3789,-4.3708,-4.3789,-4.3708,-4.3734,-4.3789,-4.3789,-4.3789,-4.3789,-4.3789,-4.3789,-4.3679,-4.3406,-4.3295,-4.3351,-4.3406,-4.3462,-4.3517,-4.3708,-4.3874,-4.4119,-4.4148,-4.4313,-4.4422,-4.4613,-4.4668,-4.4668,-4.4668,-4.4668,-4.4668,-4.4668,-4.4668,-4.4668,-4.4668,-4.4668,-4.4668,-4.4668,-4.4668,-4.4668,-4.4668,-4.4668,-4.4668,-4.4668,-4.4668,-4.4668,-4.4668,-4.4668,-4.4668,-4.4668,-4.4668,-4.4668,-4.4668,-4.4668,-4.4668,-4.4668,-4.4668,-4.4668,-4.4668,-4.4668,-4.4668,-4.4668,-4.4668,-4.4668,-4.4668,-4.4668,-4.4668,-4.4668,-4.4668,-4.4668,-4.4668,-4.4668,-4.4668,-4.4668,-4.4668,-4.4668,-4.4668,-4.4668,-4.4668,-4.4559,-4.4119,-4.3899,-4.3899,-4.3572,-4.3351,-4.3129,-4.3406,-4.3295,-4.2986,-4.6301,-4.6301,-4.6301,-4.6301,-4.6301,-4.6301,-4.6301,-4.6075,-4.5874,-4.5874,-4.5372,-4.5045,-4.5045,-4.4543,-4.4192,-4.4192,-4.3689,-4.3363,-4.3363,-4.3363,-4.3419,-4.3588,-4.4148,-4.4638,-4.4892,-4.5059,-4.4856,-4.4258,-4.4064,-4.3955,-4.4119,-4.3955,-4.3955,-4.4119,-4.4119,-4.4119,-4.4119,-4.4119,-4.401,-4.3899,-4.3708,-4.3653,-4.3653,-4.3653,-4.3708,-4.3848,-4.3874,-4.401,-4.4094,-4.4422,-4.4476,-4.4531,-4.4668,-4.4668,-4.4668,-4.4668,-4.4668,-4.4668,-4.4668,-4.4668,-4.4668,-4.4668,-4.4668,-4.4668,-4.4668,-4.4668,-4.4668,-4.4668,-4.4668,-4.4668,-4.4668,-4.4668,-4.4668,-4.4668,-4.4668,-4.4668,-4.4668,-4.4668,-4.4668,-4.4668,-4.4668,-4.4668,-4.4668,-4.4668,-4.4668,-4.4668,-4.4668,-4.4613,-4.4531,-4.4613,-4.4613,-4.4531,-4.4613,-4.4668,-4.4668,-4.4668,-4.4668,-4.4668,-4.4668,-4.4668,-4.4668,-4.4668,-4.4668,-4.4668,-4.4668,-4.4668,-4.4668,-4.4094,-4.3899,-4.3899,-4.3517,-4.324,-4.3042,-4.3295,-4.324,-4.2986,-4.6301,-4.6301,-4.6301,-4.6301,-4.6301,-4.6301,-4.6301,-4.6301,-4.6301,-4.6301,-4.5924,-4.5623,-4.5623,-4.5121,-4.4719,-4.4644,-4.4192,-4.394,-4.394,-4.394,-4.394,-4.394,-4.468,-4.5221,-4.5508,-4.585,-4.5641,-4.5036,-4.4568,-4.4458,-4.4652,-4.4403,-4.4403,-4.4652,-4.4597,-4.4546,-4.4442,-4.4442,-4.4252,-4.3899,-4.3899,-4.3899,-4.3844,-4.3955,-4.4039,-4.4148,-4.4039,-4.4148,-4.4422,-4.4613,-4.4668,-4.4668,-4.4668,-4.4668,-4.4668,-4.4668,-4.4668,-4.4668,-4.4668,-4.4668,-4.4668,-4.4668,-4.4668,-4.4668,-4.4668,-4.4668,-4.4668,-4.4668,-4.4668,-4.4668,-4.4668,-4.4668,-4.4668,-4.4668,-4.4668,-4.4668,-4.4668,-4.4668,-4.4668,-4.4668,-4.4668,-4.4668,-4.4668,-4.4668,-4.4668,-4.4668,-4.4668,-4.4613,-4.4367,-4.4559,-4.4559,-4.4313,-4.4559,-4.4668,-4.4613,-4.4668,-4.4668,-4.4668,-4.4668,-4.4668,-4.4668,-4.4668,-4.4668,-4.4668,-4.4668,-4.4668,-4.4668,-4.4094,-4.3899,-4.3844,-4.3462,-4.3184,-4.3042,-4.324,-4.3184,-4.2986,-4.6301,-4.6301,-4.6301,-4.6301,-4.6301,-4.6301,-4.6301,-4.6301,-4.6301,-4.6301,-4.625,-4.62,-4.62,-4.5698,-4.5171,-4.4669,-4.4543,-4.4518,-4.4518,-4.4518,-4.4518,-4.4518,-4.4882,-4.5106,-4.5164,-4.5711,-4.6087,-4.6238,-4.6182,-4.6182,-4.6182,-4.5901,-4.5901,-4.6182,-4.5901,-4.5503,-4.5093,-4.5093,-4.4613,-4.3899,-4.3899,-4.3708,-4.3517,-4.4039,-4.3958,-4.3628,-4.4341,-4.4613,-4.4668,-4.4668,-4.4668,-4.4668,-4.4668,-4.4668,-4.4668,-4.4668,-4.4668,-4.4668,-4.4668,-4.4668,-4.4668,-4.4668,-4.4668,-4.4668,-4.4668,-4.4668,-4.4668,-4.4668,-4.4668,-4.4668,-4.4668,-4.4668,-4.4668,-4.4668,-4.4668,-4.4668,-4.4668,-4.4668,-4.4668,-4.4668,-4.4668,-4.4668,-4.4668,-4.4668,-4.4668,-4.4668,-4.4668,-4.4668,-4.4668,-4.4668,-4.4559,-4.4313,-4.4559,-4.4559,-4.4367,-4.4559,-4.4668,-4.4668,-4.4668,-4.4668,-4.4668,-4.4668,-4.4668,-4.4668,-4.4668,-4.4668,-4.4668,-4.4094,-4.3899,-4.3844,-4.3265,-4.3042,-4.2986,-4.3042,-4.3042,-4.2986,-4.6301,-4.6301,-4.6301,-4.6301,-4.6301,-4.6301,-4.6301,-4.6301,-4.6301,-4.6301,-4.6301,-4.6301,-4.6301,-4.6279,-4.6027,-4.5598,-4.5389,-4.5271,-4.5095,-4.5095,-4.5095,-4.5095,-4.5515,-4.5868,-4.6045,-4.628,-4.6688,-4.7184,-4.673,-4.6417,-4.6247,-4.6052,-4.5995,-4.5938,-4.5768,-4.5582,-4.5381,-4.5381,-4.514,-4.4796,-4.4796,-4.4505,-4.4168,-4.4416,-4.4156,-4.3764,-4.4313,-4.4559,-4.4668,-4.4668,-4.4668,-4.4668,-4.4668,-4.4668,-4.4668,-4.4668,-4.4668,-4.4668,-4.4668,-4.4668,-4.4668,-4.4668,-4.4668,-4.4668,-4.4668,-4.4668,-4.4668,-4.4668,-4.4668,-4.4668,-4.4668,-4.4668,-4.4668,-4.4668,-4.4668,-4.4668,-4.4668,-4.4668,-4.4668,-4.4668,-4.4668,-4.4668,-4.4668,-4.4668,-4.4668,-4.4668,-4.4668,-4.4613,-4.4476,-4.4613,-4.4531,-4.4119,-4.4367,-4.4367,-4.4064,-4.4203,-4.4258,-4.4258,-4.4258,-4.4422,-4.4668,-4.4668,-4.4668,-4.4668,-4.4668,-4.4613,-4.4476,-4.4064,-4.3789,-4.3598,-4.3154,-4.2986,-4.2986,-4.2986,-4.2986,-4.2986]},{"header":{"parameterUnit":"m.s-1","parameterCategory":1,"la1":30.6,"la2":28.766,"lo1":-90.7593,"lo2":-88.6598,"dy":0.0162,"dx":0.0183,"nx":116,"ny":114,"refTime":"2023-03-25T00:00:00:Z","depth":0,"parameterNumber":3,"parameterNumberName":"V-component_of_WINDS"},"data":[0.0,0.0,0.0,0.0,0.0,0.0,0.0,0.0,0.0,0.0,0.0,0.0,0.0,0.0,0.0,0.0,0.0,0.0,0.0,0.0,0.0,0.0,0.0,0.0,0.0,0.0,0.0,0.0,0.0,0.0,0.0,0.0,0.0,0.0,0.0,0.0,0.0,0.0,0.0,0.0,0.0,0.0,0.0,0.0,0.0,0.0,0.0,0.0,0.0,0.0,0.0,0.0,0.0,0.0,0.0,0.0,0.0,0.0,0.0,0.0,0.0,0.0,0.0,0.0,0.0,0.0,0.0,0.0,0.0,0.0,0.0,0.0,0.0,0.0,0.0,0.0,0.0,0.0,0.0,0.0,0.0,0.0,0.0,0.0,0.0,0.0,0.0,0.0,0.0,0.0,0.0,0.0,0.0,0.0,0.0,0.0,0.0,0.0,0.0,0.0,0.0,0.0,0.0,0.0,0.0,0.0,0.0,0.0,0.0,0.0,0.0,0.0,0.0,0.0,0.0,0.0,0.0,0.0,0.0,0.0,0.0,0.0,0.0,0.0,0.0,0.0,0.0,0.0,0.0,0.0,0.0,0.0,0.0,0.0,0.0,0.0,0.0,0.0,0.0,0.0,0.0,0.0,0.0,0.0,0.0,0.0,0.0,0.0,0.0,0.0,0.0,0.0,0.0,0.0,0.0,0.0,0.0,0.0,0.0,0.0,0.0,0.0,0.0,0.0,0.0,0.0,0.0,0.0,0.0,0.0,0.0,0.0,0.0,0.0,0.0,0.0,0.0,0.0,0.0,0.0,0.0,0.0,0.0,0.0,0.0,0.0,0.0,0.0,0.0,0.0,0.0,0.0,0.0,0.0,0.0,0.0,0.0,0.0,0.0,0.0,0.0,0.0,0.0,0.0,0.0,0.0,0.0,0.0,0.0,0.0,0.0,0.0,0.0,0.0,0.0,0.0,0.0,0.0,0.0,0.0,0.0,0.0,0.0,0.0,0.0,0.0,0.0,0.0,0.0,0.0,0.0,0.0,0.0,0.0,0.0,0.0,0.0,0.0,0.0,0.0,0.0,0.0,0.0,0.0,0.0,0.0,0.0,0.0,0.0,0.0,0.0,0.0,0.0,0.0,0.0,0.0,0.0,0.0,0.0,0.0,0.0,0.0,0.0,0.0,0.0,0.0,0.0,0.0,0.0,0.0,0.0,0.0,0.0,0.0,0.0,0.0,0.0,0.0,0.0,0.0,0.0,0.0,0.0,0.0,0.0,0.0,0.0,0.0,0.0,0.0,0.0,0.0,0.0,0.0,0.0,0.0,0.0,0.0,0.0,0.0,0.0,0.0,0.0,0.0,0.0,0.0,0.0,0.0,0.0,0.0,0.0,0.0,0.0,0.0,0.0,0.0,0.0,0.0,0.0,0.0,0.0,0.0,0.0,0.0,0.0,0.0,0.0,0.0,0.0,0.0,0.0,0.0,0.0,0.0,0.0,0.0,0.0,0.0,0.0,0.0,0.0,0.0,0.0,0.0,0.0,0.0,0.0,0.0,0.0,0.0,0.0,0.0,0.0,0.0,0.0,0.0,0.0,0.0,0.0,0.0,0.0,0.0,0.0,0.0,0.0,0.0,0.0,0.0,0.0,0.0,0.0,0.0,0.0,0.0,0.0,0.0,0.0,0.0,0.0,0.0,0.0,0.0,0.0,0.0,0.0,0.0,0.0,0.0,0.0,0.0,0.0,0.0,0.0,0.0,0.0,0.0,0.0,0.0,0.0,0.0,0.0,0.0,0.0,0.0,0.0,0.0,0.0,0.0,0.0,0.0,0.0,0.0,0.0,0.0,0.0,0.0,0.0,0.0,0.0,0.0,0.0,0.0,0.0,0.0,0.0,0.0,0.0,0.0,0.0,0.0,0.0,0.0,0.0,0.0,0.0,0.0,0.0,0.0,0.0,0.0,0.0,0.0,0.0,0.0,0.0,0.0,0.0,0.0,0.0,0.0,0.0,0.0,0.0,0.0,0.0,0.0,0.0,0.0,0.0,0.0,0.0,0.0,0.0,0.0,0.0,0.0,0.0,0.0,0.0,0.0,0.0,0.0,0.0,0.0,0.0,0.0,0.0,0.0,0.0,0.0,0.0,0.0,0.0,0.0,0.0,0.0,0.0,0.0,0.0,0.0,0.0,0.0,0.0,0.0,0.0,0.0,0.0,0.0,0.0,0.0,0.0,0.0,0.0,0.0,0.0,0.0,0.0,0.0,0.0,0.0,0.0,0.0,0.0,0.0,0.0,0.0,0.0,0.0,0.0,0.0,0.0,0.0,0.0,0.0,0.0,0.0,0.0,0.0,0.0,0.0,0.0,0.0,0.0,0.0,0.0,0.0,0.0,0.0,0.0,0.0,0.0,0.0,0.0,0.0,0.0,0.0,0.0,0.0,0.0,0.0,0.0,0.0,0.0,0.0,0.0,0.0,0.0,0.0,0.0,0.0,0.0,0.0,0.0,0.0,0.0,0.0,0.0,0.0,0.0,0.0,0.0,0.0,0.0,0.0,0.0,0.0,0.0,0.0,0.0,0.0,0.0,0.0,0.0,0.0,0.0,0.0,0.0,0.0,0.0,0.0,0.0,0.0,0.0,0.0,0.0,0.0,0.0,0.0,0.0,0.0,0.0,0.0,0.0,0.0,0.0,0.0,0.0,0.0,0.0,0.0,0.0,0.0,0.0,0.0,0.0,0.0,0.0,0.0,0.0,0.0,0.0,0.0,0.0,0.0,0.0,0.0,0.0,0.0,0.0,0.0,0.0,0.0,0.0,0.0,0.0,0.0,0.0,0.0,0.0,0.0,0.0,0.0,0.0,0.0,0.0,0.0,0.0,0.0,0.0,0.0,0.0,0.0,0.0,0.0,0.0,0.0,0.0,0.0,0.0,0.0,0.0,0.0,0.0,0.0,0.0,0.0,0.0,0.0,0.0,0.0,0.0,0.0,0.0,0.0,0.0,0.0,0.0,0.0,0.0,0.0,0.0,0.0,0.0,0.0,0.0,0.0,0.0,0.0,0.0,0.0,0.0,0.0,0.0,0.0,0.0,0.0,0.0,0.0,0.0,0.0,0.0,0.0,0.0,0.0,0.0,0.0,0.0,0.0,0.0,0.0,0.0,0.0,0.0,0.0,0.0,0.0,0.0,0.0,0.0,0.0,0.0,0.0,0.0,0.0,0.0,0.0,0.0,0.0,0.0,0.0,0.0,0.0,0.0,0.0,0.0,0.0,0.0,0.0,0.0,0.0,0.0,0.0,0.0,0.0,0.0,0.0,0.0,0.0,0.0,0.0,0.0,0.0,0.0,0.0,0.0,0.0,0.0,0.0,0.0,0.0,0.0,0.0,0.0,0.0,0.0,0.0,0.0,0.0,0.0,0.0,0.0,0.0,0.0,0.0,0.0,0.0,0.0,0.0,0.0,0.0,0.0,0.0,0.0,0.0,0.0,0.0,0.0,0.0,0.0,0.0,0.0,0.0,0.0,0.0,0.0,0.0,0.0,0.0,0.0,0.0,0.0,0.0,0.0,0.0,0.0,0.0,0.0,0.0,0.0,0.0,0.0,0.0,0.0,0.0,0.0,0.0,0.0,0.0,0.0,0.0,0.0,0.0,0.0,0.0,0.0,0.0,0.0,0.0,0.0,0.0,0.0,0.0,0.0,0.0,0.0,0.0,0.0,0.0,0.0,0.0,0.0,0.0,0.0,0.0,0.0,0.0,0.0,0.0,0.0,0.0,0.0,0.0,0.0,0.0,0.0,0.0,0.0,0.0,0.0,0.0,0.0,0.0,0.0,0.0,0.0,0.0,0.0,0.0,0.0,0.0,0.0,0.0,0.0,0.0,0.0,0.0,0.0,0.0,0.0,0.0,0.0,0.0,0.0,0.0,0.0,0.0,0.0,0.0,0.0,0.0,0.0,0.0,0.0,0.0,0.0,0.0,0.0,0.0,0.0,0.0,0.0,0.0,0.0,0.0,0.0,0.0,0.0,0.0,0.0,0.0,0.0,0.0,0.0,0.0,0.0,0.0,0.0,0.0,0.0,0.0,0.0,0.0,0.0,0.0,0.0,0.0,0.0,0.0,0.0,0.0,0.0,0.0,0.0,0.0,0.0,0.0,0.0,0.0,0.0,0.0,0.0,0.0,0.0,0.0,0.0,0.0,0.0,0.0,0.0,0.0,0.0,0.0,0.0,0.0,0.0,0.0,0.0,0.0,0.0,0.0,0.0,0.0,0.0,0.0,0.0,0.0,0.0,0.0,0.0,0.0,0.0,0.0,0.0,0.0,0.0,0.0,0.0,0.0,0.0,0.0,0.0,0.0,0.0,0.0,0.0,0.0,0.0,0.0,0.0,0.0,0.0,0.0,0.0,0.0,0.0,0.0,0.0,0.0,0.0,0.0,0.0,0.0,0.0,0.0,0.0,0.0,0.0,0.0,0.0,0.0,0.0,0.0,0.0,0.0,0.0,0.0,0.0,0.0,0.0,0.0,0.0,0.0,0.0,0.0,0.0,0.0,0.0,0.0,0.0,0.0,0.0,0.0,0.0,0.0,0.0,0.0,0.0,0.0,0.0,0.0,0.0,0.0,0.0,0.0,0.0,0.0,0.0,0.0,0.0,0.0,0.0,0.0,0.0,0.0,0.0,0.0,0.0,0.0,0.0,0.0,0.0,0.0,0.0,0.0,0.0,0.0,0.0,0.0,0.0,0.0,0.0,0.0,0.0,0.0,0.0,0.0,0.0,0.0,0.0,0.0,0.0,0.0,0.0,0.0,0.0,0.0,0.0,0.0,0.0,0.0,0.0,0.0,0.0,0.0,0.0,0.0,0.0,0.0,0.0,0.0,0.0,0.0,0.0,0.0,0.0,0.0,0.0,0.0,0.0,0.0,0.0,0.0,0.0,0.0,0.0,0.0,0.0,0.0,0.0,0.0,0.0,0.0,0.0,0.0,0.0,0.0,0.0,0.0,0.0,0.0,0.0,0.0,0.0,0.0,0.0,0.0,0.0,0.0,0.0,0.0,0.0,0.0,0.0,0.0,0.0,0.0,0.0,0.0,0.0,0.0,0.0,0.0,0.0,0.0,0.0,0.0,0.0,0.0,0.0,0.0,0.0,0.0,0.0,0.0,0.0,0.0,0.0,0.0,0.0,0.0,0.0,0.0,0.0,0.0,0.0,0.0,0.0,0.0,0.0,0.0,0.0,0.0,0.0,0.0,0.0,0.0,0.0,0.0,0.0,0.0,0.0,0.0,0.0,0.0,0.0,0.0,0.0,0.0,0.0,0.0,0.0,0.0,0.0,0.0,0.0,0.0,0.0,0.0,0.0,0.0,0.0,0.0,0.0,0.0,0.0,0.0,0.0,0.0,0.0,0.0,0.0,0.0,0.0,0.0,0.0,0.0,0.0,0.0,0.0,0.0,0.0,0.0,0.0,0.0,0.0,0.0,0.0,0.0,0.0,0.0,0.0,0.0,0.0,0.0,0.0,0.0,0.0,0.0,0.0,0.0,0.0,0.0,0.0,0.0,0.0,0.0,0.0,0.0,0.0,0.0,0.0,0.0,0.0,0.0,0.0,0.0,0.0,0.0,0.0,0.0,0.0,0.0,0.0,0.0,0.0,0.0,0.0,0.0,0.0,0.0,0.0,0.0,0.0,0.0,0.0,0.0,0.0,0.0,0.0,0.0,0.0,0.0,0.0,0.0,0.0,0.0,0.0,0.0,0.0,0.0,0.0,0.0,0.0,0.0,0.0,0.0,0.0,0.0,0.0,0.0,0.0,0.0,0.0,0.0,0.0,0.0,0.0,0.0,0.0,0.0,0.0,0.0,0.0,0.0,0.0,0.0,0.0,0.0,0.0,0.0,0.0,0.0,0.0,0.0,0.0,0.0,0.0,0.0,0.0,0.0,0.0,0.0,0.0,0.0,0.0,0.0,0.0,0.0,0.0,0.0,0.0,0.0,0.0,0.0,0.0,0.0,0.0,0.0,0.0,0.0,0.0,0.0,0.0,0.0,0.0,0.0,0.0,0.0,0.0,0.0,0.0,0.0,0.0,0.0,0.0,0.0,0.0,0.0,0.0,0.0,4.1819,4.1123,0.0,0.0,0.0,0.0,0.0,0.0,0.0,0.0,0.0,0.0,0.0,0.0,0.0,0.0,0.0,0.0,0.0,0.0,0.0,0.0,0.0,0.0,0.0,0.0,0.0,0.0,0.0,0.0,0.0,0.0,0.0,0.0,0.0,0.0,0.0,0.0,0.0,0.0,4.7712,4.7712,4.7177,4.6556,4.6294,4.6242,0.0,0.0,0.0,0.0,0.0,0.0,0.0,0.0,0.0,0.0,0.0,0.0,0.0,0.0,0.0,0.0,0.0,0.0,0.0,0.0,0.0,0.0,0.0,0.0,0.0,0.0,0.0,0.0,0.0,0.0,0.0,0.0,0.0,0.0,0.0,0.0,0.0,0.0,0.0,0.0,0.0,0.0,0.0,0.0,0.0,0.0,0.0,0.0,0.0,0.0,0.0,0.0,0.0,0.0,0.0,0.0,0.0,0.0,0.0,0.0,0.0,0.0,0.0,0.0,0.0,0.0,0.0,0.0,0.0,0.0,4.3177,4.2722,0.0,0.0,0.0,0.0,0.0,0.0,0.0,0.0,0.0,0.0,0.0,0.0,0.0,0.0,0.0,0.0,0.0,0.0,0.0,0.0,0.0,0.0,0.0,0.0,4.3073,4.3295,4.3406,4.3628,0.0,0.0,0.0,0.0,0.0,0.0,0.0,4.774,4.8296,4.8296,4.8296,4.8368,4.8518,4.8396,4.8396,4.8468,4.7229,0.0,0.0,0.0,0.0,0.0,0.0,0.0,0.0,0.0,0.0,0.0,0.0,0.0,0.0,0.0,0.0,0.0,0.0,0.0,0.0,0.0,0.0,0.0,0.0,0.0,0.0,0.0,0.0,0.0,0.0,0.0,0.0,0.0,0.0,0.0,0.0,0.0,0.0,0.0,0.0,0.0,0.0,0.0,0.0,0.0,0.0,0.0,0.0,0.0,0.0,0.0,0.0,0.0,0.0,0.0,0.0,0.0,0.0,0.0,0.0,0.0,0.0,0.0,4.473,4.4823,4.4823,4.4823,4.4823,4.4823,4.4823,4.4638,4.4266,4.3416,0.0,0.0,0.0,0.0,0.0,0.0,0.0,0.0,0.0,0.0,0.0,0.0,0.0,0.0,0.0,0.0,0.0,0.0,0.0,0.0,0.0,4.2986,4.3042,4.3017,4.4344,4.5182,0.0,0.0,0.0,0.0,0.0,0.0,4.7763,4.8844,4.9415,4.9415,4.9415,4.9854,5.0775,4.9805,4.9902,5.0698,4.8696,4.7763,4.7763,0.0,0.0,0.0,0.0,0.0,0.0,0.0,0.0,0.0,0.0,0.0,0.0,0.0,0.0,0.0,0.0,0.0,0.0,0.0,0.0,0.0,0.0,0.0,0.0,0.0,0.0,0.0,0.0,0.0,0.0,0.0,0.0,0.0,0.0,0.0,0.0,0.0,0.0,0.0,0.0,0.0,4.4397,4.4312,0.0,0.0,0.0,0.0,0.0,0.0,0.0,0.0,0.0,0.0,0.0,0.0,0.0,4.4312,4.4312,4.519,4.5598,4.5598,4.6506,4.6887,4.6887,4.6887,4.6887,4.6887,4.6887,0.0,4.4312,4.4172,0.0,0.0,0.0,0.0,0.0,0.0,0.0,0.0,0.0,0.0,0.0,0.0,0.0,0.0,0.0,0.0,0.0,0.0,0.0,0.0,0.0,4.3406,4.3572,4.4993,4.5182,4.5635,4.6608,4.7355,0.0,0.0,0.0,4.8894,4.8894,4.995,5.0508,5.0508,5.0508,5.0728,5.1182,5.0728,5.0775,5.1182,5.0191,4.9435,4.8844,4.8267,0.0,0.0,0.0,0.0,0.0,0.0,0.0,0.0,0.0,0.0,0.0,0.0,0.0,0.0,0.0,0.0,0.0,0.0,0.0,0.0,0.0,0.0,0.0,0.0,0.0,0.0,0.0,0.0,0.0,0.0,0.0,0.0,0.0,0.0,0.0,0.0,0.0,0.0,0.0,4.7095,4.6395,4.6046,4.5987,4.5987,0.0,0.0,0.0,0.0,0.0,0.0,0.0,0.0,0.0,4.5987,4.5987,4.5987,4.5987,4.6417,4.6638,4.6638,4.7062,4.7309,4.7309,4.7309,4.7309,4.7309,4.7309,4.68,4.5943,4.5372,4.5144,4.5098,0.0,0.0,0.0,0.0,4.5144,4.5235,0.0,0.0,0.0,0.0,0.0,0.0,0.0,0.0,0.0,0.0,0.0,0.0,4.4615,4.4206,4.4615,4.6503,4.6215,4.6528,4.7791,4.8267,0.0,0.0,4.9611,5.0028,5.0028,5.0775,5.1229,5.1229,5.1229,5.1229,5.1229,5.1229,5.1229,5.1229,5.1229,5.0775,4.9979,4.9141,4.8844,0.0,0.0,0.0,0.0,0.0,0.0,0.0,0.0,0.0,0.0,0.0,0.0,0.0,0.0,0.0,0.0,0.0,0.0,0.0,0.0,0.0,0.0,0.0,0.0,0.0,0.0,0.0,0.0,0.0,0.0,0.0,0.0,0.0,0.0,0.0,0.0,0.0,0.0,4.8686,4.8027,4.7369,4.7309,4.7309,0.0,0.0,0.0,0.0,0.0,0.0,4.7309,4.7309,4.7309,4.7309,4.7309,4.7309,4.7309,4.7309,4.7309,4.7309,4.7309,4.7309,4.7309,4.7309,4.7309,4.7309,4.7309,4.7309,4.7266,4.6506,4.6166,4.6121,4.5372,4.5052,4.5144,4.5943,4.6166,4.6299,0.0,0.0,0.0,0.0,0.0,0.0,0.0,0.0,0.0,0.0,0.0,4.4615,4.467,4.5555,4.6162,4.6319,4.7712,4.8646,4.8745,5.0143,5.1011,5.1011,5.1058,5.1135,5.1135,5.1182,5.1229,5.1229,5.1229,5.1229,5.1229,5.1229,5.1229,5.1229,5.1229,5.1182,5.1135,5.1058,5.1011,5.1011,0.0,0.0,0.0,0.0,0.0,0.0,0.0,0.0,0.0,0.0,0.0,0.0,0.0,0.0,0.0,0.0,0.0,0.0,0.0,0.0,0.0,0.0,0.0,0.0,0.0,0.0,0.0,0.0,0.0,0.0,0.0,0.0,0.0,0.0,0.0,0.0,0.0,0.0,0.0,4.7369,4.7309,0.0,0.0,0.0,0.0,4.7309,4.7309,4.7309,4.7309,4.7309,4.7309,4.7309,4.7309,4.7309,4.7309,4.7309,4.7309,4.7309,4.7309,4.7309,4.7309,4.7309,4.7309,4.7309,4.7309,4.7309,4.7309,4.7266,4.7222,4.7222,4.7149,4.7179,4.7179,4.7222,4.7222,4.7222,0.0,0.0,0.0,0.0,0.0,0.0,0.0,0.0,4.324,4.3987,4.4479,4.5262,4.666,4.6503,4.6892,4.8374,4.8646,4.912,4.9863,5.0728,5.1229,5.1229,5.1229,5.1229,5.1229,5.1229,5.1229,5.1229,5.1229,5.1229,5.1229,5.1229,5.1229,5.1229,5.1229,5.1229,5.1229,5.1229,5.1229,5.1229,5.1229,5.1229,0.0,0.0,0.0,0.0,0.0,0.0,0.0,0.0,0.0,0.0,0.0,0.0,0.0,0.0,0.0,0.0,0.0,0.0,0.0,0.0,0.0,0.0,0.0,0.0,0.0,0.0,0.0,0.0,0.0,0.0,0.0,0.0,0.0,0.0,0.0,0.0,0.0,4.7429,4.7309,0.0,4.7309,4.7309,4.7309,4.7309,4.7309,4.7309,4.7309,4.7309,4.7309,4.7309,4.7309,4.7309,4.7309,4.7309,4.7309,4.7309,4.7309,4.7309,4.7309,4.7309,4.7309,4.7309,4.7309,4.7309,4.7309,4.7309,4.7309,4.7309,4.7309,4.7309,4.7309,4.7309,4.7309,4.7309,0.0,0.0,0.0,0.0,0.0,0.0,0.0,0.0,4.3406,4.4561,4.5047,4.5926,4.7819,4.7689,4.8044,4.9571,4.9395,4.9542,5.0357,5.0805,5.1058,5.1058,5.1152,5.1229,5.1229,5.1229,5.1229,5.1229,5.1229,5.1229,5.1229,5.1229,5.1229,5.1229,5.1229,5.1229,5.1229,5.1229,5.1229,5.1229,5.1229,5.1229,5.1229,0.0,0.0,0.0,0.0,0.0,0.0,0.0,0.0,0.0,0.0,0.0,0.0,0.0,0.0,0.0,0.0,0.0,0.0,0.0,0.0,0.0,0.0,0.0,0.0,0.0,0.0,0.0,0.0,0.0,0.0,0.0,0.0,0.0,0.0,4.9299,4.882,4.7459,4.7309,4.7309,4.7309,4.7309,4.7409,4.7709,4.7752,4.7849,4.8115,4.7892,4.7752,4.7752,4.7452,4.7309,4.7309,4.7309,4.7309,4.7309,4.7309,4.7309,4.7309,4.7309,4.7309,4.7309,4.7309,4.7309,4.7309,4.7309,4.7309,4.7309,4.7309,4.7309,4.7309,4.7309,4.7309,4.7309,0.0,0.0,0.0,0.0,0.0,0.0,0.0,4.2986,4.3406,4.4615,4.5661,4.6764,4.792,4.905,4.9717,4.9717,4.9941,5.0086,5.0086,5.0537,5.0793,5.0793,5.1058,5.1229,5.1229,5.1229,5.1229,5.1229,5.1229,5.1229,5.1229,5.1229,5.1229,5.1229,5.1229,5.1229,5.1229,5.1229,5.1229,5.1229,5.1229,5.1229,5.1229,0.0,0.0,0.0,0.0,0.0,0.0,0.0,0.0,0.0,0.0,0.0,0.0,0.0,0.0,0.0,0.0,0.0,0.0,0.0,0.0,0.0,0.0,0.0,0.0,0.0,0.0,0.0,0.0,0.0,0.0,0.0,0.0,0.0,4.9479,4.9299,4.882,4.7502,4.7352,4.7396,4.7396,4.7396,4.7752,4.8573,4.8656,4.8994,4.9765,4.9075,4.8656,4.8615,4.7764,4.7352,4.7339,4.7339,4.7339,4.7369,4.7369,4.7369,4.7339,4.7339,4.7339,4.7309,4.7309,4.7309,4.7309,4.7309,4.7309,4.7309,4.7309,4.7309,4.7309,4.7309,4.7309,4.7309,0.0,0.0,0.0,0.0,0.0,0.0,0.0,4.2986,4.3657,4.5608,4.611,4.7074,4.9001,4.9522,4.9717,4.9717,4.9941,5.0086,5.0086,5.0375,5.0662,5.0793,5.1058,5.1229,5.1229,5.1229,5.1229,5.1229,5.1229,5.1229,5.1229,5.1229,5.1229,5.1229,5.1229,5.1229,5.1229,5.1229,5.1229,5.1229,5.1229,5.1229,5.1229,0.0,0.0,0.0,0.0,0.0,0.0,0.0,0.0,0.0,0.0,0.0,0.0,0.0,0.0,0.0,0.0,0.0,0.0,0.0,0.0,0.0,0.0,0.0,0.0,0.0,0.0,0.0,0.0,0.0,0.0,0.0,5.22,5.1546,4.9569,4.9805,4.9695,4.8424,4.8749,4.9116,4.9116,4.9116,4.9206,4.9447,4.9447,4.9567,4.9765,4.9567,4.9197,4.8615,4.8366,4.8177,4.8027,4.8027,4.8267,4.876,4.876,4.8476,4.8027,4.8027,4.7758,4.7309,4.7309,4.7309,4.7309,4.7309,4.7309,4.7309,4.7309,4.7309,4.7309,4.7309,4.7309,4.7309,0.0,0.0,0.0,0.0,0.0,0.0,0.0,4.2986,4.3602,4.5395,4.5608,4.6503,4.8753,4.9001,4.9149,4.9669,4.9815,4.9941,4.9941,5.0279,5.0567,5.0793,5.1058,5.1229,5.1229,5.1229,5.1229,5.1229,5.1229,5.1229,5.1229,5.1229,5.1229,5.1229,5.1229,5.1229,5.1229,5.1229,5.1229,5.1229,5.1229,5.1229,5.1229,5.1229,5.1229,5.1229,5.1229,5.1229,5.1229,5.1229,0.0,0.0,0.0,0.0,0.0,0.0,0.0,0.0,0.0,0.0,0.0,0.0,0.0,0.0,0.0,0.0,0.0,0.0,0.0,0.0,0.0,0.0,0.0,0.0,5.3196,5.251,5.066,5.0789,5.06,4.9272,4.9527,4.9805,4.9805,4.9805,4.9962,5.0345,5.0345,5.0499,5.0843,5.0538,5.0151,4.9678,4.9278,4.9058,4.8948,4.8948,4.909,4.953,4.953,4.9469,4.9377,4.8949,4.8745,4.8667,4.8293,4.8117,4.8117,4.7818,4.7728,4.7698,0.0,0.0,0.0,0.0,4.7309,4.7309,0.0,0.0,0.0,0.0,0.0,0.0,0.0,4.2986,4.3406,4.4561,4.467,4.5502,4.7615,4.792,4.8374,4.9424,4.962,4.9717,4.9717,5.0183,5.0519,5.0728,5.0964,5.1135,5.1152,5.1152,5.1182,5.1229,5.1229,5.1229,5.1229,5.1229,5.1229,5.1229,5.1229,5.1229,5.1229,5.1229,5.1229,5.1229,5.1229,5.1229,5.1229,5.1229,5.1229,5.1229,5.1229,5.1229,5.1229,5.1229,0.0,0.0,0.0,0.0,0.0,0.0,0.0,0.0,0.0,0.0,0.0,0.0,0.0,0.0,0.0,0.0,0.0,0.0,0.0,0.0,0.0,0.0,0.0,0.0,5.4084,5.3618,5.2368,5.2114,5.1533,5.0121,5.0041,5.008,5.008,5.008,5.0422,5.1177,5.1247,5.1582,5.2338,5.1688,0.0,0.0,0.0,4.9947,4.9931,4.9931,4.9963,5.0058,5.0058,5.0342,5.0848,5.0061,4.992,5.0328,4.9654,4.9269,4.9179,4.864,4.8386,4.8327,4.7578,4.7309,4.7309,4.7309,4.7309,4.7309,0.0,0.0,0.0,0.0,0.0,0.0,0.0,4.2986,4.3406,4.4561,4.467,4.5182,4.6503,4.7434,4.8072,4.8324,4.9149,4.9717,4.9717,4.999,5.0183,5.0231,5.0471,5.071,5.087,5.087,5.0964,5.1229,5.1229,5.1229,5.1229,5.1229,5.1229,5.1229,5.1229,5.1229,5.1229,5.1229,5.1229,5.1229,5.1229,5.1229,5.1229,5.1229,5.1229,5.1229,5.1229,5.1229,5.1229,5.1229,5.1229,5.1229,5.1229,0.0,0.0,0.0,0.0,0.0,0.0,0.0,0.0,0.0,0.0,0.0,0.0,0.0,0.0,0.0,0.0,0.0,0.0,0.0,0.0,5.4911,5.4583,5.4179,5.4028,5.348,5.2567,5.1048,5.1471,5.1908,5.1908,5.1908,5.198,5.2125,5.2158,5.223,5.2373,5.2266,5.1835,5.1102,5.0951,5.0788,5.0587,5.0618,5.0902,5.1389,5.1389,0.0,5.0808,5.0646,4.9977,4.9015,4.9316,4.9075,4.8506,4.897,4.912,4.9,4.7758,4.7309,4.7309,4.7309,4.7309,4.7309,0.0,0.0,0.0,0.0,0.0,0.0,0.0,4.2986,4.3184,4.3768,4.3823,4.4235,4.5395,4.6032,4.6556,4.7126,4.8173,4.91,4.9669,4.9941,5.0086,5.0086,5.0357,5.0548,5.0662,5.0662,5.0728,5.1011,5.1011,5.1058,5.1229,5.1229,5.1229,5.1229,5.1229,5.1229,5.1229,5.1229,5.1229,5.1229,5.1229,5.1229,5.1229,5.1229,5.1229,5.1229,5.1229,5.1229,5.1229,5.1229,5.1229,5.1229,5.1229,5.1229,5.1229,0.0,0.0,0.0,0.0,0.0,0.0,0.0,0.0,0.0,0.0,0.0,0.0,0.0,0.0,5.4653,5.4653,0.0,5.5377,5.545,5.5169,5.4695,5.4055,5.3632,5.299,5.1864,5.2125,5.2409,5.2409,5.2409,5.2409,5.2409,5.2409,5.2409,5.2409,5.2409,5.2194,5.1729,5.1762,5.1708,5.162,5.1582,5.1777,5.2094,5.2094,5.21,5.21,5.1674,5.1009,5.0227,5.0067,4.9552,4.885,4.9654,4.9716,4.9284,4.9048,4.8675,4.8297,4.8297,4.8297,4.8297,0.0,0.0,0.0,0.0,0.0,0.0,0.0,4.2986,4.2986,4.2986,4.2986,4.3351,4.4261,4.4561,4.5154,4.6215,4.7126,4.8072,4.9001,4.9473,4.9669,4.9669,5.0086,5.0357,5.0405,5.0405,5.0519,5.0728,5.0728,5.087,5.1105,5.1105,5.1152,5.1229,5.1229,5.1229,5.1229,5.1229,5.1229,5.1229,5.1229,5.1229,5.1229,5.1229,5.1229,5.1229,5.1229,5.1229,5.1229,5.1229,5.1229,5.1229,5.1229,5.1229,5.1229,5.1433,5.1479,0.0,0.0,0.0,0.0,0.0,0.0,0.0,0.0,5.4527,5.4527,5.4527,5.5067,5.5523,5.5393,5.5982,5.6249,5.5483,5.5251,5.4754,5.3599,5.3301,5.3003,5.2475,5.2409,5.2409,5.2409,5.2409,5.2409,5.2409,5.2409,5.2409,5.2409,5.2409,5.2409,5.2409,5.2409,5.2409,5.2409,5.2409,5.2409,5.2409,5.2409,5.2672,5.3165,5.2469,5.1997,5.1715,5.0891,5.0235,4.9849,5.0697,5.0498,4.9794,5.0651,5.0449,4.9659,4.9389,4.9389,4.9538,0.0,0.0,0.0,0.0,0.0,0.0,0.0,0.0,4.2986,4.2986,4.2986,4.3017,4.3184,4.4097,4.5154,4.6215,4.6424,4.6528,4.6684,4.7638,4.8223,4.8223,4.9198,4.9892,5.0135,5.0135,5.0279,5.0548,5.0548,5.0662,5.087,5.087,5.0964,5.1229,5.1229,5.1229,5.1229,5.1229,5.1229,5.1229,5.1229,5.1229,5.1229,5.1229,5.1229,5.1229,5.1229,5.1229,5.1229,5.1229,5.1229,5.1229,5.1229,5.1229,5.1339,5.22,5.2426,5.2651,5.3589,5.3762,5.3891,5.4787,5.5108,5.5353,0.0,5.6408,5.6408,5.6408,5.6486,5.6365,5.5699,5.5643,5.545,5.4721,5.4059,5.3599,5.3434,5.287,5.2473,5.2407,5.2409,5.2409,5.2409,5.2409,5.2409,5.2409,5.2409,5.2409,5.2409,5.2409,5.2409,5.2409,5.2409,5.2409,5.2409,5.2409,5.2409,5.2409,5.2409,5.2407,5.2506,5.2434,5.1962,5.1172,5.089,5.1036,5.157,5.2303,5.2087,5.1308,5.21,5.1805,5.087,4.9748,4.9775,5.0457,0.0,0.0,0.0,0.0,0.0,0.0,0.0,0.0,0.0,4.2986,4.2986,4.2986,4.2986,4.3406,4.4152,4.5289,4.5342,4.5608,4.6267,4.6764,4.7023,4.7023,4.8122,4.8753,4.8902,4.9522,4.999,5.0279,5.0279,5.0375,5.0614,5.0614,5.0757,5.0964,5.0964,5.1058,5.1229,5.1229,5.1229,5.1229,5.1229,5.1229,5.1229,5.1229,5.1229,5.1229,5.1229,5.1229,0.0,0.0,5.1229,5.1229,5.1229,5.1229,5.1186,5.1182,5.1574,0.0,5.2607,5.3478,5.4273,5.4114,5.447,5.493,5.5345,5.5421,5.5421,5.5421,5.5421,5.5322,5.5024,5.4953,5.4688,5.3997,5.3632,5.3268,5.287,5.2572,5.2409,5.2409,5.2409,5.2409,5.2409,5.2409,5.2409,5.2409,5.2409,5.2409,5.2409,5.2409,5.2409,5.2409,5.2409,5.2409,5.2409,5.2409,5.2409,5.2409,5.2409,5.2409,5.2409,5.2409,5.1908,5.1059,5.0476,5.0587,5.1281,5.2133,5.1871,5.1067,5.2281,5.2211,5.1394,5.1257,5.1464,5.1832,0.0,0.0,0.0,0.0,0.0,0.0,0.0,0.0,0.0,0.0,4.2986,4.2986,4.2986,4.2986,4.3351,4.4152,4.4261,4.4561,4.5342,4.5714,4.5873,4.5873,4.6919,4.7536,4.7536,4.8324,4.8852,4.905,4.9346,4.9669,4.9912,5.0231,5.0519,5.0728,5.0728,5.0852,5.0994,5.1088,5.1058,5.1105,5.1182,5.1229,5.1229,5.1229,5.1229,5.1229,5.1229,5.1229,0.0,0.0,5.1109,5.0913,5.0913,5.084,5.0617,5.0381,5.0917,5.1709,5.209,5.3168,5.4081,5.3661,5.4043,5.449,5.449,5.449,5.449,5.449,5.449,5.4423,5.4225,5.4192,5.3964,5.3235,5.3135,5.2937,5.244,5.2409,5.2409,5.2409,5.2409,5.2409,5.2409,5.2409,5.2409,5.2409,5.2409,5.2409,5.2409,5.2409,5.2409,5.2409,5.2409,5.2409,5.2409,5.2409,5.2409,5.2409,5.2409,5.2409,5.2409,5.2409,5.2053,5.1434,5.0767,5.0788,5.1307,5.2188,5.1923,5.1048,5.2479,5.2566,5.2045,5.2772,5.3215,5.3459,0.0,0.0,0.0,0.0,0.0,0.0,0.0,0.0,0.0,0.0,0.0,0.0,0.0,4.2986,4.3042,4.3017,4.3017,4.3098,4.3098,4.4152,4.4724,4.4724,4.5767,4.6319,4.6319,4.6372,4.6424,4.6424,4.7536,4.8223,4.8496,4.9591,5.0231,5.0501,5.0501,5.0501,5.0548,5.0728,5.0793,5.0822,5.1105,5.1229,5.1229,5.1229,5.1229,5.1229,5.1229,0.0,0.0,0.0,5.0734,5.0226,5.0226,4.9823,0.0,5.0345,5.1256,0.0,5.3043,5.3318,5.3512,5.427,5.449,5.449,5.449,5.449,5.449,5.449,5.449,5.4258,5.3599,5.3434,5.3235,5.2539,5.2442,5.2407,5.2409,5.2409,5.2409,5.2409,5.2409,5.2409,5.2409,5.2409,5.2409,5.2409,5.2409,5.2409,5.2409,5.2409,5.2409,5.2409,5.2409,5.2409,5.2409,5.2409,5.2409,5.2409,5.2409,5.2409,5.2409,5.2409,5.2373,5.2338,5.2338,5.2302,5.2404,5.3099,5.2847,5.2114,5.2896,5.3061,5.2976,5.3905,5.4649,5.5198,0.0,0.0,0.0,0.0,0.0,0.0,0.0,0.0,0.0,0.0,0.0,0.0,0.0,0.0,0.0,0.0,4.2986,4.2986,4.2986,4.3351,4.3572,4.3572,4.467,4.5235,4.5235,4.5926,4.6267,4.6267,4.6684,4.6892,4.6995,4.7406,4.8145,4.912,4.912,4.964,5.0501,5.0567,5.0473,5.0199,5.0292,5.0193,4.9912,4.9912,4.9912,4.9912,0.0,0.0,0.0,0.0,0.0,0.0,4.9583,0.0,0.0,4.9751,0.0,4.9924,5.0771,5.1398,5.1923,5.2188,5.2704,5.3102,5.3102,5.3102,5.3102,5.3102,5.3102,5.3036,5.2771,5.2738,5.2638,5.2407,5.2409,5.2409,5.2409,5.2409,5.2409,5.2409,5.2409,5.2409,5.2409,5.2409,5.2409,5.2409,5.2409,5.2409,5.2409,5.2409,5.2409,5.2409,5.2409,5.2409,5.2409,5.2409,5.2409,5.2409,5.2409,5.2409,5.2409,5.2409,5.2409,5.2409,5.2409,5.2409,5.2442,5.2638,5.22,5.1518,5.223,5.2753,5.3271,5.4034,5.5089,5.6218,0.0,0.0,0.0,0.0,0.0,0.0,0.0,0.0,0.0,0.0,0.0,0.0,0.0,0.0,0.0,0.0,0.0,4.1615,4.1615,4.2093,4.2319,4.2319,4.3436,4.3994,4.3787,4.4463,4.4705,4.4494,4.4915,4.5124,4.5124,4.554,4.6209,4.7069,4.7069,4.7596,4.8459,4.8924,4.8978,4.8788,4.9238,4.9324,4.9164,4.9164,4.9209,0.0,0.0,0.0,0.0,0.0,0.0,0.0,0.0,0.0,0.0,4.8693,4.8438,4.8366,4.9487,5.0229,5.08,5.1397,5.198,5.2409,5.2409,5.2409,5.2409,5.2409,5.2409,5.2409,5.2409,5.2409,5.2409,5.2409,5.2409,5.2409,5.2409,5.2409,5.2409,5.2409,5.2409,5.2409,5.2409,5.2409,5.2409,5.2409,5.2409,5.2409,5.2409,5.2409,5.2409,5.2409,5.2409,5.2409,5.2409,5.2409,5.2409,5.2409,5.2409,5.2409,5.2409,5.2409,5.2409,5.2409,5.2409,5.2409,5.2409,5.2409,5.2218,5.1969,5.2389,5.321,5.4162,5.462,5.5359,5.6257,0.0,0.0,0.0,0.0,0.0,0.0,0.0,0.0,0.0,0.0,0.0,0.0,0.0,0.0,0.0,0.0,0.0,0.0,3.9216,4.0326,4.0985,4.0985,4.215,4.2599,4.2103,4.2103,4.1827,4.1275,4.2369,4.2918,4.2918,4.3999,4.4556,4.4606,4.4606,4.4656,4.4757,4.5993,4.6526,4.6642,4.7928,4.8574,4.8773,4.8818,0.0,0.0,0.0,0.0,0.0,0.0,4.882,4.8237,4.8237,4.7818,4.7309,4.7309,4.7309,4.7666,4.9287,4.9765,5.0197,5.1908,5.2373,5.2409,5.2409,5.2409,5.2409,5.2409,5.2409,5.2409,5.2409,5.2409,5.2409,5.2409,5.2409,5.2409,5.2409,5.2409,5.2409,5.2409,5.2409,5.2409,5.2409,5.2409,5.2409,5.2409,5.2409,5.2409,5.2409,5.2409,5.2409,5.2409,5.2409,5.2409,5.2409,5.2409,5.2409,5.2409,5.2409,5.2409,5.2409,5.2409,5.2409,5.2409,5.2409,5.2442,5.244,5.244,5.2837,5.3467,5.3467,5.4361,5.5582,5.5582,5.5476,5.5434,0.0,0.0,0.0,0.0,0.0,0.0,0.0,0.0,0.0,0.0,0.0,0.0,0.0,0.0,0.0,0.0,0.0,0.0,3.9216,3.951,3.9686,3.9686,3.9978,4.0378,4.0779,4.0755,4.0955,4.1275,4.1597,4.1732,4.1732,4.2051,4.2631,4.3436,4.3436,4.3897,4.4706,4.5056,4.5421,4.5893,0.0,4.6691,4.7214,0.0,0.0,0.0,0.0,0.0,0.0,4.8327,4.8087,4.7549,4.7549,4.7429,4.7309,4.7309,4.7309,4.7538,4.8584,4.9358,5.0041,5.114,5.1908,5.2409,5.2409,5.2409,5.2409,5.2409,5.2409,5.2409,5.2409,5.2409,5.2409,5.2409,5.2409,5.2409,5.2409,5.2409,5.2409,5.2409,5.2409,5.2409,5.2409,5.2409,5.2409,5.2409,5.2409,5.2409,5.2409,5.2409,5.2409,5.2409,5.2409,5.2409,5.2409,5.2409,5.2409,5.2409,5.2409,5.2409,5.2409,5.2409,5.2409,5.2409,5.2409,5.2672,5.3169,5.3169,5.3566,5.4229,5.4229,5.4787,5.5582,5.5582,5.5476,5.5353,0.0,0.0,0.0,0.0,0.0,0.0,0.0,0.0,0.0,0.0,0.0,0.0,0.0,0.0,0.0,0.0,0.0,0.0,0.0,3.8029,3.8387,3.8387,3.8921,3.9163,3.9184,3.9024,3.9229,3.9833,3.9701,3.9993,4.0626,4.0626,4.0969,4.1544,4.1544,4.1905,4.2543,4.2998,0.0,0.0,0.0,0.0,0.0,0.0,0.0,0.0,0.0,0.0,4.7369,4.7728,4.7608,4.7309,4.7309,4.7309,4.7309,4.7309,4.7309,4.7495,4.8366,4.9197,5.0002,5.0876,5.1762,5.2409,5.2409,5.2409,5.2409,5.2409,5.2409,5.2409,5.2409,5.2409,5.2409,5.2409,5.2409,5.2409,5.2409,5.2409,5.2409,5.2409,5.2409,5.2409,5.2409,5.2409,5.2409,5.2409,5.2409,5.2409,5.2409,5.2409,5.2409,5.2409,5.2409,5.2409,5.2409,5.2409,5.2409,5.2409,5.2409,5.2409,5.2409,5.2409,5.2409,5.2442,5.2705,5.3069,5.3434,5.3765,5.4328,5.4953,5.4953,5.5416,5.6045,5.5626,5.515,5.4694,0.0,0.0,0.0,0.0,0.0,0.0,0.0,0.0,0.0,0.0,0.0,0.0,0.0,0.0,0.0,0.0,0.0,0.0,0.0,0.0,0.0,3.7067,3.8089,3.8313,3.7554,3.7212,3.733,3.7993,3.7684,3.8295,0.0,0.0,0.0,0.0,0.0,0.0,0.0,0.0,0.0,0.0,0.0,0.0,0.0,0.0,0.0,0.0,0.0,4.7062,4.7309,4.7309,4.7309,4.7309,4.7309,4.7309,4.7309,4.7309,4.7309,4.7495,4.8366,4.9116,4.9844,5.0723,5.1582,5.223,5.223,5.2338,5.2409,5.2409,5.2409,5.2409,5.2409,5.2409,5.2409,5.2409,5.2409,5.2409,5.2409,5.2409,5.2409,5.2409,5.2409,5.2409,5.2409,5.2409,5.2409,5.2409,5.2409,5.2409,5.2409,5.2409,5.2409,5.2409,5.2409,5.2409,5.2409,5.2409,5.2409,5.2409,5.2409,5.2409,5.2409,5.2409,5.2475,5.2572,5.3169,5.3533,5.3765,5.4357,5.5052,5.5747,5.5747,5.6073,5.6414,5.5595,5.4694,5.3675,0.0,0.0,0.0,0.0,0.0,0.0,0.0,0.0,0.0,0.0,3.5418,3.5418,0.0,0.0,0.0,0.0,0.0,0.0,0.0,0.0,0.0,0.0,3.5951,3.6246,3.6677,3.6282,3.6839,3.8467,3.8035,3.8477,0.0,0.0,0.0,0.0,0.0,0.0,0.0,0.0,0.0,0.0,0.0,0.0,0.0,0.0,0.0,0.0,4.6462,4.7062,4.7309,4.7309,4.7309,4.7309,4.7309,4.7309,4.7309,4.7309,4.7309,4.7495,4.8366,4.8697,4.8994,4.9805,5.0653,5.1322,5.1322,5.1871,5.2409,5.2409,5.2409,5.2409,5.2409,5.2409,5.2409,5.2409,5.2409,5.2409,5.2409,5.2409,5.2409,5.2409,5.2409,5.2409,5.2409,5.2409,5.2409,5.2409,5.2409,5.2409,5.2409,5.2409,5.2409,5.2409,5.2409,5.2409,5.2409,5.2409,5.2409,5.2409,5.2409,5.2409,5.2409,5.2409,5.2705,5.3235,5.3367,5.4096,5.5218,5.535,5.5852,5.6514,5.6514,5.6087,5.5515,5.5353,5.4243,5.2829,0.0,0.0,0.0,0.0,0.0,0.0,0.0,3.5294,3.5418,3.5418,3.5418,3.5418,3.5418,3.5418,3.5418,0.0,0.0,0.0,0.0,0.0,0.0,0.0,0.0,0.0,3.5579,3.4994,3.536,3.6777,0.0,3.6858,3.8764,3.8764,3.9102,3.9697,3.9697,3.9697,3.9697,0.0,0.0,0.0,4.0969,0.0,0.0,0.0,0.0,0.0,0.0,4.7062,4.7309,4.7309,4.7309,4.7309,4.7309,4.7309,4.7309,4.7309,4.7309,4.7366,4.7807,4.824,4.8697,4.9075,4.9797,5.0422,5.0422,5.1102,5.1692,5.1692,5.2053,5.2409,5.2409,5.2409,5.2409,5.2409,5.2409,5.2409,5.2409,5.2409,5.2409,5.2409,5.2409,5.2409,5.2409,5.2409,5.2409,5.2409,5.2409,5.2409,5.2409,5.2409,5.2409,5.2409,5.2409,5.2409,5.2409,5.2409,5.2409,5.2409,5.2409,5.2572,5.2904,5.2904,5.3301,5.396,5.4394,5.492,5.5577,5.5483,5.5653,5.5948,5.5466,5.5026,5.4569,5.4073,5.3371,5.2606,0.0,0.0,0.0,0.0,0.0,0.0,0.0,3.5108,3.5294,3.5356,3.5418,3.5418,3.5418,3.5418,3.5418,0.0,0.0,0.0,0.0,0.0,0.0,0.0,0.0,0.0,0.0,0.0,0.0,3.5285,3.458,0.0,0.0,0.0,0.0,0.0,3.9569,3.9697,3.9697,3.9697,3.9697,0.0,0.0,4.0895,0.0,0.0,0.0,0.0,0.0,4.677,4.7222,4.7266,4.7309,4.7309,4.7309,4.7309,4.7309,4.7309,4.7309,4.7309,4.7309,4.7807,4.8324,4.8324,4.8953,4.9527,4.9527,5.0229,5.0838,5.0838,5.1508,5.2089,5.2089,5.2266,5.2409,5.2409,5.2409,5.2409,5.2409,5.2409,5.2409,5.2409,5.2409,5.2409,5.2409,5.2409,5.2409,5.2409,5.2409,5.2409,5.2409,5.2409,5.2409,5.2409,5.2409,5.2409,5.2409,5.2409,5.2409,5.2409,5.2539,5.287,5.3434,5.3566,5.4026,5.4754,5.535,5.5572,5.5506,5.5368,5.519,5.4985,5.4274,5.3891,5.3589,5.2874,5.2471,5.2336,0.0,0.0,0.0,0.0,0.0,0.0,0.0,3.4922,3.5046,3.5356,3.5418,3.5418,3.5418,3.5418,3.5418,0.0,0.0,0.0,0.0,0.0,0.0,0.0,0.0,0.0,0.0,0.0,0.0,3.5729,3.5228,0.0,0.0,0.0,0.0,0.0,0.0,3.9697,3.9697,3.9697,0.0,0.0,0.0,0.0,0.0,0.0,0.0,0.0,0.0,4.5913,4.6975,4.7222,4.7309,4.7309,4.7309,4.7309,4.7309,4.7309,4.7309,4.7309,4.7309,4.7352,4.7409,4.7409,4.8061,4.8708,4.8708,4.9358,4.9923,4.9923,5.0615,5.1247,5.1247,5.1871,5.2409,5.2409,5.2409,5.2409,5.2409,5.2409,5.2409,5.2409,5.2409,5.2409,5.2409,5.2409,5.2409,5.2409,5.2409,5.2409,5.2409,5.2409,5.2409,5.2409,5.2409,5.2409,5.2409,5.2409,5.2409,5.2407,5.3036,5.3367,5.3434,5.4096,5.4787,5.5483,5.5549,5.5489,5.5337,5.532,5.4861,5.4105,5.4019,5.3459,5.274,5.2651,5.2048,5.1433,0.0,0.0,0.0,0.0,0.0,0.0,3.4548,3.4797,3.5046,3.5356,3.5418,3.5418,3.5418,3.5418,3.5418,3.5418,0.0,0.0,0.0,0.0,0.0,0.0,0.0,0.0,0.0,0.0,3.4893,3.5184,3.4424,0.0,0.0,0.0,0.0,0.0,0.0,3.9697,3.9697,3.9697,0.0,0.0,0.0,0.0,0.0,0.0,0.0,0.0,0.0,0.0,4.6931,4.7222,4.7309,4.7309,4.7309,4.7309,4.7309,4.7309,4.7309,4.7309,4.7309,4.7309,4.7309,4.7309,4.7538,4.7807,4.7807,4.849,4.9075,4.9075,4.9757,5.0345,5.0345,5.1027,5.1619,5.1619,5.2053,5.2409,5.2409,5.2409,5.2409,5.2409,5.2409,5.2409,5.2409,5.2409,5.2409,5.2409,5.2409,5.2409,5.2409,5.2409,5.2409,5.2409,5.2409,5.2409,5.2409,5.2409,5.2572,5.3003,5.3268,5.3897,5.4721,5.5019,5.5549,5.6249,5.6249,5.5916,5.5271,5.4736,5.3976,5.3108,5.2516,5.2094,5.1773,5.1773,5.1526,5.1339,0.0,0.0,0.0,0.0,0.0,3.3922,3.436,3.461,3.4922,3.5356,3.5418,3.5541,3.589,3.5951,3.6135,3.6481,3.6197,0.0,0.0,0.0,0.0,0.0,0.0,0.0,0.0,0.0,3.49,3.4816,3.4028,3.3959,0.0,0.0,3.6317,3.7447,0.0,0.0,0.0,0.0,0.0,0.0,0.0,0.0,0.0,0.0,0.0,0.0,0.0,0.0,0.0,0.0,0.0,4.7222,4.7266,4.7309,4.7309,4.7309,4.7309,4.7309,4.7309,4.7309,4.7309,4.7309,4.7309,4.7309,4.7309,4.7764,4.8229,4.8229,4.8872,4.9447,4.9447,5.0345,5.1102,5.1102,5.1835,5.2409,5.2409,5.2409,5.2409,5.2409,5.2409,5.2409,5.2409,5.2409,5.2409,5.2409,5.2409,5.2409,5.2409,5.2409,5.2409,5.2409,5.2409,5.2409,5.2409,5.2572,5.2937,5.3434,5.3864,5.4589,5.5582,5.5852,5.6216,5.668,5.6414,5.5789,5.4861,5.3976,5.302,5.2139,5.1479,5.1229,5.1229,5.1229,5.1229,5.1339,0.0,0.0,0.0,0.0,0.0,0.0,3.4298,3.4423,3.4673,3.5294,3.5418,3.589,3.7127,3.7309,3.779,3.9039,3.8029,0.0,0.0,0.0,0.0,0.0,0.0,0.0,0.0,0.0,3.519,3.4816,3.436,3.3883,3.3427,3.4146,3.5113,3.624,0.0,0.0,0.0,0.0,0.0,0.0,0.0,0.0,0.0,0.0,0.0,0.0,0.0,0.0,0.0,0.0,0.0,0.0,0.0,4.7309,0.0,0.0,4.7309,4.7309,4.7309,4.7309,4.7309,4.7309,4.7309,4.7309,4.7309,4.7309,4.7309,4.7309,4.8019,4.8615,4.8615,4.9955,5.1102,5.1102,5.1835,5.2409,5.2409,5.2409,5.2409,5.2409,5.2409,5.2409,5.2409,5.2409,5.2409,5.2409,5.2409,5.2409,5.2409,5.2409,5.2409,5.2409,5.2409,5.2409,5.2409,5.3069,5.34,5.3434,5.4854,5.5582,5.5615,5.6349,5.668,5.6641,5.5716,5.4819,5.3934,5.2976,5.2048,5.1229,5.1199,5.1229,5.1229,5.1229,5.1229,5.1339,0.0,0.0,0.0,0.0,0.0,0.0,0.0,3.5129,3.5971,3.6581,3.7429,3.8149,3.8566,3.8625,3.9098,4.0384,3.9334,0.0,0.0,0.0,0.0,0.0,0.0,0.0,0.0,0.0,3.6234,3.5211,3.5639,3.5172,3.3962,3.633,3.7022,3.6294,3.8267,3.9362,0.0,0.0,0.0,0.0,0.0,0.0,3.9697,0.0,0.0,0.0,0.0,0.0,0.0,0.0,0.0,0.0,0.0,0.0,0.0,0.0,0.0,4.7309,4.7309,4.7309,4.7309,4.7309,4.7309,4.7309,4.7309,4.7309,4.7309,4.7309,4.7495,4.7709,4.7709,4.8615,4.9559,5.0151,5.0951,5.1692,5.2302,5.2409,5.2409,5.2409,5.2409,5.2409,5.2409,5.2409,5.2409,5.2409,5.2409,5.2409,5.2409,5.2409,5.2409,5.2409,5.2409,5.2605,5.3069,5.2679,5.3339,5.4887,5.4782,5.528,5.6349,5.6581,5.6336,5.5749,5.5434,5.4411,5.302,5.274,5.2048,5.1229,5.1229,5.1229,5.1229,5.1229,5.1229,5.1246,0.0,0.0,0.0,0.0,0.0,0.0,0.0,3.5602,3.6682,3.7226,3.8387,3.9393,3.9861,3.9919,4.0442,4.1696,4.11,0.0,0.0,0.0,0.0,0.0,0.0,0.0,3.8029,3.8029,3.761,3.6846,3.7147,3.6663,3.5481,3.7284,3.7675,3.6911,3.8372,3.9258,0.0,0.0,0.0,0.0,0.0,0.0,3.9697,0.0,0.0,0.0,0.0,0.0,0.0,0.0,0.0,0.0,0.0,0.0,0.0,0.0,4.7309,4.7309,4.7309,4.7309,4.7309,4.7309,4.7309,4.7309,4.7309,4.7309,4.7309,4.7309,4.7309,4.7309,4.7309,4.8019,4.8749,4.9278,5.0345,5.1177,5.1364,5.198,5.2409,5.2409,5.2409,5.2409,5.2409,5.2409,5.2266,5.1944,5.223,5.2266,5.1944,5.1908,5.2039,5.2265,5.2627,5.2825,5.2922,5.2921,5.3512,5.4586,5.4648,5.5012,5.5668,5.5988,5.5668,5.4819,5.4411,5.3644,0.0,5.22,5.1727,5.1229,5.1229,5.1229,5.1229,5.1229,5.1229,5.1229,0.0,0.0,0.0,0.0,0.0,0.0,0.0,3.5848,3.7045,3.7407,3.8625,3.9919,4.11,4.1215,4.1696,4.293,0.0,0.0,0.0,0.0,0.0,0.0,0.0,0.0,3.9334,3.9334,3.9275,3.9216,3.885,3.8344,3.7701,3.7442,3.7535,3.7897,3.8003,3.8659,0.0,0.0,0.0,0.0,0.0,0.0,0.0,0.0,0.0,0.0,0.0,0.0,0.0,0.0,0.0,0.0,0.0,0.0,0.0,0.0,0.0,0.0,0.0,4.7309,4.7309,4.7309,4.7309,4.7309,4.7309,4.7309,0.0,4.7309,4.7309,4.7309,4.7309,4.7976,4.8532,4.8615,4.9915,5.0653,4.9884,5.1215,5.2266,5.2302,5.2266,5.2266,5.2302,5.2266,5.1908,5.1065,5.1729,5.1871,5.1124,5.1086,5.1409,5.2081,5.2908,5.2978,5.2178,5.347,5.3711,5.3028,5.4457,5.4736,5.4019,5.4861,5.4736,5.3848,5.3007,5.2561,5.2426,5.1572,5.1229,5.1229,5.1229,5.1229,5.1229,5.1229,5.1229,5.1229,0.0,0.0,0.0,0.0,0.0,0.0,0.0,0.0,0.0,0.0,4.0673,4.2206,4.2513,4.2569,4.2681,0.0,0.0,0.0,0.0,0.0,0.0,0.0,0.0,0.0,4.0673,4.0639,4.0152,3.9216,4.0093,3.9518,3.7757,3.9503,3.9458,3.795,3.8868,3.9413,0.0,0.0,0.0,0.0,0.0,0.0,0.0,0.0,0.0,0.0,4.2208,4.2958,0.0,0.0,0.0,0.0,0.0,0.0,0.0,0.0,4.7309,4.7309,4.7309,0.0,4.7309,4.7309,4.7309,4.7309,0.0,4.7309,4.7309,4.7309,4.7309,4.7309,4.7309,4.7452,4.7807,4.849,4.8913,4.9318,4.9726,5.0158,5.0653,5.1322,5.0838,5.0653,5.1359,5.0805,5.0345,5.0119,5.0306,5.0568,5.0874,5.0874,5.1184,5.1873,5.2626,5.2913,5.2708,5.2354,5.2707,5.3724,5.3408,5.3502,5.4019,5.4232,5.3805,5.2918,5.2695,5.22,5.1526,5.1293,5.1229,5.1229,5.1229,5.1229,5.1229,5.1229,5.1229,5.1229,0.0,0.0,0.0,0.0,0.0,0.0,0.0,0.0,0.0,0.0,0.0,4.2986,4.2986,4.2986,0.0,0.0,0.0,0.0,0.0,0.0,0.0,0.0,0.0,4.2681,4.198,4.198,4.1615,4.0928,4.1615,4.1201,3.9818,4.0834,4.0504,3.9132,3.9538,3.9697,0.0,0.0,0.0,0.0,3.9697,0.0,0.0,0.0,0.0,0.0,4.1468,4.2404,0.0,4.5081,4.6106,4.6653,0.0,0.0,0.0,0.0,4.7309,4.7309,4.7309,4.7309,4.7309,4.7309,4.7309,4.7309,4.7309,4.7309,4.7309,4.7309,4.7309,4.7309,4.7309,4.7309,4.7452,4.7934,4.8324,4.8872,4.9686,4.9487,4.9559,5.0384,5.008,4.9962,5.0461,5.0358,5.0079,4.9675,5.0313,5.0699,5.0663,5.0663,5.0965,5.165,5.1636,5.1822,5.2254,5.2118,5.2236,5.274,5.2651,5.2651,5.274,5.3152,5.2874,5.1957,5.1957,5.1635,5.1229,5.1229,5.1229,5.1229,5.1229,5.1229,5.1229,5.1229,5.1229,5.1229,0.0,0.0,0.0,0.0,0.0,0.0,0.0,0.0,0.0,0.0,0.0,0.0,0.0,0.0,0.0,0.0,0.0,0.0,0.0,0.0,0.0,0.0,4.2986,4.2986,4.2986,4.2986,4.2986,4.2986,4.2986,4.2766,4.2213,4.1605,4.0949,4.0375,3.9898,3.9697,0.0,0.0,3.9697,3.9697,3.9697,0.0,0.0,0.0,0.0,0.0,0.0,0.0,0.0,4.4266,4.5537,4.6624,4.6844,0.0,0.0,0.0,0.0,0.0,4.7309,4.7309,4.7309,4.7309,4.7309,4.7309,4.7309,4.7309,4.7309,4.7309,4.7309,4.7309,4.7309,4.7309,4.7309,4.7309,4.7934,4.8656,4.9327,4.8831,4.8769,4.9644,4.9644,4.9667,4.9882,5.0294,5.0268,4.95,5.0692,5.1149,5.0468,5.0424,5.0774,5.1403,5.0728,5.0728,5.1434,5.206,5.2002,5.1229,5.2002,5.1957,5.1229,5.2048,5.1957,5.1229,5.1229,5.1229,5.1229,5.1229,5.1229,5.1229,5.1229,5.1229,5.1229,5.1229,5.1229,5.1229,0.0,0.0,0.0,0.0,0.0,0.0,0.0,0.0,0.0,0.0,0.0,0.0,0.0,0.0,0.0,0.0,0.0,0.0,0.0,0.0,0.0,4.2986,4.2986,4.2986,4.2986,4.2986,4.2986,4.2986,4.2986,4.2766,4.2213,4.1605,4.0802,3.9823,3.9747,3.9697,3.9697,3.9697,3.9697,3.9697,3.9697,0.0,0.0,0.0,0.0,0.0,0.0,0.0,0.0,4.4266,4.5537,4.6624,4.6844,0.0,0.0,0.0,0.0,0.0,4.7309,4.7309,4.7309,4.7309,4.7309,4.7309,4.7309,4.7309,4.7309,4.7309,4.7309,4.7309,4.7309,4.7309,4.7309,4.7309,4.7409,4.7538,4.7666,4.7581,4.8019,4.9385,4.8925,4.904,5.029,4.987,4.9477,4.9329,4.9553,4.9854,5.0215,5.0245,5.0545,5.1206,5.1096,5.1096,5.1236,5.1326,5.1339,5.1229,5.1339,5.1339,5.1199,5.1339,5.1339,5.1229,5.1229,5.1229,5.1229,5.1229,5.1229,5.1229,5.1229,5.1229,5.1229,5.1229,5.1229,5.1229,0.0,0.0,0.0,0.0,0.0,0.0,0.0,0.0,0.0,0.0,0.0,0.0,0.0,0.0,0.0,0.0,0.0,0.0,0.0,0.0,4.2986,4.2986,4.2986,4.2986,4.2986,4.2986,4.2986,4.2986,4.2986,4.2836,4.264,4.1731,4.0752,3.9697,3.9697,3.9697,3.9697,3.9697,3.9697,3.9697,0.0,0.0,0.0,0.0,0.0,0.0,0.0,0.0,0.0,0.0,4.4499,4.5718,4.6491,0.0,0.0,0.0,0.0,0.0,4.7309,4.7309,4.7309,4.7309,4.7309,4.7309,4.7309,4.7309,4.7309,4.7309,4.7309,4.7309,4.7309,4.7309,4.7309,4.7309,4.7309,4.7429,4.7788,4.7848,4.8233,4.926,4.9072,4.9104,4.9775,4.9779,4.9793,4.9793,5.0122,5.0451,5.0704,5.0734,5.0853,5.1199,5.1229,5.1229,5.1229,5.1229,5.1229,5.1229,5.1229,5.1229,5.1229,5.1229,5.1229,5.1229,5.1229,5.1229,5.1229,5.1229,5.1229,5.1229,5.1229,5.1229,5.1229,5.1229,5.1229,5.1229,0.0,0.0,0.0,0.0,0.0,0.0,0.0,0.0,0.0,0.0,0.0,0.0,0.0,0.0,0.0,0.0,0.0,0.0,0.0,0.0,4.2986,4.2986,4.2986,4.2986,4.2986,4.2986,4.2986,4.2986,4.2986,4.2911,4.276,4.1781,4.0774,3.9873,3.9747,3.9697,3.9697,3.9697,3.9697,3.9697,0.0,0.0,0.0,0.0,0.0,0.0,0.0,0.0,0.0,0.0,0.0,0.0,0.0,0.0,0.0,4.7149,4.7266,4.7309,4.7309,4.7309,4.7309,4.7309,4.7309,4.7309,4.7309,4.7309,4.7309,4.7309,4.7309,4.7309,4.7309,4.7309,4.7369,4.7519,4.7549,4.7758,4.8416,4.8506,4.8745,4.9404,4.9494,4.9553,4.9703,5.0182,5.0435,5.0435,5.0883,5.1229,5.1229,5.1229,5.1229,5.1229,5.1229,5.1229,5.1229,5.1229,5.1229,5.1229,5.1229,5.1229,5.1229,5.1229,5.1229,5.1229,5.1229,5.1229,5.1229,5.1229,5.1229,5.1229,5.1229,5.1229,5.1229,5.1229,5.1229,5.1229,0.0,0.0,0.0,0.0,0.0,0.0,0.0,0.0,0.0,0.0,0.0,0.0,0.0,0.0,0.0,0.0,0.0,0.0,0.0,0.0,4.2986,4.2986,4.2986,4.2986,4.2986,4.2986,4.2986,4.2986,4.2986,4.2766,4.2263,4.1605,4.0974,4.0425,3.9923,3.9697,3.9697,3.9697,3.9697,3.9697,3.9697,0.0,0.0,0.0,0.0,0.0,0.0,0.0,0.0,0.0,0.0,0.0,0.0,0.0,4.6931,4.6931,4.7106,4.7309,4.7309,4.7309,4.7309,4.7309,4.7309,4.7309,4.7309,4.7309,4.7309,4.7309,4.7309,4.7309,4.7309,4.7309,4.7489,4.8117,4.8207,4.8446,4.9149,4.9239,4.9434,5.0046,5.0136,5.0375,5.102,5.1109,5.1139,5.1139,5.1199,5.1229,5.1229,5.1229,5.1229,5.1229,5.1229,5.1229,5.1229,5.1229,5.1229,5.1229,5.1229,5.1229,5.1229,5.1229,5.1229,5.1229,5.1229,5.1229,5.1229,5.1229,5.1229,5.1229,5.1229,5.1229,5.1229,5.1229,5.1229,5.1229,0.0,0.0,0.0,0.0,0.0,0.0,0.0,0.0,0.0,0.0,0.0,0.0,0.0,0.0,0.0,0.0,0.0,0.0,0.0,4.2986,4.2986,4.2986,4.2986,4.2986,4.2986,4.2986,4.2986,4.2986,4.2986,4.2766,4.2213,4.1957,4.1379,4.0501,4.03,4.0023,3.9697,3.9697,3.9697,3.9697,3.9697,3.9697,0.0,0.0,0.0,0.0,0.0,0.0,0.0,0.0,4.3129,4.3843,4.5627,4.6447,4.6712,4.6887,4.7062,4.7309,4.7309,4.7309,4.7309,4.7309,4.7309,4.7309,4.7309,4.7309,4.7309,4.7309,4.7309,4.7309,4.7309,4.7638,4.7997,4.8237,4.8626,4.9134,4.9793,4.9883,5.0122,5.078,5.0794,5.0913,5.1199,5.1229,5.1229,5.1229,5.1229,5.1229,5.1229,5.1229,5.1229,5.1229,5.1229,5.1229,5.1229,5.1229,5.1229,5.1229,5.1229,5.1229,5.1229,5.1229,5.1229,5.1229,5.1229,5.1229,5.1229,5.1229,5.1229,5.1229,5.1229,5.1229,5.1229,5.1229,5.1229,5.1229,0.0,0.0,0.0,0.0,0.0,0.0,0.0,0.0,0.0,0.0,0.0,0.0,0.0,0.0,0.0,0.0,0.0,0.0,4.2986,4.2986,4.2986,4.2986,4.2986,4.2986,4.2986,4.2986,4.2986,4.2986,4.2986,4.2785,4.2464,4.2288,4.181,4.1028,4.0676,4.03,3.9948,3.9772,3.9697,3.9697,3.9697,3.9697,0.0,0.0,0.0,0.0,0.0,0.0,0.0,0.0,4.255,4.3129,4.5035,4.6016,4.6535,4.6756,4.6975,4.7222,4.7266,4.7309,4.7309,4.7309,4.7309,4.7309,4.7309,4.7309,4.7309,4.7309,4.7309,4.7309,4.7309,4.7848,4.8356,4.8566,4.9134,4.9793,5.0405,5.0495,5.0674,5.1169,5.1229,5.1229,5.1229,5.1229,5.1229,5.1229,5.1229,5.1229,5.1229,5.1229,5.1229,5.1229,5.1229,5.1229,5.1229,5.1229,5.1229,5.1229,5.1229,5.1229,5.1229,5.1229,5.1229,5.1229,5.1229,5.1229,5.1229,5.1229,5.1229,5.1229,5.1229,5.1229,5.1229,5.1229,5.1229,5.1229,0.0,0.0,0.0,0.0,0.0,0.0,0.0,0.0,0.0,0.0,0.0,0.0,0.0,0.0,0.0,0.0,0.0,0.0,4.2986,4.2986,4.2986,4.2986,4.2986,4.2986,4.2986,4.2986,4.2986,4.2986,4.2986,4.2986,4.2961,4.2464,4.2213,4.2162,4.1028,4.0526,4.0475,3.9923,3.9697,3.9697,3.9697,3.9697,3.9697,0.0,0.0,0.0,0.0,0.0,0.0,0.0,4.1914,4.2985,4.3984,4.5173,4.6269,4.6491,4.6756,4.6975,4.7222,4.7309,4.7309,4.7309,4.7309,4.7309,4.7309,4.7309,4.7309,4.7309,4.7309,4.7309,4.7309,4.7848,4.8506,4.9209,4.9823,5.0435,5.1139,5.1229,5.1229,5.1229,5.1229,5.1229,5.1229,5.1229,5.1229,5.1229,5.1229,5.1229,5.1229,5.1229,5.1229,5.1229,5.1229,5.1229,5.1229,5.1229,5.1229,5.1229,5.1229,5.1229,5.1229,5.1229,5.1229,5.1229,5.1229,5.1229,5.1229,5.1229,5.1229,5.1229,5.1229,5.1229,5.1229,5.1229,5.1229,5.1229,0.0,0.0,0.0,0.0,0.0,0.0,0.0,0.0,0.0,0.0,0.0,0.0,0.0,0.0,0.0,0.0,0.0,0.0,4.2986,4.2986,4.2986,4.2986,4.2986,4.2986,4.2986,4.2986,4.2986,4.2986,4.2986,4.2986,4.2986,4.2811,4.259,4.2187,4.1861,4.1229,4.0501,4.035,4.0049,3.9697,3.9697,3.9697,3.9697,0.0,0.0,0.0,0.0,0.0,0.0,0.0,0.0,0.0,4.3721,4.4684,4.531,4.6061,4.6491,4.6712,4.6975,4.7019,4.7062,4.7266,4.7309,4.7309,4.7309,4.7309,4.7309,4.7309,4.7309,4.7309,4.7309,4.8207,4.909,4.9269,5.0212,5.0943,5.1199,5.1229,5.1229,5.1229,5.1229,5.1229,5.1229,5.1229,5.1229,5.1229,5.1229,5.1229,5.1229,5.1229,5.1229,5.1229,5.1229,5.1229,5.1229,5.1229,5.1229,5.1229,5.1229,5.1229,5.1229,5.1229,5.1229,5.1229,5.1229,5.1229,5.1229,5.1229,5.1229,5.1229,5.1229,5.1229,5.1229,5.1229,5.1229,5.1229,0.0,0.0,0.0,0.0,0.0,0.0,0.0,0.0,0.0,0.0,0.0,0.0,0.0,0.0,0.0,0.0,0.0,0.0,0.0,4.2986,4.2986,4.2986,4.2986,4.2986,4.2986,4.2986,4.2986,4.2986,4.2986,4.2986,4.2986,4.2986,4.2866,4.2539,4.2313,4.1835,4.1128,4.0701,4.0325,3.9998,3.9798,3.9697,3.9697,0.0,0.0,0.0,0.0,0.0,0.0,0.0,0.0,0.0,4.2668,4.3721,4.4684,4.5401,4.6061,4.6624,4.6844,4.6975,4.7106,4.7266,4.7309,4.7309,4.7309,4.7309,4.7309,4.7309,4.7309,4.7309,4.7309,4.8386,4.9299,4.9299,5.0361,5.1229,5.1229,5.1229,5.1229,5.1229,5.1229,5.1229,5.1229,5.1229,5.1229,5.1229,5.1229,5.1229,5.1229,5.1229,5.1229,5.1229,5.1229,5.1229,5.1229,5.1229,5.1229,5.1229,5.1229,5.1229,5.1229,5.1229,5.1229,5.1229,5.1229,5.1229,5.1229,5.1229,5.1229,5.1229,5.1229,5.1229,5.1229,5.1229,5.1229,5.1229,0.0,0.0,0.0,0.0,0.0,0.0,0.0,0.0,0.0,0.0,0.0,0.0,0.0,0.0,0.0,0.0,0.0,0.0,0.0,0.0,4.2986,4.2986,4.2986,4.2986,4.2986,4.2986,4.2986,4.2986,4.2986,4.2986,4.2986,4.2986,4.2986,4.2961,4.2514,4.2263,4.2137,4.1028,4.0551,4.0475,3.9923,3.9697,3.9697,3.9697,0.0,0.0,0.0,0.0,0.0,0.0,0.0,0.0,4.1169,4.2571,4.4219,4.4545,4.5537,4.6609,4.68,4.7062,4.7266,4.7309,4.7309,4.7309,4.7309,4.7309,4.7309,4.7309,4.7309,4.7309,4.7309,4.8386,4.9299,4.9299,5.0361,5.1229,5.1229,5.1229,5.1229,5.1229,5.1229,5.1229,5.1229,5.1229,5.1229,5.1229,5.1229,5.1229,5.1229,5.1229,5.1229,5.1229,5.1229,5.1229,5.1229,5.1229,5.1229,5.1229,5.1229,5.1229,5.1229,5.1229,5.1229,5.1229,5.1229,5.1229,5.1229,5.1229,5.1229,5.1229,5.1229,5.1229,5.1229,5.1229,5.1229,5.1229,0.0,0.0,0.0,0.0,0.0,0.0,0.0,0.0,0.0,0.0,0.0,0.0,0.0,0.0,0.0,0.0,0.0,0.0,0.0,0.0,4.2986,4.2986,4.2986,4.2986,4.2986,4.2986,4.2986,4.2986,4.2986,4.2986,4.2986,4.2986,4.2986,4.2961,4.2861,4.2615,4.2162,4.1455,4.0849,4.0475,3.9923,3.9697,3.9697,3.9697,3.9697,0.0,0.0,0.0,0.0,0.0,0.0,0.0,4.0945,4.2084,4.3321,4.4125,4.5173,4.6135,4.6535,4.6712,4.6829,4.7222,4.7309,4.7309,4.7309,4.7309,4.7309,4.7309,4.7309,4.7309,4.7309,4.8386,4.9299,4.9299,5.0361,5.1229,5.1229,5.1229,5.1229,5.1229,5.1229,5.1229,5.1229,5.1229,5.1229,5.1229,5.1229,5.1229,5.1229,5.1229,5.1229,5.1229,5.1229,5.1229,5.1229,5.1229,5.1229,5.1229,5.1229,5.1229,5.1229,5.1229,5.1229,5.1229,5.1229,5.1229,5.1229,5.1229,5.1229,5.1229,5.1229,5.1229,5.1229,5.1229,5.1229,5.1229,0.0,0.0,0.0,0.0,0.0,0.0,0.0,0.0,0.0,0.0,0.0,0.0,0.0,0.0,0.0,0.0,0.0,0.0,0.0,0.0,4.2986,4.2986,4.2986,4.2986,4.2986,4.2986,4.2986,4.2986,4.2986,4.2986,4.2986,4.2986,4.2986,4.2986,4.2986,4.2811,4.2564,4.1957,4.1404,4.0852,4.03,3.9923,3.9697,3.9697,3.9697,3.9697,3.9697,0.0,0.0,0.0,0.0,0.0,0.0,0.0,4.2159,4.2668,4.4031,4.5384,4.5611,4.6106,4.6653,4.6917,4.7135,4.7266,4.7149,4.7222,4.7309,4.7309,4.7309,4.7309,4.7309,4.8386,4.9299,4.9299,5.0361,5.1229,5.1229,5.1229,5.1229,5.1229,5.1229,5.1229,5.1229,5.1229,5.1229,5.1229,5.1229,5.1229,5.1229,5.1229,5.1229,5.1229,5.1229,5.1229,5.1229,5.1229,5.1229,5.1229,5.1229,5.1229,5.1229,5.1229,5.1229,5.1229,5.1229,5.1229,5.1229,5.1229,5.1229,5.1229,5.1229,5.1229,5.1229,5.1229,5.1229,5.1229,0.0,0.0,0.0,0.0,0.0,0.0,0.0,0.0,0.0,0.0,0.0,0.0,0.0,0.0,0.0,0.0,0.0,0.0,0.0,0.0,0.0,4.2986,4.2986,4.2986,4.2986,4.2986,4.2986,4.2986,4.2986,4.2986,4.2986,4.2986,4.2986,4.2986,4.2986,4.2986,4.2936,4.2439,4.1831,4.1225,4.0752,4.0199,3.9697,3.9697,3.9697,3.9697,3.9697,3.9697,3.9697,3.9697,0.0,0.0,0.0,0.0,4.1219,4.1219,4.2813,4.4638,4.4684,4.5627,4.6609,4.6609,4.6917,4.7135,4.6931,4.7062,4.7266,4.7309,4.7309,4.7309,4.7309,4.8297,4.9179,4.9299,5.0272,5.1079,5.1199,5.1229,5.1229,5.1229,5.1229,5.1229,5.1229,5.1229,5.1229,5.1229,5.1229,5.1229,5.1229,5.1229,5.1229,5.1229,5.1229,5.1229,5.1229,5.1229,5.1229,5.1229,5.1229,5.1229,5.1229,5.1229,5.1229,5.1229,5.1229,5.1229,5.1229,5.1229,5.1229,5.1229,5.1229,5.1229,5.1229,5.1229,5.1229,5.1229,0.0,0.0,0.0,0.0,0.0,0.0,0.0,0.0,0.0,0.0,0.0,0.0,0.0,0.0,0.0,0.0,0.0,0.0,0.0,0.0,0.0,4.2986,4.2986,4.2986,4.2986,4.2986,4.2986,4.2986,4.2986,4.2986,4.2986,4.2986,4.2986,4.2986,4.2986,4.2986,4.2936,4.2439,4.1831,4.1225,4.0752,4.0199,3.9697,3.9697,3.9697,3.9697,3.9697,3.9697,3.9697,3.9697,3.9697,0.0,0.0,0.0,4.1219,4.1219,4.2716,4.4406,4.4638,4.5627,4.6609,4.6609,4.6653,4.6712,4.6887,4.6931,4.7019,4.7266,4.7309,4.7309,4.7309,4.7908,4.8596,4.9209,4.9883,5.0524,5.1139,5.1229,5.1229,5.1229,5.1229,5.1229,5.1229,5.1229,5.1229,5.1229,5.1229,5.1229,5.1229,5.1229,5.1229,5.1229,5.1229,5.1229,5.1229,5.1229,5.1229,5.1229,5.1229,5.1229,5.1229,5.1229,5.1229,5.1229,5.1229,5.1229,5.1229,5.1229,5.1229,5.1229,5.1229,5.1229,5.1229,5.1229,5.1229,5.1229,0.0,0.0,0.0,0.0,0.0,0.0,0.0,0.0,0.0,0.0,0.0,0.0,0.0,0.0,0.0,4.3062,0.0,0.0,0.0,0.0,0.0,4.2986,4.2986,4.2986,4.2986,4.3129,4.324,4.324,4.3432,4.3487,4.3487,4.3295,4.3129,4.2986,4.2986,4.2986,4.2961,4.2766,4.2133,4.125,4.1025,4.045,3.9697,3.9697,3.9697,3.9697,3.9697,3.9697,3.9697,3.9697,3.9697,3.9697,3.9697,0.0,0.0,0.0,4.1419,4.2861,4.4125,4.4989,4.5656,4.609,4.6432,4.658,4.6535,4.6712,4.6931,4.7062,4.7222,4.7309,4.7309,4.7848,4.8506,4.9209,4.9823,5.0435,5.1139,5.1229,5.1229,5.1229,5.1229,5.1229,5.1229,5.1229,5.1229,5.1229,5.1229,5.1229,5.1229,5.1229,5.1229,5.1229,5.1229,5.1229,5.1229,5.1229,5.1229,5.1229,5.1229,5.1229,5.1229,5.1229,5.1229,5.1229,5.1229,5.1229,5.1229,5.1229,5.1229,5.1229,5.1229,5.1229,5.1229,5.1229,5.1229,5.1229,0.0,0.0,0.0,0.0,0.0,0.0,0.0,0.0,0.0,0.0,0.0,0.0,0.0,0.0,0.0,0.0,4.2986,0.0,0.0,0.0,0.0,4.2986,4.2986,4.3042,4.3073,4.3295,4.3381,4.3381,4.3708,4.3844,4.3764,4.3572,4.3406,4.3209,4.3154,4.3073,4.2986,4.3073,4.2464,4.153,4.1351,4.0752,3.9898,3.9747,3.9697,3.9697,3.9697,3.9697,3.9697,3.9697,3.9697,3.9697,3.9697,3.9697,0.0,0.0,0.0,4.1617,4.3388,4.4078,4.4359,4.4972,4.5566,4.5972,4.5837,4.6284,4.6756,4.68,4.6975,4.7135,4.7222,4.7654,4.8267,4.897,4.9553,5.0212,5.0823,5.1109,5.1229,5.1229,5.1229,5.1229,5.1229,5.1229,5.1229,5.1229,5.1229,5.1229,5.1229,5.1229,5.1229,5.1229,5.1229,5.1229,5.1229,5.1229,5.1229,5.1229,5.1229,5.1229,5.1229,5.1229,5.1229,5.1229,5.1229,5.1229,5.1229,5.1229,5.1229,5.1229,5.1229,5.1229,5.1229,5.1229,5.1229,5.1229,0.0,0.0,0.0,0.0,0.0,0.0,0.0,0.0,0.0,0.0,0.0,0.0,4.4744,4.4618,4.4192,4.3062,4.2986,4.2986,4.2986,4.2986,0.0,4.2986,4.2986,0.0,4.3406,4.3381,4.3381,4.3381,4.3708,4.3708,4.3462,4.3708,4.3899,4.3844,4.3517,4.324,4.3042,4.3295,4.2886,4.2112,4.1555,4.0949,4.0425,3.9898,3.9697,3.9697,3.9697,3.9697,3.9697,3.9697,3.9697,3.9697,3.9697,3.9697,3.9697,0.0,0.0,0.0,4.2598,4.2889,4.2937,4.2937,4.3701,4.4499,4.473,4.5537,4.6314,4.6535,4.6653,4.6668,4.6887,4.7135,4.7578,4.8237,4.894,4.9553,5.0166,5.0794,5.1229,5.1229,5.1229,5.1229,5.1229,5.1229,5.1229,5.1229,5.1229,5.1229,5.1229,5.1229,5.1229,5.1229,5.1229,5.1229,5.1229,5.1229,5.1229,5.1229,5.1229,5.1229,5.1229,5.1229,5.1229,5.1229,5.1229,5.1229,5.1229,5.1229,5.1229,5.1229,5.1229,5.1229,5.1229,5.1229,5.1229,5.1229,0.0,0.0,0.0,0.0,0.0,0.0,0.0,0.0,0.0,0.0,0.0,0.0,0.0,4.4317,4.379,4.3037,4.2986,4.2986,4.2986,4.2986,0.0,4.2986,4.2986,4.3042,4.3129,4.3543,4.3708,4.3708,4.4203,4.4341,4.4232,4.4203,4.4148,4.4148,4.3628,4.3351,4.324,4.3184,4.2771,4.2162,4.1555,4.0949,4.045,3.9898,3.9697,3.9697,3.9697,3.9697,3.9697,3.9697,3.9697,3.9697,3.9697,3.9697,3.9697,3.9697,3.9981,4.0465,4.1468,4.1766,4.1963,4.2647,4.3081,4.3559,4.4266,4.4869,4.5446,4.6225,4.6491,4.6624,4.6668,4.6887,4.7344,4.8177,4.888,4.9494,5.0106,5.0764,5.1229,5.1229,5.1229,5.1229,5.1229,5.1229,5.1229,5.1229,5.1229,5.1229,5.1229,5.1229,5.1229,5.1229,5.1229,5.1229,5.1229,5.1229,5.1229,5.1229,5.1229,5.1229,5.1229,5.1229,5.1229,5.1229,5.1229,5.1229,5.1229,5.1229,5.1229,5.1229,5.1229,5.1229,5.1229,5.1229,5.1229,5.1229,0.0,0.0,0.0,0.0,0.0,0.0,0.0,0.0,0.0,4.6301,0.0,0.0,0.0,0.0,4.3589,4.3037,4.2986,4.2986,4.2986,4.2986,4.2986,4.2986,4.3073,4.3184,4.3321,4.3764,4.4064,4.4064,4.4476,4.4668,4.4559,4.4476,4.4422,4.4422,4.3903,4.3628,4.3572,4.3462,4.3148,4.2713,4.1793,4.1235,4.0832,4.0226,3.9973,3.9973,3.9973,3.9973,3.9948,3.9747,3.9697,3.9697,3.9697,3.9697,3.9697,3.9697,3.9697,3.9826,4.0516,4.0693,4.0895,4.1568,4.2012,4.2452,4.3102,4.3937,4.473,4.5401,4.5972,4.6387,4.6447,4.658,4.6948,4.7702,4.8462,4.9164,4.9823,5.0481,5.0913,5.1199,5.1229,5.1229,5.1229,5.1229,5.1229,5.1229,5.1229,5.1229,5.1229,5.1229,5.1229,5.1229,5.1229,5.1229,5.1229,5.1229,5.1229,5.1229,5.1229,5.1229,5.1229,5.1229,5.1229,5.1229,5.1229,5.1229,5.1229,5.1229,5.1229,5.1229,5.1229,5.1229,5.1229,5.1229,5.1229,5.1229,0.0,0.0,0.0,0.0,0.0,0.0,0.0,0.0,4.6301,4.6276,0.0,0.0,0.0,0.0,0.0,4.3037,4.2986,4.2986,4.2986,4.2986,4.2986,4.3042,0.0,0.0,4.3899,4.4148,4.4313,4.4313,4.4559,4.4559,4.4313,4.4559,4.4668,4.4668,4.4422,4.4203,4.401,4.4203,4.4148,4.3797,4.2347,4.1808,4.1757,4.0857,4.0551,4.0551,4.0526,4.0526,4.0425,3.9873,3.9697,3.9697,3.9697,3.9697,3.9697,3.9697,3.9697,3.9697,0.0,0.0,0.0,3.9697,4.0415,4.1169,4.1169,4.2765,4.4219,4.4266,4.511,4.5911,4.6135,4.618,4.6358,4.68,4.7672,4.8506,4.9164,4.9777,5.0435,5.1092,5.1182,5.1182,5.1229,5.1182,5.1182,5.1229,5.1182,5.1182,5.1229,5.1229,5.1229,5.1229,5.1229,5.1229,5.1229,5.1229,5.1229,5.1229,5.1229,5.1229,5.1229,5.1229,5.1229,5.1229,5.1229,5.1229,5.1229,5.1229,5.1229,5.1229,5.1229,5.1229,5.1229,5.1229,5.1229,5.1229,0.0,0.0,0.0,0.0,0.0,0.0,4.6301,4.6301,4.6175,0.0,0.0,0.0,4.4091,4.3539,4.3137,4.2986,4.2986,4.2986,4.2986,4.2986,4.3073,4.3295,4.3351,4.3572,4.3899,4.4148,4.4313,4.4313,4.4559,4.4668,4.4559,4.4668,4.4668,4.4668,4.4613,4.4992,4.5662,4.4476,4.3955,4.3848,4.278,4.2392,4.2261,4.1436,4.105,4.1,4.0651,4.0526,4.0425,3.9873,3.9697,3.9697,3.9697,3.9697,3.9697,3.9697,3.9697,3.9697,3.9697,0.0,0.0,0.0,0.0,0.0,4.1019,4.164,4.2279,4.3081,4.4031,4.4759,4.4851,4.5582,4.6269,4.6373,4.7289,4.8194,4.8666,4.9456,5.0203,5.0828,5.0917,5.1011,5.1182,5.1011,5.1011,5.1182,5.1011,5.1011,5.1182,5.1229,5.1229,5.1229,5.1229,5.1229,5.1229,5.1229,5.1229,5.1229,5.1229,5.1229,5.1229,5.1229,5.1229,5.1229,5.1229,5.1229,5.1229,5.1229,5.1229,5.1229,5.1229,5.1229,5.1229,5.1229,5.1229,5.1229,0.0,0.0,0.0,0.0,0.0,4.6301,4.6301,4.6301,4.6125,0.0,0.0,0.0,4.3539,4.3162,4.2986,4.2986,4.2986,4.2986,4.2986,4.2986,4.3073,4.324,4.3462,4.3708,4.3899,4.4258,4.4476,4.4476,4.4613,4.4668,4.4722,4.5181,4.5395,4.5449,4.59,4.6451,4.7023,4.6058,4.5342,4.4886,4.3962,4.3379,4.2894,4.2131,4.1843,4.1818,4.1358,4.1053,4.0777,4.0224,3.9898,3.9697,3.9697,3.9697,3.9697,3.9697,3.9697,0.0,0.0,0.0,3.9697,3.9697,0.0,0.0,4.0465,4.0895,4.1369,4.2012,4.2958,4.3796,4.4219,4.4915,4.5566,4.6001,4.6696,4.7421,4.8024,4.8932,4.9677,5.0206,5.0532,5.0757,5.0899,5.0757,5.0775,5.1011,5.0917,5.0917,5.1182,5.1229,5.1229,5.1229,5.1229,5.1229,5.1229,5.1229,5.1229,5.1229,5.1229,5.1229,5.1229,5.1229,5.1229,5.1229,5.1229,5.1229,5.1229,5.1229,5.1229,5.1229,5.1229,5.1229,5.1229,5.1229,5.1229,5.1229,0.0,0.0,0.0,4.6301,4.6301,4.6301,4.6301,4.625,4.6024,0.0,4.4844,4.4066,4.3087,4.2986,4.2986,4.2986,4.2986,0.0,4.2986,4.2986,4.3042,4.3098,4.3598,4.3955,4.401,4.4476,4.4668,4.4668,4.483,4.4884,4.4938,4.6058,4.6583,4.6635,4.7559,4.8066,4.8167,4.8167,4.7638,4.6684,4.5777,4.4756,4.3697,4.3131,4.2859,4.278,4.2347,4.1806,4.12,4.0626,4.0099,3.9697,3.9697,3.9697,3.9697,3.9697,3.9697,0.0,0.0,0.0,0.0,3.9697,3.9697,0.0,3.9697,4.0415,4.1019,4.1019,4.1864,4.2889,4.3796,4.4078,4.4452,4.5549,4.5911,4.6384,4.7374,4.8249,4.8975,4.941,5.004,5.0453,5.0501,5.0453,5.0519,5.0775,5.0775,5.0917,5.1182,5.1182,5.1182,5.1229,5.1229,5.1229,5.1229,5.1229,5.1229,5.1229,5.1229,5.1229,5.1229,5.1229,5.1229,5.1229,5.1229,5.1229,5.1229,5.1229,5.1229,5.1229,5.1229,5.1229,5.1229,5.1229,5.1229,5.1229,0.0,0.0,4.6301,4.6301,4.6301,4.6301,4.6301,4.5924,4.5447,4.4869,4.3915,4.3212,4.3011,4.2986,4.2986,4.2986,0.0,0.0,0.0,4.2986,4.3209,4.3734,4.3844,4.4119,4.4531,4.4668,4.4668,4.4668,4.5609,4.6058,4.6058,4.7177,4.7661,4.7661,4.7915,4.8496,4.9317,4.9317,4.917,4.8844,4.7651,4.6417,4.5395,4.4729,4.4514,4.4301,4.2776,4.1806,4.1125,4.0199,3.9798,3.9697,3.9697,3.9697,3.9697,3.9697,3.9697,3.9697,3.9697,3.9697,3.9697,3.9697,3.9697,0.0,3.9697,3.9826,3.9981,3.9981,4.0794,4.1568,4.1739,4.2523,4.3416,4.4452,4.4851,4.5448,4.6783,4.77,4.85,4.9098,4.9772,5.0231,5.0501,5.0309,5.0279,5.0519,5.0567,5.0757,5.1182,5.1011,5.0964,5.1182,5.1229,5.1229,5.1229,5.1229,5.1229,5.1229,5.1229,5.1229,5.1229,5.1229,5.1229,5.1229,5.1229,5.1229,5.1229,5.1229,5.1229,5.1229,5.1229,5.1229,5.1229,5.1229,5.1229,5.1229,0.0,0.0,4.6301,4.6301,4.6446,4.6506,4.6301,4.5943,4.5448,4.4694,4.3778,4.324,4.3432,4.3432,4.3432,4.3432,0.0,0.0,0.0,4.3432,4.3543,4.3899,4.4064,4.4203,4.4476,4.4613,4.4668,4.4668,4.5874,4.6374,4.6426,4.8044,4.8795,4.8795,4.9337,4.9902,5.0412,5.0412,5.0076,4.9513,4.8844,4.7915,4.6892,4.6449,4.5952,4.5289,4.4222,4.2874,4.1392,4.0256,3.98,3.9697,3.9697,3.9697,3.9697,3.9697,3.9697,3.9697,3.9697,3.9697,3.9697,3.9697,3.9697,0.0,0.0,3.9697,3.9697,3.9697,4.0083,4.0592,4.1119,4.1667,4.2355,4.3416,4.3654,4.419,4.537,4.705,4.8197,4.8424,4.928,4.9941,5.0086,4.999,5.0086,5.0453,5.0501,5.0692,5.1182,5.0964,5.0917,5.1182,5.1229,5.1229,5.1229,5.1229,5.1229,5.1229,5.1229,5.1229,5.1229,5.1229,5.1229,5.1229,5.1229,5.1229,5.1229,5.1229,5.1229,5.1229,5.1229,5.1229,5.1229,5.1229,5.1229,5.1229,0.0,0.0,4.6481,4.6481,4.6721,4.6755,4.6415,0.0,4.5537,4.4565,4.3908,4.3572,4.3899,4.3899,4.3899,4.3899,0.0,0.0,4.3899,4.3899,4.3899,4.3955,4.4148,4.4422,4.4668,4.4938,4.5127,4.5342,4.6478,4.7023,4.7023,4.8993,4.9931,4.9979,5.0822,5.1229,5.1229,5.1229,5.0728,4.9931,4.9931,4.9268,4.8296,4.8016,4.7304,4.6372,4.5739,4.4071,4.2023,4.0977,4.0387,4.0102,3.9898,3.9899,3.9874,3.9722,3.9697,3.9697,3.9697,3.9697,3.9697,3.9697,3.9697,3.9697,0.0,0.0,0.0,3.9697,3.9697,3.9929,4.0743,4.0895,4.1269,4.2306,4.2501,4.2937,4.4125,4.6193,4.755,4.7579,4.8827,4.964,4.9494,4.9611,4.9892,5.0405,5.0405,5.0567,5.1041,5.087,5.0822,5.1041,5.1182,5.1182,5.1105,5.1182,5.1229,5.1229,5.1229,5.1229,5.1229,5.1229,5.1229,5.1229,5.1229,5.1229,5.1229,5.1229,5.1229,5.1229,5.1229,5.1229,5.1229,5.1229,5.1229,5.1229,4.7324,4.7087,0.0,0.0,4.7146,0.0,0.0,0.0,4.5226,4.4122,4.3921,4.3844,4.3899,4.3899,4.3899,4.3899,4.3899,4.3899,4.3899,4.3899,4.401,4.4258,4.4258,4.4884,4.6111,4.6164,4.666,4.761,4.8696,4.9268,4.9268,5.046,5.1011,5.1011,5.1182,5.1229,5.1229,5.1229,5.1105,5.1011,5.1011,5.0364,4.9415,4.9112,4.8766,4.8211,4.6185,4.4675,4.3492,4.284,4.2162,4.1451,4.0629,4.0557,4.0613,3.9926,3.9697,3.9697,3.9697,3.9697,3.9697,3.9697,3.9697,3.9697,3.9697,0.0,3.9697,3.9697,0.0,3.9749,3.9826,0.0,0.0,4.1219,4.1369,4.2035,4.4031,4.5072,4.595,4.6801,4.8566,4.9465,4.8885,4.9349,4.9815,5.0135,4.9941,5.0038,5.0548,5.0548,5.0548,5.0596,5.0994,5.1058,5.087,5.1058,5.1229,5.1229,5.1229,5.1229,5.1229,5.1229,5.1229,5.1229,5.1229,5.1229,5.1229,5.1229,5.1229,5.1229,5.1229,5.1229,5.1229,5.1229,5.1229,5.1229,4.9395,4.8678,0.0,0.0,4.9069,0.0,0.0,0.0,4.5776,4.5153,4.4505,4.4422,4.5235,4.4776,4.4613,4.5288,4.4722,4.4367,4.4367,4.4992,0.0,4.4559,4.5741,4.6399,4.6374,4.7023,4.7536,4.8016,4.9042,4.9611,4.9611,5.0728,5.1229,5.1229,5.1229,5.1229,5.1229,5.1229,5.1229,5.1229,5.1229,5.0917,5.0508,5.0412,4.9902,4.9034,4.7113,4.5934,4.5189,4.4644,4.359,4.2396,4.2059,4.1588,4.1034,4.0727,4.0651,4.0651,4.0651,4.0651,4.0576,4.0249,4.0174,4.0099,3.9772,3.9697,3.9697,3.9697,0.0,0.0,0.0,0.0,0.0,0.0,4.0313,4.0844,4.2279,4.36,4.4953,4.6593,4.8188,4.9175,4.9262,4.9524,4.9815,5.0086,4.9844,4.9941,5.0453,5.0501,5.0519,5.0662,5.087,5.1011,5.1011,5.1011,5.1058,5.1229,5.1229,5.1229,5.1229,5.1229,5.1229,5.1229,5.1229,5.1229,5.1229,5.1229,5.1229,5.1229,5.1229,5.1229,5.1229,5.1229,5.1229,5.1229,5.1689,0.0,4.9742,5.0547,5.0321,4.993,4.9521,4.7944,4.6702,4.6478,4.5767,4.5688,4.6739,4.6111,4.5953,4.6791,4.6111,4.5582,4.5582,4.6111,4.6164,4.5635,4.6867,4.7485,4.728,4.8044,4.8596,4.8894,4.9659,5.0028,5.0076,5.0822,5.1229,5.1229,5.1229,5.1229,5.1229,5.1229,5.1229,5.1229,5.1229,5.1229,5.1182,5.1105,5.0603,4.9747,4.8505,4.7567,4.6935,4.6538,4.5372,4.4093,4.3882,4.3023,4.2095,4.1836,4.1544,4.1275,4.1275,4.1275,4.12,4.0852,4.0752,4.0651,4.0249,4.0149,4.0149,4.0149,4.0149,0.0,0.0,0.0,4.0099,3.9948,0.0,4.0209,4.1095,4.2259,4.3758,4.5888,4.7478,4.8798,4.9582,4.9717,4.9766,4.999,4.9815,4.9892,5.0231,5.0405,5.0519,5.0632,5.0728,5.0917,5.1058,5.0917,5.0917,5.1229,5.1229,5.1229,5.1229,5.1229,5.1229,5.1229,5.1229,5.1229,5.1229,5.1229,5.1229,5.1229,5.1229,5.1229,5.1229,5.1229,5.1229,5.1229,5.3843,5.2255,5.0642,5.0696,5.0138,4.9522,4.9037,4.8392,4.7943,4.7915,4.7915,4.7915,4.7915,4.7915,4.7915,4.7915,4.7915,4.7864,4.7864,4.6971,4.6816,4.7864,4.6971,4.7383,4.9464,4.9513,5.0076,5.1135,5.1105,5.1152,5.1152,5.1182,5.1229,5.1229,5.1229,5.1229,5.1229,5.1229,5.1229,5.1229,5.1229,5.1229,5.1182,5.0917,5.0793,5.0728,5.0489,4.9659,4.8717,4.8688,4.7988,4.6936,4.6048,4.5064,4.4045,4.3206,4.2184,4.1275,4.1275,4.1275,4.1275,4.125,4.125,4.125,4.1225,4.1225,4.1225,4.1225,4.1225,4.1225,4.1225,4.1225,0.0,0.0,0.0,0.0,0.0,4.1246,4.2061,4.4153,4.644,4.8304,4.9601,4.9717,4.9717,4.9717,4.9717,4.9717,4.9717,5.0231,5.0405,5.0135,5.0585,5.0793,5.0793,5.0793,5.0917,5.1229,5.1229,5.1229,5.1229,5.1229,5.1229,5.1229,5.1229,5.1229,5.1229,5.1229,5.1229,5.1229,5.1229,5.1229,5.1229,5.1229,5.1229,5.1229,5.3484,5.2556,5.1854,5.2293,5.1775,5.113,5.0535,4.9658,4.9042,4.9042,4.8446,4.8267,4.8993,4.8446,4.8296,4.8993,4.8396,4.8016,4.8016,4.8346,4.8346,4.8016,4.8993,4.9611,4.9611,5.0316,5.0822,5.1229,5.1229,5.1229,5.1229,5.1229,5.1229,5.1229,5.1229,5.1229,5.1229,5.1229,5.1229,5.1229,5.1229,5.1229,5.1182,5.1105,5.1058,5.1058,5.0994,5.0585,5.0095,5.0095,4.9288,4.8217,4.7941,4.6948,4.5681,4.4626,4.3962,4.3367,4.2629,4.2434,4.2333,4.1982,4.1882,4.1781,4.1376,4.1275,4.1275,4.1275,4.1275,4.1275,4.1275,4.1275,0.0,0.0,0.0,0.0,0.0,4.1879,4.3012,4.4802,4.702,4.874,4.9582,4.9717,4.9717,4.9717,4.9717,4.9717,4.9717,5.0038,5.0279,5.0357,5.0375,5.0537,5.1058,5.0757,5.0805,5.1229,5.1229,5.1229,5.1229,5.1229,5.1229,5.1229,5.1229,5.1229,5.1229,5.1229,5.1229,5.1229,5.1229,5.1229,5.1229,5.1229,5.1229,5.1229,5.2845,5.2306,5.2067,5.2725,5.2276,5.1708,5.1289,5.0603,5.0172,5.0172,4.9562,4.9386,5.0076,4.9562,4.9386,5.0124,4.9562,4.9141,4.9141,4.9415,4.9464,4.9141,5.0124,5.046,5.0172,5.087,5.1229,5.1229,5.1229,5.1229,5.1229,5.1229,5.1229,5.1229,5.1229,5.1229,5.1229,5.1229,5.1229,5.1229,5.1229,5.1229,5.1229,5.1229,5.1229,5.1229,5.1229,5.1011,5.0793,5.0793,5.0172,4.9366,4.9366,4.8496,4.7304,4.6553,4.5688,4.4778,4.3907,4.3436,4.3053,4.259,4.2514,4.2414,4.2007,4.1932,4.1932,4.1932,4.1932,4.1932,4.1932,4.1932,0.0,0.0,0.0,0.0,0.0,4.2417,4.3599,4.4726,4.6768,4.8362,4.9042,4.9473,4.9717,4.9717,4.9717,4.9717,4.9717,4.9941,5.0183,5.0357,5.0183,5.0375,5.0947,5.0644,5.0662,5.1058,5.1152,5.1229,5.1229,5.1229,5.1229,5.1229,5.1229,5.1229,5.1229,5.1229,5.1229,5.1229,5.1229,5.1229,5.1229,5.1229,5.1229,5.1229,5.2157,5.1648,5.1409,5.2037,5.1618,5.1229,5.1229,5.1229,5.1229,5.1229,5.1229,5.1229,5.1229,5.1229,5.1229,5.1229,5.1229,5.1229,5.1229,5.0268,5.0124,5.1182,5.022,5.0172,5.1182,5.1229,5.1229,5.1229,5.1229,5.1229,5.1229,5.1229,5.1229,5.1229,5.1229,5.1229,5.1229,5.1229,5.1229,5.1229,5.1229,5.1229,5.1229,5.1229,5.1229,5.1229,5.1229,5.1058,5.0822,5.0822,5.068,5.0548,5.0501,4.9737,4.8844,4.8795,4.7304,4.5555,4.5155,4.4318,4.3436,4.3129,4.3073,4.3073,4.3042,4.2986,4.2986,4.2986,4.2986,4.2986,4.2986,4.2986,4.2811,0.0,0.0,0.0,0.0,4.2776,4.378,4.378,4.5659,4.7225,4.7915,4.905,4.9717,4.9717,4.9717,4.9717,4.9717,4.9941,5.0086,5.0086,5.0086,5.0231,5.0501,5.0501,5.0614,5.0793,5.1058,5.1182,5.1229,5.1182,5.1182,5.1229,5.1229,5.1229,5.1229,5.1229,5.1229,5.1229,5.1229,5.1229,5.1229,5.1229,5.1229,5.1229,5.1468,5.1319,5.1259,5.1439,5.1319,5.1229,5.1229,5.1229,5.1229,5.1229,5.1229,5.1229,5.1229,5.1229,5.1229,5.1229,5.1229,5.1229,5.1229,5.0917,5.0917,5.1182,5.0917,5.0917,5.1182,5.1229,5.1229,5.1229,5.1229,5.1229,5.1229,5.1229,5.1229,5.1229,5.1229,5.1229,5.1229,5.1229,5.1229,5.1229,5.1229,5.1229,5.1229,5.1229,5.1229,5.1229,5.1229,5.1182,5.1105,5.1105,5.1088,5.0994,5.0775,5.0394,4.9863,4.8795,4.7943,4.7126,4.6215,4.5741,4.5342,4.4453,4.4261,4.4042,4.3184,4.2986,4.2986,4.2986,4.2986,4.2986,4.2986,4.2986,4.2936,0.0,0.0,0.0,4.2585,4.2937,4.3233,4.3233,4.4434,4.6027,4.7841,4.905,4.9717,4.9717,4.9717,4.9717,4.9717,4.9766,4.9892,5.0086,4.9941,5.0038,5.0501,5.0501,5.0614,5.0793,5.087,5.1011,5.1182,5.1011,5.1011,5.1229,5.1229,5.1229,5.1229,5.1229,5.1229,5.1229,5.1229,5.1229,5.1229,5.1229,5.1229,5.1229,5.1229,5.1229,5.1229,5.1229,5.1229,5.1229,5.1229,5.1229,5.1229,5.1229,5.1229,5.1229,5.1229,5.1229,5.1229,5.1229,5.1229,5.1229,5.1229,5.1229,5.1229,5.1229,5.1229,5.1229,5.1229,5.1229,5.1229,5.1229,5.1229,5.1229,5.1229,5.1229,5.1229,5.1229,5.1229,5.1229,5.1229,5.1229,5.1229,5.1229,5.1229,5.1229,0.0,5.1229,5.1229,5.1229,5.1229,5.1105,5.1011,5.1011,5.1011,5.1011,5.087,5.0775,5.0662,4.9854,4.9219,4.8524,4.761,4.7047,4.6503,4.5608,4.5047,4.4507,4.3878,4.3351,4.2986,4.2986,4.2986,4.2986,4.2986,4.2986,4.2986,4.2986,4.2986,4.2986,4.2986,4.2986,4.2986,4.2986,4.4398,4.5873,4.7126,4.8274,4.9149,4.9669,4.9717,4.9717,4.9717,4.9717,4.9766,4.9941,4.9766,4.9815,5.0135,5.0279,5.0423,5.0662,5.0775,5.0964,5.1182,5.1058,5.1058,5.1229,5.1229,5.1229,5.1229,5.1229,5.1229,5.1229,5.1229,5.1229,5.1229,5.1229,5.1229,5.1229,5.1229,5.1229,5.1229,5.1229,5.1229,5.1229,5.1229,5.1229,5.1229,5.1229,5.1229,5.1229,5.1229,5.1229,5.1229,5.1229,5.1229,5.1229,5.1229,5.1229,5.1229,5.1229,5.1229,5.1229,5.1229,5.1229,5.1229,5.1229,5.1229,5.1229,5.1229,5.1229,5.1229,5.1229,5.1229,5.1229,5.1229,5.1229,5.1229,5.1229,5.1229,5.1229,5.1229,5.1229,5.1229,5.1229,5.1229,5.1058,5.087,5.087,5.087,5.087,5.0793,5.0964,5.1105,5.1135,5.0442,4.964,4.917,4.8346,4.7434,4.6788,4.5926,4.5154,4.4993,4.4042,4.324,4.324,4.3073,4.2986,4.2986,4.2986,4.2986,4.2986,4.2986,4.2986,4.2986,4.3129,4.3184,4.3042,4.4967,0.0,4.6267,4.7485,4.8653,4.962,4.9717,4.9717,4.9717,4.9717,4.9717,4.9717,4.9717,4.9717,4.9717,4.999,5.0231,5.0501,5.0632,5.087,5.1229,5.1135,5.1135,5.1229,5.1229,5.1229,5.1229,5.1229,5.1229,5.1229,5.1229,5.1229,5.1229,5.1229,5.1229,5.1229,5.1229,5.1229,5.1229,5.1229,5.1229,5.1229,5.1229,5.1229,5.1229,5.1229,5.1229,5.1229,5.1229,5.1229,5.1229,5.1229,5.1229,5.1229,5.1229,5.1229,5.1229,5.1229,5.1229,5.1229,5.1229,5.1229,5.1229,5.1229,5.1229,5.1229,5.1229,5.1229,5.1229,5.1229,5.1229,5.1229,5.1229,5.1229,5.1229,5.1229,5.1229,5.1229,5.1229,5.1229,5.1229,5.1229,5.1229,5.1182,5.1105,5.1105,5.1105,5.1058,5.087,5.0822,5.0822,5.0662,5.0471,5.0327,5.0231,5.0086,4.9669,4.8596,4.8016,4.7508,4.658,4.5342,4.4424,4.4424,4.3657,4.2986,4.2986,4.2986,4.2986,4.2986,4.2986,4.2986,4.2986,4.3823,4.4042,4.3129,4.4967,4.6267,4.6267,4.8145,4.9473,4.9669,4.9717,4.9717,4.9717,4.9717,4.9717,4.9717,4.9717,4.9717,4.9717,4.999,5.0231,5.0501,5.0327,5.0567,5.1182,5.0805,5.0805,5.1229,5.1229,5.1229,5.1229,5.1229,5.1229,5.1229,5.1229,5.1229,5.1229,5.1229,5.1229,5.1229,5.1229,5.1229,5.1229,5.1229,5.1229,5.1229,5.1229,5.1229,5.1229,5.1229,5.1229,5.1229,5.1229,5.1229,5.1229,5.1229,5.1229,5.1229,5.1229,5.1229,5.1229,5.1229,5.1229,5.1229,5.1229,5.1229,5.1229,5.1229,5.1229,5.1229,5.1229,5.1229,5.1229,5.1229,5.1229,5.1229,5.1229,5.1229,5.1229,5.1229,5.1229,5.1229,5.1229,5.1229,5.1229,5.1229,5.1229,5.1229,5.1229,5.1229,5.1229,5.1152,5.087,5.0917,5.0917,5.0596,5.0567,5.0614,5.0327,5.0279,5.0183,4.9591,4.8823,4.8094,4.7661,4.6528,4.5555,4.5555,4.5074,4.4698,4.4698,4.4235,4.4042,4.4615,4.4235,4.4097,4.4643,4.5182,4.5342,4.4752,4.6189,4.7177,4.7177,4.8724,4.9717,4.9717,4.9717,4.9717,4.9717,4.9717,4.9717,4.9717,4.9717,4.9717,4.9717,4.9815,5.0038,5.0279,5.0135,5.0423,5.0964,5.0757,5.0852,5.1229,5.1229,5.1229,5.1229,5.1229,5.1229,5.1229,5.1229,5.1229,5.1229,5.1229,5.1229,5.1229,5.1229,5.1229,5.1229,5.1229,5.1229,5.1229,5.1229,5.1229,5.1229,5.1229,5.1229,5.1229,5.1229,5.1229,5.1229,5.1229,5.1229,5.1229,5.1229,5.1229,5.1229,5.1229,5.1229,5.1229,5.1229,5.1229,5.1229,5.1229,5.1229,5.1139,5.102,5.1139,5.1229,5.1229,5.1229,5.1229,5.1229,5.1229,5.1229,5.1229,5.1229,5.1229,5.1229,5.1229,5.1229,5.1229,5.1229,5.1229,5.1229,5.1229,5.1229,5.1182,5.0964,5.1011,5.1135,5.0787,5.0757,5.0775,5.0346,5.0279,5.0231,5.0183,4.9326,4.8474,4.8696,4.7661,4.6632,4.6632,4.6476,4.6267,4.6267,4.5608,4.5235,4.5873,4.5449,4.5235,4.5873,4.6372,4.658,4.6319,4.7536,4.8274,4.8021,4.905,4.9717,4.9717,4.9717,4.9717,4.9717,4.9717,4.9717,4.9717,4.9717,4.9717,4.9717,4.9717,4.9815,5.0086,5.0038,5.0279,5.0728,5.0728,5.087,5.1105,5.1182,5.1229,5.1229,5.1229,5.1229,5.1229,5.1229,5.1229,5.1229,5.1229,5.1229,5.1229,5.1229,5.1229,5.1229,5.1229,5.1229,5.1229,5.1229,5.1229,5.1229,5.1229,5.1229,5.1229,5.1229,5.1229,5.1229,5.1229,5.1229,5.1229,5.1229,5.1229,5.1229,5.1229,5.1229,5.1229,5.1229,5.1229,5.1229,5.1229,5.1229,5.0853,5.0315,5.093,5.1229,5.1229,5.1229,5.1229,5.1229,5.1229,5.1229,5.1229,5.1229,5.1229,5.1229,5.1229,5.1229,5.1229,5.1229,5.1229,5.1229,5.1229,5.1229,5.1229,5.1182,5.1182,5.1182,5.1135,5.1182,5.1105,5.0822,5.0698,5.068,5.0501,5.0183,4.9941,4.9941,4.8852,4.7869,4.7869,4.7023,4.6267,4.6267,4.6215,4.5873,4.4993,4.5555,4.5873,4.4993,4.6556,4.7434,4.6424,4.8223,4.91,4.8072,4.905,4.9717,4.9717,4.9717,4.9717,4.9717,4.9717,4.9717,4.9717,4.9717,4.9717,4.9717,4.9717,4.9815,5.0086,4.9844,5.0038,5.0548,5.0548,5.0662,5.087,5.1058,5.1229,5.1229,5.1229,5.1229,5.1229,5.1229,5.1229,5.1229,5.1229,5.1229,5.1229,5.1229,5.1229,5.1229,5.1229,5.1229,5.1229,5.1229,5.1229,5.1229,5.1229,5.1229,5.1229,5.1229,5.1229,5.1229,5.1229,5.1229,5.1229,5.1229,5.1229,5.1229,5.1229,5.1229,5.1229,5.1229,5.1229,5.1229,5.1229,5.1229,5.1079,5.084,5.1079,5.1229,5.1229,5.1229,5.1229,5.1229,5.1229,5.1229,5.1229,5.1229,5.1229,5.1229,5.1229,5.1229,5.1229,5.1229,5.1105,5.0964,5.0964,5.1058,5.1182,5.1011,5.1058,5.1135,5.0852,5.0852,5.0917,5.071,5.0614,5.0614,5.0501,5.0309,5.0086,5.0086,4.9522,4.9001,4.9001,4.8674,4.8374,4.8374,4.7791,4.7383,4.7638,4.7485,4.7383,4.7689,4.8474,4.8852,4.8424,4.9149,4.9522,4.905,4.9424,4.9717,4.9717,4.9717,4.9717,4.9717,4.9717,4.9717,4.9717,4.9717,4.9717,4.9717,4.9717,4.9717,4.9892,4.9717,4.9892,5.0279,5.0453,5.0614,5.0793,5.0917,5.0964,5.0964,5.1105,5.1229,5.1229,5.1229,5.1229,5.1229,5.1229,5.1229,5.1229,5.1229,5.1229,5.1229,5.1229,5.1229,5.1229,5.1229,5.1229,5.1229,5.1229,5.1229,5.1229,5.1229,5.1229,5.1229,5.1229,5.1229,5.1229,5.1229,5.1229,5.1229,5.1229,5.1229,5.1229,5.1229,5.1229,5.1229,5.1229,5.1229,5.1109,5.093,5.093,5.0973,5.1229,5.1229,5.1229,5.1229,5.1229,5.1229,5.1229,5.1229,5.1229,5.1229,5.1229,5.1229,5.1229,5.1229,5.1058,5.0917,5.0917,5.1058,5.1152,5.087,5.0917,5.1011,5.0757,5.071,5.068,5.0614,5.0471,5.0405,5.0501,5.0309,5.0086,5.0086,4.9941,4.9766,4.9717,4.9717,4.9717,4.9717,4.905,4.8653,4.91,4.8802,4.8653,4.91,4.9473,4.9717,4.9717,4.9717,4.9717,4.9717,4.9717,4.9717,4.9717,4.9717,4.9717,4.9717,4.9717,4.9717,4.9717,4.9717,4.9717,4.9717,4.9717,4.9717,4.9717,4.9717,4.9766,4.999,5.0231,5.0519,5.0793,5.0793,5.0793,5.0822,5.1058,5.1229,5.1229,5.1229,5.1229,5.1229,5.1229,5.1229,5.1229,5.1229,5.1229,5.1229,5.1229,5.1229,5.1229,5.1229,5.1229,5.1229,5.1229,5.1229,5.1229,5.1229,5.1229,5.1229,5.1229,5.1229,5.1229,5.1229,5.1229,5.1229,5.1229,5.1229,5.1229,5.1229,5.1229,5.1229,5.1229,5.1229,5.0853,5.0196,5.0196,5.0554,5.1229,5.1229,5.1229,5.1229,5.1229,5.1229,5.1229,5.1229,5.1229,5.1229,5.1229,5.1229,5.1229,5.1229,5.1229,5.1229,5.1229,5.1229,5.1152,5.087,5.0793,5.087,5.1135,5.0852,5.0548,5.0728,5.0442,5.0183,5.0453,5.0309,5.0086,5.0086,5.0086,5.0038,4.9717,4.9717,4.9717,4.9717,4.9669,4.9326,4.8173,4.8951,4.9297,4.8173,4.9001,4.9717,4.9717,4.9717,4.9717,4.9717,4.9717,4.9717,4.9717,4.9717,4.9717,4.9717,4.9717,4.9717,4.9717,4.9717,4.9717,4.9717,4.9717,4.9717,4.9717,4.9717,4.9717,4.9717,4.999,5.0346,5.0793,5.0793,5.0793,5.0822,5.1058,5.1229,5.1229,5.1229,5.1229,5.1229,5.1229,5.1229,5.1229,5.1229,5.1229,5.1229,5.1229,5.1229,5.1229,5.1229,5.1229,5.1229,5.1229,5.1229,5.1229,5.1229,5.1229,5.1229,5.1229,5.1229,5.1229,5.1229,5.1229,5.1229,5.1229,5.1229,5.1229,5.1229,5.1229,5.1229,5.1229,5.1229,5.1109,5.0853,5.0853,5.102,5.1229,5.1229,5.1229,5.1229,5.1229,5.1229,5.1229,5.1229,5.1229,5.1229,5.1229,5.1229,5.1229,5.1229,5.1058,5.0917,5.0917,5.0917,5.0917,5.0822,5.0917,5.1011,5.0805,5.071,5.068,5.0614,5.0471,5.0357,5.0231,5.0135,5.0038,4.9892,4.9815,4.9766,4.9717,4.9717,4.9717,4.9717,4.9717,4.9571,4.9198,4.9473,4.9571,4.9198,4.9473,4.9717,4.9717,4.9717,4.9717,4.9717,4.9717,4.9717,4.9717,4.9717,4.9717,4.9717,4.9717,4.9717,4.9717,4.9717,4.9717,4.9717,4.9717,4.9717,4.9717,4.9717,4.9766,4.999,4.9892,5.0038,5.0298,5.0519,5.0614,5.0614,5.1041,5.1229,5.1229,5.1229,5.1229,5.1229,5.1229,5.1229,5.1229,5.1229,5.1229,5.1229,5.1229,5.1229,5.1229,5.1229,5.1229,5.1229,5.1229,5.1229,5.1229,5.1229,5.1229,5.1229,5.1229,5.1229,5.1229,5.1229,5.1229,5.1229,5.1229,5.1229,5.1229,5.1229,5.1229,5.1229,5.1229,5.1229,5.1229,5.1229,5.1229,5.1229,5.1229,5.1229,5.1229,5.1229,5.1229,5.1229,5.1229,5.1229,5.1229,5.1229,5.1229,5.1229,5.1229,5.1229,5.1058,5.0964,5.0964,5.0964,5.0917,5.0822,5.0917,5.0964,5.071,5.0614,5.0537,5.0501,5.0357,5.0183,5.0231,5.0183,5.0038,4.9892,4.9766,4.9717,4.9717,4.9717,4.9717,4.9717,4.9717,4.9717,4.9717,4.9717,4.9717,4.9717,4.9717,4.9717,4.9717,4.9717,4.9717,4.9717,4.9717,4.9717,4.9717,4.9717,4.9717,4.9717,4.9717,4.9717,4.9717,4.9717,4.9717,4.9717,4.9717,4.9717,4.9717,4.9717,4.9815,5.0086,4.9815,4.9844,5.0086,5.0279,5.0405,5.0548,5.0899,5.1105,5.1229,5.1229,5.1229,5.1229,5.1229,5.1229,5.1229,5.1229,5.1229,5.1229,5.1229,5.1229,5.1229,5.1229,5.1229,5.1229,5.1229,5.1229,5.1229,5.1229,5.1229,5.1229,5.1229,5.1229,5.1229,5.1229,5.1229,5.1229,5.1229,5.1229,5.1229,5.1229,5.1229,5.1229,5.1229,5.1229,5.1229,5.1229,5.1229,5.1229,5.1229,5.1229,5.1229,5.1229,5.1229,5.1229,5.1229,5.1229,5.1229,5.1229,5.1229,5.1229,5.1229,5.1229,5.1182,5.1182,5.1182,5.1182,5.1135,5.087,5.0775,5.0775,5.0775,5.0442,5.0183,5.0405,5.0135,4.9892,5.0357,5.0279,5.0086,5.0086,4.9892,4.9717,4.9717,4.9717,4.9717,4.9717,4.9717,4.9717,4.9717,4.9717,4.9717,4.9717,4.9717,4.9717,4.9717,4.9717,4.9717,4.9717,4.9717,4.9717,4.9717,4.9717,4.9717,4.9717,4.9717,4.9717,4.9717,4.9717,4.9717,4.9717,4.9717,4.9717,4.9717,4.9717,4.9815,5.0038,4.9815,4.9815,5.0086,5.0086,5.0231,5.0501,5.0728,5.0964,5.1182,5.1182,5.1229,5.1229,5.1229,5.1229,5.1229,5.1229,5.1229,5.1229,5.1229,5.1229,5.1229,5.1229,5.1229,5.1229,5.1229,5.1229,5.1229,5.1229,5.1229,5.1229,5.1229,5.1229,5.1229,5.1229,5.1229,5.1229,5.1229,5.1229,5.1229,5.1229,5.1229,5.1229,5.1229,5.1229,5.1229,5.1229,5.1229,5.1229,5.1229,5.1229,5.1229,5.1229,5.1229,5.1229,5.1229,5.1229,5.1229,5.1229,5.1229,5.1229,5.1229,5.1229,5.1058,5.0917,5.0917,5.0805,5.0644,5.0567,5.0567,5.0519,5.0327,5.0327,5.0357,5.0231,5.0231,5.0279,5.0183,4.999,4.9766,4.9766,4.9717,4.9717,4.9717,4.9717,4.9717,4.9717,4.9717,4.9717,4.9717,4.9717,4.9717,4.9717,4.9717,4.9717,4.9717,4.9717,4.9717,4.9717,4.9717,4.9717,4.9717,4.9717,4.9717,4.9717,4.9717,4.9717,4.9717,4.9717,4.9717,4.9717,4.9717,4.9717,4.9717,4.9717,4.9717,4.9766,4.9717,4.9717,4.9815,5.0231,5.0357,5.0231,5.0822,5.1011,5.0917,5.1105,5.1229,5.1229,5.1229,5.1229,5.1229,5.1289,5.1229,5.1229,5.1229,5.1229,5.1229,5.1229,5.1229,5.1229,5.1229,5.1229,5.1229,5.1229,5.1229,5.1229,5.1229,5.1229,5.1229,5.1229,5.1229,5.1229,5.1229,5.1229,5.1229,5.1229,5.1229,5.1229,5.1229,5.1229,5.1229,5.1229,5.1229,5.1229,5.1229,5.1229,5.1229,5.1229,5.1229,5.1229,5.1229,5.1229,5.1229,5.1229,5.1229,5.1229,5.1182,5.1058,5.0917,5.0793,5.0793,5.0728,5.0662,5.0662,5.0567,5.0453,5.0183,5.0183,5.0231,4.999,5.0038,5.0086,4.9941,4.9815,4.9717,4.9717,4.9717,4.9717,4.9717,4.9717,4.9717,4.9717,4.9717,4.9717,4.9717,4.9717,4.9717,4.9717,4.9717,4.9717,4.9717,4.9717,4.9717,4.9717,4.9717,4.9717,4.9717,4.9717,4.9717,4.9717,4.9717,4.9717,4.9717,4.9717,4.9717,4.9717,4.9717,4.9717,4.9717,4.9717,4.9717,4.9717,4.9717,4.9717,4.9717,5.0038,5.0183,5.0279,5.071,5.0852,5.0822,5.1105,5.1105,5.1011,5.1152,5.1229,5.1229,5.1468,5.1289,5.1229,5.1229,5.1229,5.1229,5.1229,5.1229,5.1229,5.1229,5.1229,5.1229,5.1229,5.1229,5.1229,5.1229,5.1229,5.1229,5.1229,5.1229,5.1229,5.1229,5.1229,5.1229,5.1229,5.1229,5.1229,5.1229,5.1229,5.1229,5.1229,5.1229,5.1229,5.1229,5.1229,5.1229,5.1229,5.1229,5.1229,5.1229,5.1229,5.1229,5.1229,5.1229,5.1229,5.1182,5.0964,5.0822,5.0793,5.0793,5.0775,5.0775,5.0775,5.0614,5.0405,5.0183,5.0086,4.999,4.9815,4.9766,4.9766,4.9766,4.9717,4.9717,4.9717,4.9717,4.9717,4.9717,4.9717,4.9717,4.9717,4.9717,4.9717,4.9717,4.9717,4.9717,4.9717,4.9717,4.9717,4.9717,4.9717,4.9717,4.9717,4.9717,4.9717,4.9717,4.9717,4.9717,4.9717,4.9717,4.9717,4.9717,4.9717,4.9717,4.9717,4.9717,4.9717,4.9717,4.9717,4.9717,4.9717,4.9717,4.9717,4.9717,4.9717,5.0038,5.0453,5.0548,5.0662,5.0822,5.1058,5.1011,5.087,5.1058,5.1182,5.1229,5.2067,5.1588,5.1229,5.1229,5.1229,5.1229,5.1229,5.1229,5.1229,5.1229,5.1229,5.1229,5.1229,5.1229,5.1229,5.1229,5.1229,5.1229,5.1229,5.1229,5.1229,5.1229,5.1229,5.1229,5.1229,5.1229,5.1229,5.1229,5.1229,5.1229,5.1229,5.1229,5.1229,5.1229,5.1229,5.1229,5.1229,5.1229,5.1229,5.1229,5.1229,5.1229,5.1229,5.1229,5.1229,5.1182,5.1152,5.1011,5.0793,5.0793,5.068,5.0548,5.0548,5.0375,5.0135,5.0086,4.9941,4.9766,4.999,5.0038,5.0038,5.0038,4.9892,4.9717,4.9717,4.9717,4.9717,4.9717,4.9717,4.9717,4.9717,4.9717,4.9717,4.9717,4.9717,4.9717,4.9717,4.9717,4.9717,4.9717,4.9717,4.9717,4.9717,4.9717,4.9717,4.9717,4.9717,4.9717,4.9717,4.9717,4.9717,4.9717,4.9717,4.9717,4.9717,4.9717,4.9717,4.9717,4.9717,4.9717,4.9717,4.9717,4.9717,4.9717,4.9941,5.0086,5.0183,5.0585,5.0775,5.0793,5.087,5.0964,5.1105,5.0917,5.1011,5.1229,5.2336,5.1947,5.1618,5.1289,5.1229,5.1229,5.1229,5.1229,5.1229,5.1229,5.1229,5.1229,5.1229,5.1229,5.1229,5.1229,5.1229,5.1229,5.1229,5.1229,5.1229,5.1229,5.1229,5.1229,5.1229,5.1229,5.1229,5.1229,5.1229,5.1229,5.1229,5.1229,5.1229,5.1229,5.1229,5.1229,5.1229,5.1229,5.1229,5.1229,5.1229,5.1229,5.1229,5.1229,5.1229,5.1182,5.1058,5.0917,5.0793,5.0793,5.0728,5.0662,5.0662,5.0519,5.0279,5.0135,4.9941,4.9717,4.9844,4.9892,4.9892,4.9892,4.9766,4.9717,4.9717,4.9717,4.9717,4.9717,4.9717,4.9717,4.9717,4.9717,4.9717,4.9717,4.9717,4.9717,4.9717,4.9717,4.9717,4.9717,4.9717,4.9717,4.9717,4.9717,4.9717,4.9717,4.9717,4.9717,4.9717,4.9717,4.9717,4.9717,4.9717,4.9717,4.9717,4.9717,4.9717,4.9717,4.9717,4.9717,4.9717,4.9717,4.9717,4.9717,4.9815,5.0038,5.0327,5.0423,5.0519,5.0662,5.0775,5.0822,5.0852,5.0964,5.1058,5.1229,5.2875,5.2426,5.2037,5.1528,5.1319,5.1229,5.1229,5.1229,5.1229,5.1229,5.1229,5.1229,5.1229,5.1229,5.1229,5.1229,5.1229,5.1229,5.1229,5.1229,5.1229,5.1229,5.1229,5.1229,5.1229,5.1229,5.1229,5.1229,5.1229,5.1229,5.1229,5.1229,5.1229,5.1229,5.1229,5.1229,5.1229,5.1229,5.1229,5.1229,5.1229,5.1229,5.1229,5.1229,5.1229,5.1182,5.0917,5.0793,5.0793,5.0793,5.0775,5.0728,5.0822,5.0585,5.0357,5.0135,4.9941,4.9717,4.9717,4.9717,4.9717,4.9717,4.9717,4.9717,4.9717,4.9717,4.9717,4.9717,4.9717,4.9717,4.9717,4.9717,4.9717,4.9717,4.9717,4.9717,4.9717,4.9717,4.9717,4.9717,4.9717,4.9717,4.9717,4.9717,4.9717,4.9717,4.9717,4.9717,4.9717,4.9717,4.9717,4.9717,4.9717,4.9717,4.9717,4.9717,4.9717,4.9717,4.9717,4.9717,4.9717,4.9717,4.9717,4.9717,4.9717,4.999,5.0501,5.0183,5.0279,5.0567,5.0632,5.0585,5.0614,5.0899,5.1135,5.1229,5.4072,5.3054,5.2187,5.2127,5.1618,5.1229,5.1229,5.1229,5.1229,5.1229,5.1229,5.1229,5.1229,5.1229,5.1229,5.1229,5.1229,5.1229,5.1229,5.1229,5.1229,5.1229,5.1229,5.1229,5.1229,5.1229,5.1229,5.1229,5.1229,5.1229,5.1229,5.1229,5.1229,5.1229,5.1229,5.1229,5.1229,5.1229,5.1229,5.1229,5.1229,5.1229,5.1229,5.1229,5.1229,5.1182,5.0917,5.0793,5.0793,5.0793,5.071,5.0519,5.0728,5.0489,5.0135,5.0086,4.9941,4.9717,4.9717,4.9717,4.9717,4.9717,4.9717,4.9717,4.9717,4.9717,4.9717,4.9717,4.9717,4.9717,4.9717,4.9717,4.9717,4.9717,4.9717,4.9717,4.9717,4.9717,4.9717,4.9717,4.9717,4.9717,4.9717,4.9717,4.9717,4.9717,4.9717,4.9717,4.9717,4.9717,4.9717,4.9717,4.9717,4.9717,4.9717,4.9717,4.9717,4.9717,4.9717,4.9717,4.9717,4.9717,4.9717,4.9717,4.9717,4.999,5.0501,5.0183,5.0346,5.0728,5.0327,5.0394,5.0775,5.0614,5.0805,5.1229,5.4281,5.3803,5.3174,5.2336,5.2007,5.1678,5.1289,5.1229,5.1229,5.1229,5.1229,5.1229,5.1229,5.1229,5.1229,5.1229,5.1229,5.1229,5.1229,5.1229,5.1229,5.1229,5.1229,5.1229,5.1229,5.1229,5.1229,5.1229,5.1229,5.1229,5.1229,5.1229,5.1229,5.1229,5.1229,5.1229,5.1229,5.1229,5.1229,5.1182,5.1011,5.1058,5.1182,5.0852,5.0852,5.0917,5.071,5.0614,5.0614,5.0614,5.0567,5.0501,5.0567,5.0375,5.0086,4.9892,4.9766,4.9717,4.9717,4.9717,4.9717,4.9717,4.9717,4.9717,4.9717,4.9717,4.9717,4.9717,4.9717,4.9717,4.9717,4.9717,4.9717,4.9717,4.9717,4.9717,4.9717,4.9717,4.9717,4.9717,4.9717,4.9717,4.9717,4.9717,4.9717,4.9717,4.9717,4.9717,4.9717,4.9717,4.9717,4.9717,4.9717,4.9717,4.9717,4.9717,4.9717,4.9717,4.9717,4.9717,4.9717,4.9717,4.9717,4.9717,4.9717,4.9941,5.0231,5.0135,5.0231,5.0346,5.0327,5.0471,5.0614,5.0662,5.087,5.1229,5.461,5.4341,5.3922,5.2995,5.2486,5.2037,5.1588,5.1349,5.1229,5.1229,5.1229,5.1229,5.1229,5.1229,5.1229,5.1229,5.1229,5.1229,5.1229,5.1105,5.1105,5.1229,5.1229,5.1229,5.1229,5.1229,5.1229,5.1229,5.1229,5.1229,5.1229,5.1229,5.1229,5.1229,5.1229,5.1229,5.1229,5.1229,5.1229,5.1182,5.1011,5.1058,5.1182,5.0757,5.068,5.0775,5.0567,5.0453,5.0405,5.0453,5.0405,5.0231,5.0357,5.0183,4.9941,4.9717,4.9717,4.9717,4.9717,4.9717,4.9717,4.9717,4.9717,4.9717,4.9717,4.9717,4.9717,4.9717,4.9717,4.9717,4.9717,4.9717,4.9717,4.9717,4.9717,4.9717,4.9717,4.9717,4.9717,4.9717,4.9717,4.9717,4.9717,4.9717,4.9717,4.9717,4.9717,4.9717,4.9717,4.9717,4.9717,4.9717,4.9717,4.9717,4.9717,4.9717,4.9717,4.9717,4.9717,4.9717,4.9717,4.9717,4.9717,4.9717,4.9717,4.9892,5.0231,5.0135,5.0135,5.0231,5.0357,5.0453,5.0501,5.0662,5.0917,5.1229,5.5179,5.467,5.4221,5.4221,5.3114,5.2217,5.2217,5.1648,5.1229,5.1229,5.1229,5.1229,5.1229,5.1229,5.1229,5.1229,5.1229,5.1229,5.1229,5.0964,5.0917,5.1182,5.1182,5.1229,5.1229,5.1229,5.1229,5.1229,5.1229,5.1229,5.1229,5.1229,5.1229,5.1229,5.1229,5.1229,5.1229,5.1229,5.1229,5.1229,5.1229,5.1229,5.1182,5.0917,5.0793,5.0775,5.0567,5.0357,5.0135,5.0405,5.0135,4.9717,5.0038,4.9941,4.9717,4.9717,4.9717,4.9717,4.9717,4.9717,4.9717,4.9717,4.9717,4.9717,4.9717,4.9717,4.9717,4.9717,4.9717,4.9717,4.9717,4.9717,4.9717,4.9717,4.9717,4.9717,4.9717,4.9717,4.9717,4.9717,4.9717,4.9717,4.9717,4.9717,4.9717,4.9717,4.9717,4.9717,4.9717,4.9717,4.9717,4.9717,4.9717,4.9717,4.9717,4.9717,4.9717,4.9717,4.9717,4.9717,4.9717,4.9717,4.9717,4.9717,4.9717,4.999,5.0453,5.0183,5.0231,5.0453,5.0183,5.0279,5.0501,5.0501,5.0805,5.1229,5.5179,5.5029,5.476,5.4281,5.3892,5.3443,5.2965,5.2336,5.1917,5.1917,5.1498,5.1229,5.1229,5.1229,5.1229,5.1229,5.1229,5.1229,5.1229,5.1105,5.1011,5.0917,5.0805,5.0852,5.1182,5.1011,5.1011,5.1229,5.1229,5.1229,5.1229,5.1229,5.1229,5.1229,5.1229,5.1229,5.1229,5.1229,5.1229,5.1182,5.1011,5.1011,5.1182,5.0757,5.068,5.0775,5.0567,5.0453,5.0405,5.0453,5.0279,4.999,4.9844,4.9766,4.9717,4.9717,4.9717,4.9717,4.9717,4.9717,4.9717,4.9717,4.9717,4.9717,4.9717,4.9717,4.9717,4.9717,4.9717,4.9717,4.9717,4.9717,4.9717,4.9717,4.9717,4.9717,4.9717,4.9717,4.9717,4.9717,4.9717,4.9717,4.9717,4.9717,4.9717,4.9717,4.9717,4.9717,4.9717,4.9717,4.9717,4.9717,4.9717,4.9717,4.9717,4.9717,4.9717,4.9717,4.9717,4.9717,4.9717,4.9717,4.9717,4.9717,4.9717,4.9766,4.999,5.0231,5.0357,5.0231,5.0357,5.0519,5.068,5.0519,5.0805,5.1229,5.5179,5.5179,5.5059,5.467,5.4371,5.4072,5.3653,5.3025,5.2606,5.2606,5.2007,5.1618,5.1618,5.1379,5.1229,5.1229,5.1229,5.1229,5.1229,5.1105,5.1011,5.0964,5.0567,5.0519,5.0899,5.0822,5.0822,5.0899,5.1135,5.1152,5.1058,5.1152,5.1105,5.1058,5.1058,5.1058,5.1058,5.1058,5.1105,5.1182,5.1011,5.1058,5.1182,5.0757,5.0662,5.071,5.0614,5.0423,5.0231,5.0453,5.0231,4.9941,4.9717,4.9717,4.9717,4.9717,4.9717,4.9717,4.9717,4.9717,4.9717,4.9717,4.9717,4.9717,4.9717,4.9717,4.9717,4.9717,4.9717,4.9717,4.9717,4.9717,4.9717,4.9717,4.9717,4.9717,4.9717,4.9717,4.9717,4.9717,4.9717,4.9717,4.9717,4.9717,4.9717,4.9717,4.9717,4.9717,4.9717,4.9717,4.9717,4.9717,4.9717,4.9717,4.9717,4.9717,4.9717,4.9717,4.9717,4.9717,4.9717,4.9717,4.9717,4.9717,4.9717,4.9766,4.9892,5.0357,5.0405,5.0279,5.0453,5.0614,5.0775,5.0567,5.0805,5.1229,5.5179,5.5179,5.5179,5.5179,5.47,5.4311,5.4311,5.3713,5.3264,5.3264,5.2695,5.2276,5.2276,5.1708,5.1319,5.1319,5.1259,5.1229,5.1229,5.0964,5.0917,5.1152,5.0519,5.0231,5.0453,5.0632,5.0632,5.0501,5.0947,5.1011,5.0775,5.1011,5.1011,5.0775,5.0775,5.0775,5.0775,5.0775,5.0917,5.1135,5.1182,5.1182,5.1105,5.0917,5.068,5.0548,5.0728,5.0346,4.9815,5.0309,5.0135,4.9717,4.9717,4.9717,4.9717,4.9717,4.9717,4.9717,4.9717,4.9717,4.9717,4.9717,4.9717,4.9717,4.9717,4.9717,4.9717,4.9717,4.9717,4.9717,4.9717,4.9717,4.9717,4.9717,4.9717,4.9717,4.9717,4.9717,4.9717,4.9717,4.9717,4.9717,4.9717,4.9717,4.9717,4.9717,4.9717,4.9717,4.9717,4.9717,4.9717,4.9717,4.9717,4.9717,4.9717,4.9717,4.9717,4.9717,4.9717,4.9717,4.9717,4.9717,4.9717,4.9717,4.9717,4.9815,5.0086,5.0405,5.0501,5.0501,5.0501,5.0662,5.0822,5.0614,5.0805,5.1229,5.5179,5.5179,5.5179,5.5179,5.5059,5.497,5.497,5.4401,5.3982,5.3982,5.3384,5.2965,5.2965,5.2366,5.1977,5.1977,5.1498,5.1229,5.1229,5.1152,5.1058,5.0917,5.0567,5.0357,5.0183,5.0231,5.0327,5.0501,5.0596,5.0614,5.0596,5.0614,5.0644,5.0596,5.0596,5.0596,5.0596,5.0596,5.0596,5.0692,5.0822,5.0917,5.087,5.0822,5.0775,5.0728,5.0614,5.0471,5.0309,5.0231,5.0086,4.999,4.9766,4.9717,4.9717,4.9717,4.9717,4.9717,4.9717,4.9717,4.9717,4.9717,4.9717,4.9717,4.9717,4.9717,4.9717,4.9717,4.9717,4.9717,4.9717,4.9717,4.9717,4.9717,4.9717,4.9717,4.9717,4.9717,4.9717,4.9717,4.9717,4.9717,4.9717,4.9717,4.9717,4.9717,4.9717,4.9717,4.9717,4.9717,4.9717,4.9717,4.9717,4.9717,4.9717,4.9717,4.9717,4.9717,4.9717,4.9717,4.9717,4.9717,4.9717,4.9717,4.9717,4.9717,4.9815,5.0309,5.0501,5.0501,5.068,5.087,5.1058,5.0822,5.0917,5.1229,5.5179,5.5179,5.5179,5.5179,5.5179,5.5179,5.5179,5.491,5.467,5.467,5.4072,5.3683,5.3683,5.3084,5.2665,5.2665,5.2067,5.1678,5.1678,5.1678,5.1631,5.1488,5.1576,5.1463,5.119,5.1042,5.0701,5.0135,5.0357,5.0453,5.0309,5.0453,5.0453,5.0309,5.0309,5.0309,5.0309,5.0309,5.0405,5.0501,5.0614,5.0662,5.0662,5.0662,5.0614,5.0442,5.0471,5.0405,5.0279,4.999,4.9941,4.9892,4.9717,4.9717,4.9717,4.9717,4.9717,4.9717,4.9717,4.9717,4.9717,4.9717,4.9717,4.9717,4.9717,4.9717,4.9717,4.9717,4.9717,4.9717,4.9717,4.9717,4.9717,4.9717,4.9717,4.9717,4.9717,4.9717,4.9717,4.9717,4.9717,4.9717,4.9717,4.9717,4.9717,4.9717,4.9717,4.9766,4.9892,4.9766,4.9766,4.9892,4.9766,4.9717,4.9717,4.9717,4.9717,4.9717,4.9717,4.9717,4.9717,4.9717,4.9717,4.9717,4.9717,4.9717,4.9717,5.0279,5.0501,5.0501,5.0728,5.0964,5.1182,5.0917,5.0964,5.1229,5.5179,5.5179,5.5179,5.5179,5.5179,5.5179,5.5179,5.5179,5.5179,5.5179,5.473,5.4371,5.4371,5.3773,5.3294,5.3204,5.2665,5.2366,5.2366,5.2366,5.2366,5.2366,5.2662,5.2714,5.2466,5.2168,5.1362,5.0017,5.0486,5.0583,5.0359,5.0632,5.0632,5.0359,5.0408,5.035,5.0233,5.0233,5.0348,5.0501,5.0501,5.0501,5.0548,5.0453,5.0327,5.0231,5.0327,5.0231,4.999,4.9766,4.9717,4.9717,4.9717,4.9717,4.9717,4.9717,4.9717,4.9717,4.9717,4.9717,4.9717,4.9717,4.9717,4.9717,4.9717,4.9717,4.9717,4.9717,4.9717,4.9717,4.9717,4.9717,4.9717,4.9717,4.9717,4.9717,4.9717,4.9717,4.9717,4.9717,4.9717,4.9717,4.9717,4.9717,4.9717,4.9717,4.9717,4.9766,5.0038,4.9815,4.9815,5.0086,4.9815,4.9717,4.9766,4.9717,4.9717,4.9717,4.9717,4.9717,4.9717,4.9717,4.9717,4.9717,4.9717,4.9717,4.9717,5.0279,5.0501,5.0548,5.0775,5.1011,5.1182,5.0964,5.1011,5.1229,5.5179,5.5179,5.5179,5.5179,5.5179,5.5179,5.5179,5.5179,5.5179,5.5179,5.5119,5.5059,5.5059,5.4461,5.3832,5.3234,5.3084,5.3054,5.3054,5.3054,5.3054,5.3054,5.29,5.2812,5.2763,5.2238,5.175,5.1352,5.1403,5.1403,5.1403,5.1654,5.1654,5.1403,5.1654,5.1432,5.0856,5.0856,5.0759,5.0501,5.0501,5.0614,5.0728,5.0327,5.0346,5.0632,5.0009,4.9766,4.9717,4.9717,4.9717,4.9717,4.9717,4.9717,4.9717,4.9717,4.9717,4.9717,4.9717,4.9717,4.9717,4.9717,4.9717,4.9717,4.9717,4.9717,4.9717,4.9717,4.9717,4.9717,4.9717,4.9717,4.9717,4.9717,4.9717,4.9717,4.9717,4.9717,4.9717,4.9717,4.9717,4.9717,4.9717,4.9717,4.9717,4.9717,4.9717,4.9717,4.9717,4.9717,4.9815,5.0086,4.9815,4.9815,5.0038,4.9815,4.9717,4.9717,4.9717,4.9717,4.9717,4.9717,4.9717,4.9717,4.9717,4.9717,4.9717,5.0279,5.0501,5.0548,5.0994,5.1182,5.1229,5.1182,5.1182,5.1229,5.5179,5.5179,5.5179,5.5179,5.5179,5.5179,5.5179,5.5179,5.5179,5.5179,5.5179,5.5179,5.5179,5.4788,5.449,5.4341,5.3853,5.3595,5.3743,5.3743,5.3743,5.3743,5.4003,5.4062,5.3911,5.371,5.3355,5.2865,5.2013,5.1664,5.1816,5.1938,5.1988,5.2038,5.2188,5.2091,5.1748,5.1748,5.1699,5.1532,5.1532,5.1423,5.1147,5.0983,5.0795,5.0567,5.0086,4.9815,4.9717,4.9717,4.9717,4.9717,4.9717,4.9717,4.9717,4.9717,4.9717,4.9717,4.9717,4.9717,4.9717,4.9717,4.9717,4.9717,4.9717,4.9717,4.9717,4.9717,4.9717,4.9717,4.9717,4.9717,4.9717,4.9717,4.9717,4.9717,4.9717,4.9717,4.9717,4.9717,4.9717,4.9717,4.9717,4.9717,4.9717,4.9717,4.9717,4.9766,4.9941,4.9766,4.9892,5.0309,5.0038,5.0038,5.0357,5.0183,5.0135,5.0135,5.0135,4.999,4.9717,4.9717,4.9717,4.9717,4.9717,4.9766,4.9941,5.0357,5.0596,5.071,5.1088,5.1229,5.1229,5.1229,5.1229,5.1229]}]]